[[{"header":{"parameterUnit":"m.s-1","parameterCategory":1,"la1":30.6,"la2":29.2853,"lo1":-89.7004,"lo2":-87.6739,"dy":0.0162,"dx":0.0183,"nx":112,"ny":82,"refTime":"2024-07-08T18:00:00:Z","depth":0,"parameterNumber":2,"parameterNumberName":"U-component_of_WINDS"},"data":[0.0,0.0,0.0,0.0,0.0,0.0,0.0,0.0,0.0,0.0,0.0,0.0,0.0,0.0,0.0,0.0,0.0,0.0,0.0,0.0,0.0,0.0,0.0,0.0,0.0,0.0,0.0,0.0,0.0,0.0,0.0,0.0,0.0,0.0,0.0,0.0,0.0,0.0,0.0,0.0,0.0,0.0,0.0,0.0,0.0,0.0,0.0,0.0,0.0,0.0,0.0,0.0,0.0,0.0,0.0,0.0,0.0,0.0,0.0,0.0,0.0,0.0,0.0,0.0,0.0,0.0,0.0,0.0,0.0,0.0,0.0,0.0,0.0,0.0,0.0,0.0,0.0,0.0,0.0,0.0,0.0,0.0,0.0,0.0,0.0,0.0,0.0,0.0,0.0,0.0,2.1728,2.2902,2.3376,2.3369,2.2746,2.2695,2.1945,2.0111,0.0,0.0,0.0,0.0,0.0,0.0,0.0,0.0,0.0,0.0,0.0,0.0,0.0,0.0,0.0,0.0,0.0,0.0,0.0,0.0,0.0,0.0,0.0,0.0,0.0,0.0,0.0,0.0,0.0,0.0,0.0,0.0,0.0,0.0,0.0,0.0,0.0,0.0,0.0,0.0,0.0,0.0,0.0,0.0,0.0,0.0,0.0,0.0,0.0,0.0,0.0,0.0,0.0,0.0,0.0,0.0,0.0,0.0,0.0,0.0,0.0,0.0,0.0,0.0,0.0,0.0,0.0,0.0,0.0,0.0,0.0,0.0,0.0,0.0,0.0,0.0,0.0,0.0,0.0,0.0,0.0,0.0,0.0,0.0,0.0,0.0,0.0,0.0,0.0,0.0,0.0,0.0,0.0,0.0,0.0,0.0,0.0,0.0,0.0,0.0,0.0,0.0,0.0,0.0,2.177,2.3048,2.3211,2.3117,2.2746,2.2695,2.1945,2.0111,0.0,0.0,0.0,0.0,0.0,0.0,0.0,0.0,0.0,0.0,0.0,0.0,0.0,0.0,0.0,0.0,0.0,0.0,0.0,0.0,0.0,0.0,0.0,0.0,0.0,0.0,0.0,0.0,0.0,0.0,0.0,0.0,0.0,0.0,0.0,0.0,0.0,0.0,0.0,0.0,0.0,0.0,0.0,0.0,0.0,0.0,0.0,0.0,0.0,0.0,0.0,0.0,0.0,0.0,0.0,0.0,0.0,0.0,0.0,0.0,0.0,0.0,0.0,0.0,0.0,0.0,0.0,0.0,0.0,0.0,0.0,0.0,0.0,0.0,0.0,0.0,0.0,0.0,0.0,0.0,0.0,0.0,0.0,0.0,0.0,0.0,0.0,0.0,0.0,0.0,0.0,0.0,0.0,0.0,0.0,0.0,0.0,0.0,0.0,0.0,0.0,0.0,0.0,2.1289,2.2161,2.2669,2.284,2.2815,2.25,2.2473,2.1761,2.0111,1.9831,0.0,0.0,0.0,0.0,0.0,0.0,0.0,0.0,0.0,0.0,0.0,0.0,0.0,0.0,0.0,0.0,0.0,0.0,0.0,0.0,0.0,0.0,0.0,0.0,0.0,0.0,0.0,0.0,0.0,0.0,0.0,0.0,0.0,0.0,0.0,0.0,0.0,0.0,0.0,0.0,0.0,0.0,0.0,0.0,0.0,0.0,0.0,0.0,0.0,0.0,0.0,0.0,0.0,0.0,0.0,0.0,0.0,0.0,0.0,0.0,0.0,0.0,0.0,0.0,0.0,0.0,0.0,0.0,0.0,0.0,0.0,0.0,0.0,0.0,0.0,0.0,0.0,0.0,0.0,0.0,0.0,0.0,0.0,0.0,0.0,0.0,0.0,0.0,0.0,0.0,0.0,0.0,0.0,0.0,0.0,0.0,0.0,0.0,0.0,0.0,0.0,0.0,2.1972,2.24,2.2326,2.2473,2.2483,2.2163,2.1984,2.1311,1.9941,1.9177,0.0,0.0,0.0,0.0,0.0,0.0,0.0,0.0,0.0,0.0,0.0,0.0,0.0,0.0,0.0,0.0,0.0,0.0,0.0,0.0,0.0,0.0,0.0,0.0,0.0,0.0,0.0,0.0,0.0,0.0,0.0,0.0,0.0,0.0,0.0,0.0,0.0,0.0,0.0,0.0,0.0,0.0,0.0,0.0,0.0,0.0,0.0,0.0,0.0,0.0,0.0,0.0,0.0,0.0,0.0,0.0,0.0,0.0,0.0,0.0,0.0,0.0,0.0,0.0,0.0,0.0,0.0,0.0,0.0,0.0,0.0,0.0,0.0,0.0,0.0,0.0,0.0,0.0,0.0,0.0,0.0,0.0,0.0,0.0,0.0,0.0,0.0,0.0,0.0,0.0,0.0,0.0,0.0,0.0,0.0,0.0,0.0,0.0,0.0,0.0,0.0,0.0,2.1567,2.2298,2.231,2.2338,2.2147,2.1688,2.1077,2.035,1.9493,1.7663,0.0,0.0,0.0,0.0,0.0,0.0,0.0,0.0,0.0,0.0,0.0,0.0,0.0,0.0,0.0,0.0,0.0,0.0,0.0,0.0,0.0,0.0,0.0,0.0,0.0,0.0,0.0,0.0,0.0,0.0,0.0,0.0,0.0,0.0,0.0,0.0,0.0,0.0,0.0,0.0,0.0,0.0,0.0,0.0,0.0,0.0,0.0,0.0,0.0,0.0,0.0,0.0,0.0,0.0,0.0,0.0,0.0,0.0,0.0,0.0,0.0,0.0,0.0,0.0,0.0,0.0,0.0,0.0,0.0,0.0,0.0,0.0,0.0,0.0,0.0,0.0,0.0,0.0,0.0,0.0,0.0,0.0,0.0,0.0,0.0,0.0,0.0,0.0,0.0,0.0,0.0,0.0,0.0,0.0,0.0,0.0,0.0,0.0,0.0,0.0,0.0,0.0,2.0517,2.1143,0.0,2.1493,2.1415,2.1244,2.1001,2.0353,1.9159,0.0,0.0,0.0,0.0,0.0,0.0,0.0,0.0,0.0,0.0,0.0,0.0,0.0,0.0,0.0,0.0,0.0,0.0,0.0,0.0,0.0,0.0,0.0,0.0,0.0,0.0,0.0,0.0,0.0,0.0,0.0,0.0,0.0,0.0,0.0,0.0,0.0,0.0,0.0,0.0,0.0,0.0,0.0,0.0,0.0,0.0,0.0,0.0,0.0,0.0,0.0,0.0,0.0,0.0,0.0,0.0,0.0,0.0,0.0,0.0,0.0,0.0,0.0,0.0,0.0,0.0,0.0,0.0,0.0,0.0,0.0,0.0,0.0,0.0,0.0,0.0,0.0,0.0,0.0,0.0,0.0,0.0,0.0,0.0,0.0,0.0,0.0,0.0,0.0,0.0,0.0,0.0,0.0,0.0,0.0,0.0,0.0,0.0,0.0,0.0,0.0,0.0,1.9153,2.0045,2.0645,0.0,2.0991,2.0926,2.0797,2.0606,1.9972,1.8738,0.0,0.0,0.0,0.0,0.0,0.0,0.0,0.0,0.0,0.0,0.0,0.0,0.0,0.0,0.0,0.0,0.0,0.0,0.0,0.0,0.0,0.0,0.0,0.0,0.0,0.0,0.0,0.0,0.0,0.0,0.0,0.0,0.0,0.0,0.0,0.0,0.0,0.0,0.0,0.0,0.0,0.0,0.0,0.0,0.0,0.0,0.0,0.0,0.0,0.0,0.0,0.0,0.0,0.0,0.0,0.0,0.0,0.0,0.0,0.0,0.0,0.0,0.0,0.0,0.0,0.0,0.0,0.0,0.0,0.0,0.0,0.0,0.0,0.0,0.0,0.0,0.0,0.0,0.0,0.0,0.0,0.0,0.0,0.0,0.0,0.0,0.0,0.0,0.0,0.0,0.0,0.0,0.0,0.0,0.0,0.0,0.0,0.0,0.0,0.0,0.0,0.0,1.9192,2.034,2.1007,2.1007,2.1007,2.0797,2.0348,1.9725,1.9044,0.0,0.0,0.0,0.0,0.0,0.0,0.0,0.0,0.0,0.0,0.0,0.0,0.0,0.0,0.0,0.0,0.0,0.0,0.0,0.0,0.0,0.0,0.0,0.0,0.0,0.0,0.0,0.0,0.0,0.0,0.0,0.0,0.0,0.0,0.0,0.0,0.0,0.0,0.0,0.0,0.0,0.0,0.0,0.0,0.0,0.0,0.0,0.0,0.0,0.0,0.0,0.0,0.0,0.0,0.0,0.0,0.0,0.0,0.0,0.0,0.0,0.0,0.0,0.0,0.0,0.0,0.0,0.0,0.0,0.0,0.0,0.0,0.0,0.0,0.0,0.0,0.0,0.0,0.0,0.0,0.0,0.0,0.0,0.0,0.0,0.0,0.0,0.0,0.0,0.0,0.0,0.0,0.0,0.0,0.0,0.0,0.0,0.0,0.0,0.0,0.0,0.0,0.0,1.8776,1.9623,2.0085,2.0085,2.0085,2.0015,1.9874,1.9269,1.8604,1.7906,0.0,0.0,0.0,0.0,0.0,0.0,0.0,0.0,0.0,0.0,0.0,0.0,0.0,0.0,0.0,0.0,0.0,0.0,0.0,0.0,0.0,0.0,0.0,0.0,0.0,0.0,0.0,0.0,0.0,0.0,0.0,0.0,0.0,0.0,0.0,0.0,0.0,0.0,0.0,0.0,0.0,0.0,0.0,0.0,0.0,0.0,0.0,0.0,0.0,0.0,0.0,0.0,0.0,0.0,0.0,0.0,0.0,0.0,0.0,0.0,0.0,0.0,0.0,0.0,0.0,0.0,0.0,0.0,0.0,0.0,0.0,0.0,0.0,0.0,0.0,0.0,0.0,0.0,0.0,0.0,0.0,0.0,0.0,0.0,0.0,0.0,0.0,0.0,0.0,0.0,0.0,0.0,0.0,0.0,0.0,0.0,0.0,0.0,0.0,0.0,0.0,0.0,1.8604,1.9311,1.969,1.969,1.969,1.969,1.969,1.9316,1.8702,1.7757,0.0,0.0,0.0,0.0,0.0,0.0,0.0,0.0,0.0,0.0,0.0,0.0,0.0,0.0,0.0,0.0,0.0,0.0,0.0,0.0,0.0,0.0,0.0,0.0,0.0,0.0,0.0,0.0,0.0,0.0,0.0,0.0,0.0,0.0,0.0,0.0,0.0,0.0,0.0,0.0,0.0,0.0,0.0,0.0,0.0,0.0,0.0,0.0,0.0,0.0,0.0,0.0,0.0,0.0,0.0,0.0,0.0,0.0,0.0,0.0,0.0,0.0,0.0,0.0,0.0,0.0,0.0,0.0,0.0,0.0,0.0,0.0,0.0,0.0,0.0,0.0,0.0,0.0,0.0,0.0,0.0,0.0,0.0,0.0,0.0,0.0,0.0,0.0,0.0,0.0,0.0,0.0,0.0,0.0,0.0,0.0,0.0,0.0,0.0,0.0,0.0,0.0,1.8562,1.9311,1.969,1.969,1.969,1.969,1.969,1.9594,1.8976,1.7724,0.0,0.0,0.0,0.0,0.0,0.0,0.0,0.0,0.0,0.0,0.0,0.0,0.0,0.0,0.0,0.0,0.0,0.0,0.0,0.0,0.0,0.0,0.0,0.0,0.0,0.0,0.0,0.0,0.0,0.0,0.0,0.0,0.0,0.0,0.0,0.0,0.0,0.0,0.0,0.0,0.0,0.0,0.0,0.0,0.0,0.0,0.0,0.0,0.0,0.0,0.0,0.0,0.0,0.0,0.0,0.0,0.0,0.0,0.0,0.0,1.463,0.0,0.0,0.0,0.0,0.0,0.0,0.0,0.0,0.0,0.0,0.0,0.0,0.0,0.0,0.0,0.0,0.0,0.0,0.0,0.0,0.0,0.0,0.0,0.0,0.0,0.0,0.0,0.0,0.0,0.0,0.0,0.0,0.0,0.0,0.0,0.0,0.0,0.0,0.0,0.0,0.0,1.8206,1.9144,1.969,1.969,1.969,1.969,1.969,1.8825,1.7969,1.7267,1.5602,0.0,0.0,0.0,0.0,0.0,0.0,0.0,0.0,0.0,0.0,0.0,0.0,0.0,0.0,0.0,0.0,0.0,0.0,0.0,0.0,0.0,0.0,0.0,0.0,0.0,0.0,0.0,0.0,0.0,0.0,0.0,0.0,0.0,0.0,0.0,0.0,0.0,0.0,0.0,0.0,0.0,0.0,0.0,0.0,0.0,0.0,0.0,0.0,0.0,0.0,0.0,0.0,0.0,0.0,0.0,0.0,0.0,0.0,0.0,0.0,1.5031,0.0,0.0,0.0,0.0,0.0,0.0,0.0,0.0,0.0,0.0,0.0,0.0,0.0,0.0,0.0,0.0,0.0,0.0,0.0,0.0,0.0,0.0,0.0,0.0,0.0,0.0,0.0,0.0,0.0,0.0,0.0,0.0,0.0,0.0,0.0,0.0,0.0,0.0,0.0,0.0,1.8547,1.9273,1.969,1.969,1.969,1.969,1.969,1.9131,1.8396,1.7545,1.6042,0.0,0.0,0.0,0.0,0.0,0.0,0.0,0.0,0.0,0.0,0.0,0.0,0.0,0.0,0.0,0.0,0.0,0.0,0.0,0.0,0.0,0.0,0.0,0.0,0.0,0.0,0.0,0.0,0.0,0.0,0.0,0.0,0.0,0.0,0.0,0.0,0.0,0.0,0.0,0.0,0.0,0.0,0.0,0.0,0.0,0.0,0.0,0.0,0.0,0.0,0.0,0.0,0.0,1.5636,1.568,1.616,1.5554,1.5387,1.5558,1.4891,1.498,1.5586,1.5923,0.0,0.0,0.0,0.0,0.0,0.0,0.0,0.0,0.0,0.0,0.0,0.0,0.0,0.0,0.0,0.0,0.0,0.0,0.0,0.0,0.0,0.0,0.0,0.0,1.6243,1.6415,1.6619,0.0,0.0,0.0,0.0,0.0,0.0,0.0,0.0,0.0,0.0,0.0,1.8842,1.9396,1.969,1.969,1.9603,1.9566,1.9566,1.9406,1.8819,1.7718,1.662,1.5574,0.0,0.0,0.0,0.0,0.0,0.0,0.0,0.0,0.0,0.0,0.0,0.0,0.0,0.0,0.0,0.0,0.0,0.0,0.0,0.0,0.0,0.0,0.0,0.0,0.0,0.0,0.0,0.0,0.0,0.0,0.0,0.0,1.126,1.2002,0.0,0.0,0.0,0.0,0.0,0.0,0.0,0.0,0.0,0.0,0.0,0.0,0.0,1.6154,1.6082,1.6237,1.6258,1.6258,1.6299,1.6388,1.641,1.5831,1.5838,1.6298,1.5151,0.0,1.6271,1.6269,0.0,0.0,0.0,0.0,0.0,0.0,0.0,0.0,0.0,0.0,0.0,0.0,0.0,0.0,0.0,0.0,0.0,0.0,0.0,0.0,0.0,0.0,1.6464,1.6464,1.6473,1.6456,0.0,1.6283,1.5913,1.5365,1.5352,0.0,0.0,0.0,0.0,0.0,0.0,0.0,1.8106,1.9043,1.969,1.969,1.9281,1.9006,1.9006,1.8145,1.7344,1.6715,1.6075,1.5634,1.5349,1.4183,0.0,0.0,0.0,0.0,0.0,0.0,0.0,0.0,0.0,0.0,0.0,0.0,0.0,0.0,0.0,0.0,0.0,0.0,0.0,0.0,0.0,0.0,0.0,0.0,0.0,0.0,0.0,0.0,0.0,1.2228,1.3058,1.3819,1.3726,1.3804,0.0,0.0,0.0,0.0,0.0,0.0,0.0,0.0,0.0,1.5764,1.6632,1.7174,1.7268,1.7355,1.7352,1.7352,1.6995,1.6817,1.6817,1.6561,1.6385,1.635,1.655,1.6538,1.6244,1.5978,1.5553,1.5127,0.0,0.0,0.0,0.0,1.4492,1.4405,1.4095,1.4024,1.3935,1.3315,0.0,0.0,0.0,0.0,0.0,0.0,0.0,0.0,0.0,0.0,1.6386,1.6083,1.5744,1.5567,1.5908,1.5902,1.5836,0.0,1.6141,1.641,1.6479,0.0,0.0,0.0,0.0,1.7963,1.8395,1.8682,1.8817,1.8817,1.8574,1.8458,1.8458,1.8027,1.7518,1.6983,1.644,1.5995,1.5645,1.5023,1.4332,0.0,0.0,0.0,0.0,0.0,0.0,0.0,0.0,0.0,0.0,0.0,0.0,0.0,0.0,0.0,0.0,0.0,0.0,0.0,0.0,0.0,0.0,0.0,0.0,0.0,0.0,0.0,0.0,1.3216,1.4012,1.5449,1.4773,1.4492,0.0,0.0,0.0,0.0,0.0,0.0,1.451,1.5401,1.6008,1.6203,1.7188,1.7844,1.8204,1.8001,1.7941,1.7894,1.7364,1.7108,1.7108,1.7157,1.6863,1.6478,1.7339,1.7046,1.5919,1.5893,1.5233,1.4282,1.4809,1.4641,1.4078,1.4061,1.3948,1.3849,1.3663,1.3552,1.349,1.3114,1.3205,1.3466,1.3665,0.0,0.0,0.0,0.0,1.5599,1.5812,1.5913,1.5872,1.5454,1.5141,1.5017,1.532,1.5576,1.5893,0.0,1.6665,1.6948,1.6981,0.0,0.0,0.0,0.0,1.7633,1.8387,1.8263,1.8106,1.8106,1.7987,1.7907,1.7907,1.7787,1.7504,1.7105,1.6714,1.6331,1.5906,1.5671,1.5017,1.3873,0.0,0.0,0.0,0.0,0.0,0.0,0.0,0.0,0.0,0.0,0.0,0.0,0.0,0.0,0.0,0.0,0.0,0.0,0.0,0.0,0.0,0.0,0.0,0.0,0.0,0.0,0.0,0.0,0.0,1.6148,1.4481,0.0,0.0,0.0,0.0,1.4439,1.4517,1.4646,1.5047,1.5662,1.6037,1.6198,1.6828,1.7472,1.8204,1.7521,1.7157,1.7157,1.7108,1.7108,1.7108,1.7218,1.7218,1.701,1.6528,1.5833,1.5226,1.6508,1.6561,1.5903,1.5903,1.5641,1.5159,1.4552,1.4152,1.37,1.3142,1.2978,1.292,1.29,1.2963,1.3115,1.3615,1.4114,0.0,0.0,1.4855,1.5204,1.4644,1.4657,1.4789,1.4744,1.5141,1.541,1.488,1.5608,1.6391,0.0,1.6514,1.6701,1.7192,0.0,1.7274,1.7341,1.7773,1.7906,1.7422,1.7787,1.8106,1.8106,1.7626,1.7353,1.7353,1.6879,1.6552,1.6552,1.6527,1.6471,1.6471,1.5944,1.5671,1.558,1.4036,0.0,0.0,0.0,0.0,0.0,0.0,0.0,0.0,0.0,0.0,0.0,0.0,0.0,0.0,0.0,0.0,0.0,0.0,0.0,0.0,0.0,0.0,0.0,0.0,0.0,0.0,0.0,0.0,1.5575,1.4424,0.0,1.5156,1.4417,1.4158,1.4829,1.4469,1.4307,1.443,1.4925,1.5444,1.6019,1.6938,1.753,1.7804,1.8012,1.7897,1.7425,1.6946,1.6946,1.7425,1.7,1.7011,1.7425,1.716,1.6957,1.6699,1.6688,1.5956,1.4841,1.5298,1.509,1.4501,1.4304,1.41,1.3971,1.3733,1.3691,1.3691,1.3691,1.3677,1.3761,1.3921,1.4114,1.4246,1.4202,1.4656,1.5126,1.4923,1.4665,1.4489,1.4489,1.418,1.392,1.4097,1.5026,1.5938,1.6372,1.6707,1.7264,1.8249,1.8106,1.8106,1.8782,1.8173,1.7692,1.785,1.7395,1.7076,1.7076,1.6909,1.6795,1.6795,1.6595,1.6522,1.6522,1.6522,1.6522,1.6522,1.6333,1.6057,1.5706,1.5116,1.4212,0.0,0.0,0.0,0.0,0.0,0.0,0.0,0.0,0.0,0.0,0.0,0.0,0.0,0.0,0.0,0.0,0.0,0.0,0.0,0.0,0.0,0.0,0.0,0.0,0.0,0.0,1.4468,1.5689,1.4573,1.4148,1.5277,1.4718,1.4481,1.4961,1.4572,1.4414,1.4561,1.4844,1.5319,1.6066,1.6861,1.7357,1.7578,1.7852,1.7852,1.7567,1.709,1.7146,1.7578,1.7357,1.7246,1.7246,1.7468,1.7302,1.6856,1.6866,1.596,1.4561,1.5077,1.4888,1.4355,1.4355,1.4258,1.4077,1.4077,1.4077,1.4077,1.4077,1.4077,1.4077,1.4077,1.4238,1.4355,1.4355,1.468,1.5001,1.5001,1.4644,1.4287,1.4287,1.3942,1.3691,1.3858,1.4876,1.5935,1.6474,1.7119,1.7814,1.8603,1.8427,1.8508,1.9414,1.8494,1.7867,1.8455,1.7522,1.681,1.681,1.6635,1.6522,1.6522,1.668,1.668,1.6522,1.668,1.668,1.6522,1.6522,1.6346,1.5982,1.5657,1.4718,1.3165,0.0,0.0,0.0,0.0,0.0,0.0,0.0,0.0,0.0,0.0,0.0,0.0,0.0,0.0,0.0,0.0,0.0,0.0,0.0,0.0,0.0,0.0,0.0,1.3731,1.3335,1.3992,1.6495,1.4888,1.4124,1.5712,1.4788,1.4336,1.4775,1.4805,1.498,1.5391,1.541,1.5748,1.6436,1.6492,1.681,1.7523,1.6877,1.6877,1.7523,1.7523,1.7523,1.7578,1.8274,1.7841,1.6539,1.7246,1.6743,1.5575,1.6968,1.6743,1.5468,1.5468,1.5223,1.4861,1.4861,1.4596,1.417,1.417,1.417,1.4116,1.4116,1.4116,1.4116,1.4116,1.4473,1.4805,1.4805,1.4805,1.4805,1.4805,1.4482,1.4097,1.4097,1.4619,1.4872,1.4291,1.5226,1.6396,1.6879,1.7673,1.8254,1.8254,1.8254,1.8465,1.9048,1.8613,0.0,1.9021,1.8113,1.7446,1.7446,1.693,1.6534,1.6547,1.7005,1.7076,1.6522,1.6993,1.7034,1.6522,1.6522,1.6522,1.6522,1.5496,1.4368,1.3153,0.0,0.0,0.0,0.0,0.0,0.0,0.0,0.0,0.0,0.0,0.0,0.0,0.0,0.0,0.0,0.0,0.0,0.0,0.0,0.0,0.0,1.2372,1.2613,1.3541,1.3873,1.4223,1.4777,1.4335,1.4228,1.5023,1.481,1.4775,1.5205,1.5244,1.5293,1.54,1.541,1.5468,1.569,1.6208,1.6312,1.6026,1.6312,1.6312,1.6026,1.6026,1.6301,1.6821,1.6472,1.6687,1.7246,1.6358,1.6358,1.6968,1.6866,1.6866,1.7024,1.7024,1.6623,1.6079,1.6618,1.6433,1.5838,1.5838,1.5501,1.5059,1.5059,1.5059,1.5059,1.5059,1.5146,1.5244,1.5244,1.5244,1.5244,1.5244,1.4922,1.4609,1.4609,1.4474,1.4493,1.4831,1.5877,1.6811,1.6987,1.8298,1.9359,1.9359,1.9359,1.9409,1.9584,1.9131,0.0,1.9012,1.8399,1.8139,1.8591,1.8096,1.7757,1.7817,1.7508,1.7076,1.6522,1.6637,1.6637,1.6522,1.6522,1.6522,1.6522,1.5423,1.4666,0.0,0.0,0.0,0.0,0.0,0.0,0.0,0.0,0.0,0.0,0.0,0.0,0.0,0.0,0.0,0.0,0.0,0.0,0.0,0.0,0.0,0.0,1.2521,1.2845,1.3523,1.3682,1.3939,1.4346,1.4404,1.458,1.501,1.5049,1.5146,1.5391,1.541,1.5488,1.5674,1.5508,1.5586,1.5947,1.6187,1.6145,1.5684,1.6145,1.6171,1.5864,1.5864,1.6093,1.6492,1.6036,1.614,1.6631,1.6083,1.6197,1.6687,1.6866,1.7034,0.0,0.0,0.0,0.0,0.0,1.6866,1.6436,1.6151,1.5748,1.541,1.541,1.541,1.541,1.541,1.541,1.541,1.541,1.541,1.541,1.541,1.5234,1.5049,1.5049,1.5068,1.5198,1.5666,1.6782,1.7698,1.7698,1.8565,0.0,1.9747,1.9798,1.9901,2.0207,1.9687,1.9447,1.9746,1.9029,1.8674,1.9016,1.8526,1.8131,1.7917,1.7764,0.0,0.0,0.0,1.671,1.6522,1.6522,0.0,0.0,0.0,0.0,0.0,0.0,0.0,0.0,1.2761,1.2812,0.0,0.0,0.0,0.0,0.0,0.0,0.0,0.0,0.0,0.0,0.0,0.0,0.0,0.0,0.0,0.0,1.2744,1.3484,1.3707,1.3365,1.3525,1.4693,1.4853,1.5,1.5381,1.541,1.543,1.5478,1.5361,1.5545,1.5982,0.0,0.0,0.0,0.0,1.6143,1.6143,1.6143,1.6297,1.6535,1.6535,1.6535,1.6535,1.6472,1.6165,1.5654,1.6171,1.6036,1.5633,1.7024,1.7302,1.6922,1.7413,1.7633,1.7622,1.6922,1.6539,1.6436,1.5748,0.0,0.0,1.541,1.541,1.541,1.541,1.541,1.541,1.541,1.541,1.541,1.541,1.5468,1.5526,1.5526,1.6093,1.6652,1.6708,1.7797,1.8715,1.8715,1.8768,1.8992,1.9579,1.9695,1.9901,2.0597,2.0207,2.0003,2.0597,1.9735,1.912,1.9207,0.0,0.0,1.7738,1.8059,1.7831,1.6735,1.7144,1.7187,1.671,1.671,1.671,1.671,1.6001,1.5405,1.4877,1.452,1.4094,1.3564,1.4163,1.4163,0.0,0.0,0.0,0.0,0.0,0.0,0.0,0.0,0.0,0.0,0.0,0.0,0.0,0.0,0.0,1.362,1.3229,1.3173,1.442,1.4181,1.4308,1.5168,1.5293,1.5322,1.54,1.541,1.5557,1.5908,1.5252,1.5049,1.5442,1.5396,1.5423,1.5588,1.6243,1.6602,1.6602,1.6602,1.6625,1.6661,0.0,0.0,1.6651,1.6346,1.6407,1.6801,1.5966,1.5864,1.6379,1.7246,1.8232,1.9044,1.8004,1.7961,1.8394,1.7688,1.7034,1.6492,1.6322,1.5921,1.541,1.541,1.541,1.541,1.541,1.541,0.0,1.541,1.541,1.541,1.541,1.5864,1.6265,1.6265,1.6866,1.7523,1.8167,1.8501,1.8715,1.8715,1.9202,1.9423,1.8992,1.8927,1.915,1.9888,1.9901,1.985,2.0003,1.9762,1.9851,2.039,1.9895,1.9504,1.9481,1.9094,1.8565,1.7924,1.797,1.7958,1.7877,1.7877,1.7877,1.7877,1.6679,1.6045,1.5897,1.4728,1.411,1.4014,1.4126,1.4138,0.0,0.0,0.0,0.0,0.0,0.0,0.0,0.0,0.0,0.0,0.0,1.2004,1.3434,0.0,1.2953,1.3826,1.3802,1.3871,1.4419,1.4683,1.4932,1.5352,1.541,1.541,1.541,1.5181,1.5149,1.5355,1.4737,1.469,1.5525,1.5429,1.5705,1.659,1.6898,1.7061,1.7061,1.7061,1.6953,1.6665,1.6665,1.6665,1.6665,1.6494,1.6582,1.6931,1.6284,1.6246,1.6657,1.7397,1.8215,1.8944,1.7834,1.7901,1.8555,1.7468,1.6821,1.6436,1.6093,1.569,1.541,1.541,1.541,1.541,1.541,1.541,1.541,1.541,1.541,1.541,1.541,1.5921,1.6492,1.6492,1.7357,1.8232,1.8608,1.8992,1.9254,1.9254,1.9254,1.9254,1.9254,1.8927,1.8939,1.9695,1.9798,1.9798,1.9798,1.9798,1.9952,2.0245,2.0001,1.9731,1.951,1.8969,1.8508,1.8204,1.8204,1.8204,1.8204,1.8204,1.8049,1.7677,1.6688,1.6036,1.5639,1.4821,1.4463,1.4463,1.4678,1.4658,0.0,0.0,0.0,0.0,0.0,0.0,0.0,0.0,1.194,1.2256,1.2422,1.2686,1.3379,1.3643,1.3763,1.381,1.4449,1.4792,1.4464,1.4874,1.5177,1.5177,1.5177,1.5205,1.5282,1.4741,1.4488,1.4637,1.409,1.4346,1.5724,1.5451,1.6051,1.7696,1.7609,1.75,1.75,1.75,1.7334,1.6982,1.6982,1.6982,1.6973,1.6894,1.6855,1.6855,1.6768,1.6792,1.6971,1.7554,1.8044,1.8344,1.7594,1.7813,1.8334,1.6818,1.6265,1.6208,1.5584,1.541,1.541,1.541,1.541,1.541,1.541,1.541,1.541,1.541,1.5526,1.5633,1.5633,1.6255,1.6866,1.6765,1.7852,1.8874,1.8715,1.9254,1.9798,1.9798,1.9307,1.9097,1.9695,1.9319,1.9097,1.9695,1.9798,1.9798,1.9798,1.9798,1.9798,1.9798,1.9798,1.9635,1.9221,1.8769,1.8518,1.8518,1.8518,1.8518,1.8518,1.8518,1.8251,1.7615,1.6864,1.6159,1.5606,1.5114,1.4902,1.4912,1.5254,1.5234,1.2861,1.2396,1.2394,1.2328,1.2611,1.2893,0.0,0.0,1.2843,1.2801,1.3105,1.3389,1.3486,1.4131,1.4668,1.4654,1.5041,1.5303,1.5284,1.4756,1.4323,1.4323,1.4323,1.4469,1.4771,1.4016,1.3809,1.4445,1.3661,1.3832,1.5221,1.5275,1.5713,1.6706,1.7531,1.7939,1.7939,1.7939,1.792,1.7861,1.7861,1.7861,1.7852,1.748,1.7314,1.7285,1.6894,1.7086,1.7678,1.7791,1.8237,1.8773,1.8012,1.7809,1.7711,1.6097,1.5526,1.5526,1.541,1.541,1.541,1.541,1.541,1.541,1.541,1.541,1.541,1.541,1.5864,1.6379,1.6379,1.7413,1.8286,1.7633,1.8608,1.9475,1.8821,1.9254,1.9798,1.9798,1.9747,1.9695,1.9798,1.9747,1.9695,1.9798,1.9798,1.9798,1.9798,1.9798,1.9798,1.9798,1.9798,1.9773,1.9723,1.966,1.9623,1.9623,1.9623,1.9623,1.9623,1.9623,1.9571,1.9508,1.8165,1.741,1.7312,1.5981,1.5342,1.5342,1.5391,1.5391,1.4828,1.4222,1.3822,0.0,1.3826,1.3478,1.3423,1.3337,1.3302,1.3253,1.3584,1.3945,1.4209,1.4541,1.4863,0.0,1.5293,1.5235,1.4756,1.4392,1.4034,1.3545,1.3114,1.3071,1.3882,1.3356,1.342,1.444,1.3353,1.3588,1.5922,1.5517,1.5649,1.6558,1.7001,1.6932,1.6367,1.6376,1.6655,1.7217,1.7217,1.7501,1.8008,1.7832,1.7744,1.7734,1.7549,1.7658,1.7911,1.7911,1.7944,1.8018,1.7721,1.7369,1.7099,1.6432,1.6016,1.5791,1.5791,1.5625,1.541,1.541,1.541,1.541,1.541,1.569,1.6036,1.6036,1.6595,1.7135,1.7135,1.7578,1.8112,1.8232,1.8715,1.9202,1.9307,1.9579,1.9798,1.9798,1.9798,1.9798,1.9798,1.9798,1.9798,1.9798,1.9798,1.9798,1.9798,1.9798,1.9798,1.9798,1.9798,1.9798,1.9798,1.9798,1.9798,1.9798,1.9798,1.9798,1.9798,1.9798,1.9592,1.915,1.8555,1.8015,1.7578,1.6528,1.6036,1.6046,1.59,1.5791,1.5866,0.0,0.0,1.5227,1.4687,1.405,1.405,1.381,1.3601,1.372,1.3942,1.4214,1.4697,1.4883,1.5059,1.5361,1.5225,1.4874,1.4273,1.3846,1.3295,1.2757,1.1958,1.1811,1.2744,1.2483,1.2713,1.3824,1.2813,1.3281,1.5641,1.5163,1.5234,1.621,1.621,1.5869,1.5234,1.5234,1.5649,1.6636,1.6636,1.6922,1.7579,1.7579,1.7579,1.7647,1.7872,1.8008,1.8008,1.8008,1.7832,1.7559,1.7559,1.7363,1.709,1.709,1.6728,1.625,1.625,1.6035,1.5752,1.5635,1.5674,1.5811,1.5909,1.6417,1.6953,1.7056,1.7567,1.8132,1.7941,1.8058,1.8286,1.8608,1.8886,1.9097,1.9423,1.9643,1.9798,1.9798,1.9798,1.9798,1.9798,1.9798,1.9798,1.9798,1.9798,1.9798,1.9798,1.9798,1.9798,1.9798,1.9798,1.9798,1.9798,1.9798,1.9798,1.9798,1.9798,1.9798,1.9798,1.9798,1.9527,1.898,1.8821,1.8447,1.7895,1.7146,1.6885,1.7024,1.6839,1.6828,0.0,0.0,1.4687,1.4744,1.4698,1.4652,1.4652,1.4201,1.3915,1.4307,1.4224,1.4214,1.4697,1.5117,1.54,1.541,1.4756,1.4213,1.4213,1.287,1.1826,1.1826,1.1108,1.0846,1.1424,1.1229,1.1431,1.2298,1.211,1.2428,1.3723,1.3745,1.4243,1.5234,1.5234,1.5234,1.5234,1.5234,1.5649,1.6636,1.6636,1.6627,1.6636,1.6636,1.6636,1.6706,1.7579,1.8008,1.8008,1.8008,1.8008,1.7988,1.7988,1.7978,1.7969,1.7969,1.7432,1.6709,1.6709,1.6636,1.6621,1.6182,1.6338,1.6737,1.7217,1.7634,1.803,1.8333,1.8997,1.938,1.8792,1.9202,1.9579,1.8874,1.9254,1.9579,1.8874,1.9319,1.9798,1.9798,1.9798,1.9798,1.9798,1.9798,1.9798,1.9798,1.9798,1.9798,1.9798,1.9798,1.9798,1.9798,1.9798,1.9798,1.9798,1.9798,1.9798,1.9798,1.9798,1.9798,1.9798,1.9798,1.9798,1.9747,1.9044,1.8715,1.8661,1.7961,1.7891,1.843,1.8441,1.871,1.5837,0.0,1.5876,1.5876,1.5599,1.5276,1.5276,1.5026,1.493,1.5471,1.5342,1.5338,1.5843,1.5658,1.541,1.541,1.4746,1.4025,1.3485,1.2504,1.1667,1.1325,1.1036,0.0,1.1663,1.1456,0.0,1.3114,1.257,1.2912,1.4585,1.4027,1.389,1.4171,1.4171,1.3882,1.3302,1.3302,1.373,1.4665,1.5367,1.5649,1.5649,1.5649,1.6,1.6636,1.6922,1.7432,1.8008,1.8008,1.8008,1.8008,1.8008,1.8008,1.8008,1.8008,1.7832,1.7539,1.7266,1.6973,1.6709,1.6553,1.6611,1.6699,1.6917,1.738,1.7829,1.7664,1.8154,1.8713,1.8696,1.8814,1.8893,1.8744,1.9215,1.9492,1.8851,1.9254,1.9798,1.9798,1.9798,1.9798,1.9798,1.9798,1.9798,1.9798,1.9798,1.9798,1.9798,1.9798,1.9798,1.9798,1.9798,1.9798,1.9798,1.9798,1.9798,1.9798,1.9798,1.9798,1.9798,1.9798,1.9798,1.9798,1.9579,1.9608,2.0032,1.8686,1.8326,1.8876,1.8142,1.7883,1.6693,1.6795,1.6752,1.6552,1.6194,1.5908,1.5908,1.5668,1.5576,1.6112,1.5709,1.533,1.5546,1.5034,1.4659,1.4802,1.387,1.3143,1.3053,1.2126,1.1404,1.1034,1.1082,1.1336,0.0,0.0,0.0,1.3128,1.2563,1.276,1.4083,1.352,1.3164,1.3164,1.3164,1.2879,1.2305,1.2305,1.2732,1.3745,1.4378,1.4665,1.4665,1.4665,1.5155,1.614,1.6419,1.7139,1.8008,1.8008,1.8008,1.8008,1.8008,1.8008,1.8008,1.8008,1.8008,1.7969,1.7705,1.7422,1.7158,1.7012,1.707,1.7158,1.7312,1.7851,1.8281,1.7952,1.8364,1.8812,1.8629,1.8612,1.8667,1.8734,1.9312,1.9701,1.929,1.9841,2.0338,2.015,2.0275,2.0338,2.0137,2.0275,2.0401,2.0401,2.0401,2.0338,2.0137,1.9924,1.9962,2.0363,2.0225,2.0188,2.0388,2.0401,2.0401,2.0401,2.0401,2.0401,2.0401,2.0401,2.0401,2.0401,2.0401,2.0589,2.0953,1.9965,1.9541,1.9741,1.9024,1.8647,1.7312,1.7271,1.7146,1.6637,1.6522,1.6522,1.6522,1.6051,1.5787,1.6208,1.533,1.4366,1.4051,0.0,1.3305,1.3761,1.2489,1.1804,1.2887,1.1909,1.1022,0.0,0.0,0.0,0.0,0.0,0.0,1.2305,0.0,1.2017,1.2311,1.2311,1.2305,1.2305,1.2305,1.2305,1.2305,1.2305,1.2732,1.36,1.36,1.36,1.36,1.36,1.4171,1.5163,1.607,1.7001,1.7872,1.7872,1.7872,1.7862,1.794,1.794,1.794,1.8008,1.8008,1.8008,1.8008,1.8008,1.7939,1.7539,1.7686,1.8055,1.8462,1.8887,1.9175,1.9061,1.931,1.9454,1.8489,1.86,1.8884,1.8862,1.9538,2.0204,2.0169,2.0836,2.133,2.0857,2.1129,2.133,2.0857,2.1142,2.1493,2.1493,2.1493,2.1305,2.0832,2.0225,2.03,2.1368,2.1016,2.097,2.1443,2.1493,2.1493,2.1493,2.1493,2.1493,2.1493,2.1493,2.1493,2.1493,2.1493,2.1506,2.1531,2.1475,2.1326,2.0984,2.0984,2.0815,1.7312,1.6993,1.668,1.6522,1.6522,1.6522,1.6522,1.638,1.6298,1.637,1.5702,1.4864,1.426,1.4291,0.0,1.424,1.3449,0.0,1.376,1.2388,0.0,1.1623,0.0,1.187,1.2164,1.2191,0.0,0.0,1.2358,1.2325,1.2694,1.2425,1.2305,1.2305,1.2305,1.2305,1.2305,1.2305,1.2445,1.2666,1.2666,1.2666,1.2666,1.2666,1.3164,1.4099,1.4314,1.5021,1.5948,1.5948,1.5948,1.6009,1.6715,1.6922,1.707,1.7725,1.8008,1.8008,1.8008,1.8008,1.7988,1.7881,1.793,1.7988,1.8131,1.8247,1.8285,1.793,1.7914,1.8002,1.7954,1.8318,1.8584,1.8171,1.9501,2.0523,1.9606,2.0481,2.1443,2.1305,2.1393,2.1443,2.1305,2.1393,2.1493,2.1493,2.1493,2.1443,2.1292,2.1154,2.1167,2.1455,2.1368,2.133,2.1481,2.1493,2.1493,2.1493,2.1493,2.1493,2.1493,2.1493,2.1493,2.1493,2.1493,2.1694,2.2096,2.1421,2.0959,2.0717,2.0717,1.9954,1.7312,1.7076,1.6795,1.6552,1.6522,1.6423,1.6194,1.6095,1.6005,1.574,1.5101,1.4403,1.3741,1.3719,0.0,0.0,0.0,0.0,1.3664,1.2526,1.1683,0.0,1.1984,0.0,1.2285,1.2305,1.2478,0.0,1.2162,1.1971,1.2726,1.2201,1.2041,1.2498,1.2632,1.2464,1.1986,1.174,1.1683,1.1727,1.1676,1.1842,1.2305,1.2305,1.2806,1.3673,0.0,1.4243,1.5234,1.5234,1.5234,1.5305,1.621,1.6636,1.6706,1.7647,1.8008,1.8008,1.8008,1.8008,1.8008,1.8008,1.8008,1.8008,1.8008,1.8008,1.793,1.75,1.7519,1.7681,1.7614,1.8009,1.8273,1.7965,1.9399,2.0657,1.9879,2.0746,2.1673,2.1673,2.1778,2.1933,2.2171,2.2209,2.2209,2.2209,2.2209,2.2209,2.2209,2.1782,2.1681,2.2159,2.1995,2.1945,2.2184,2.2209,2.2209,2.2209,2.2209,2.2209,2.2209,2.2209,2.2209,2.2209,2.2209,2.2359,2.2673,2.2161,2.1445,2.059,2.0974,2.0009,1.7312,1.7229,1.7063,1.6497,1.638,1.6238,1.5632,1.5398,1.5219,1.4698,0.0,1.3321,1.2677,1.2452,1.2537,1.2986,0.0,1.2281,1.3372,1.2658,1.1924,1.1924,1.2151,1.2305,1.2305,1.215,1.2306,1.287,1.1377,1.1163,1.2846,1.1887,1.1713,1.2806,1.2909,1.2466,1.1484,1.0923,1.072,1.1016,1.0872,1.1353,1.2305,1.2385,1.2815,1.3535,1.3572,1.4065,1.4807,1.4807,1.4807,1.4879,1.586,1.628,1.6498,1.7501,1.7872,1.8008,1.8008,1.8008,1.8008,1.8008,1.8008,1.8008,1.8008,1.8008,1.7939,1.7568,1.7734,1.793,1.7559,1.7734,1.8008,1.8008,1.9233,2.0398,2.0398,2.1164,2.1877,2.1877,2.2187,2.2573,2.299,2.3078,2.3078,2.3078,2.3078,2.3078,2.3078,2.2297,2.2071,2.2977,2.2711,2.2611,2.3027,2.3078,2.3078,2.3078,2.3078,2.3078,2.3078,2.3078,2.3078,2.3078,2.3078,2.3078,2.3078,2.3078,2.231,2.0782,2.1553,2.059,1.7312,1.6993,1.6497,1.5908,1.5776,1.5599,1.5005,1.4424,0.0,0.0,1.2956,1.1868,1.1249,1.1421,1.1913,1.2723,1.2419,1.2638,1.4136,1.3126,1.2225,0.0,1.2271,1.2305,1.2305,1.1545,0.0,0.0,0.952,0.986,1.3279,1.2191,1.1988,1.3126,1.2276,1.173,1.1484,1.0315,1.0119,1.1022,1.1064,1.1544,1.2318,1.2819,1.2849,1.2532,1.2859,0.0,1.2799,1.2799,1.2799,1.2872,1.381,1.4736,1.5587,1.6498,1.7354,1.8008,1.8008,1.8008,1.8008,1.8008,1.8008,1.8008,1.8008,1.8008,1.7998,1.793,1.7959,1.7988,1.792,1.7959,1.8008,1.8008,1.8787,1.9562,1.9562,2.0782,2.1877,2.1877,2.2494,2.2965,2.3053,2.3078,2.3078,2.3078,2.3078,2.3078,2.3078,2.2915,2.2865,2.3053,2.299,2.3025,2.3065,2.3078,2.3078,2.3078,2.3078,2.3078,2.3078,2.3078,2.3078,2.3078,2.3078,2.3078,2.3078,2.3078,2.2628,2.169,2.1815,2.091,1.6879,1.6484,1.5952,1.5676,1.5365,1.496,1.4376,0.0,0.0,0.0,1.1935,1.114,1.0855,1.1162,0.0,1.2058,1.1909,1.21,1.3154,1.247,0.0,1.2265,1.2305,1.207,0.0,1.1139,1.0787,1.0565,0.8983,0.9011,1.1467,1.0959,1.0992,1.1798,1.105,1.0463,1.0129,0.92,0.896,0.9547,0.9513,1.0341,1.1708,1.212,1.2478,1.2772,1.2752,1.2741,1.2518,1.2365,1.2305,1.2372,1.331,1.3954,1.4522,1.5508,1.6149,1.6515,1.6515,1.6862,1.7285,1.7285,1.7579,1.8008,1.8008,1.8008,1.8008,1.8008,1.8008,1.8008,1.8008,1.8008,1.8008,1.8008,1.8654,1.9299,1.9299,2.0333,2.1239,2.1239,2.1865,2.2628,2.3005,2.3078,2.3078,2.3078,2.3078,2.3078,2.3078,2.3078,2.3078,2.3078,2.3078,2.3078,2.3078,2.3078,2.3078,2.3078,2.3078,2.3078,2.3078,2.3078,2.3078,2.3078,2.3078,2.3078,2.3078,2.3078,2.2433,2.1227,2.169,2.0719,1.6522,1.6051,1.5588,1.5454,1.496,1.4329,1.3732,1.2986,0.0,0.0,1.1065,1.0415,1.0568,0.0,1.1011,0.0,1.113,0.0,1.2097,1.1815,1.1717,0.0,1.2077,0.0,1.0864,1.056,0.0,0.9472,0.8447,0.8282,0.9448,0.9732,1.0075,1.0595,1.0016,0.9424,0.8886,0.8164,0.7918,0.8222,0.8158,0.926,1.1282,1.1588,1.2246,1.32,1.3019,1.2906,1.2903,1.2592,1.2498,1.2567,1.3226,1.3631,1.3915,1.4625,1.5021,1.5234,1.5234,1.5649,1.6349,1.6558,1.7217,1.8008,1.8008,1.8008,1.8008,1.8008,1.8008,1.8008,1.8008,1.8008,1.8008,1.8008,1.8529,1.9044,1.9044,1.9694,2.0333,2.0333,2.1049,2.1803,2.2445,2.2689,2.2823,2.2823,2.3005,2.3078,2.3078,2.3078,2.3078,2.3078,2.3078,2.3078,2.3078,2.3078,2.3078,2.3078,2.3078,2.3078,2.3078,2.3078,2.3078,2.3078,2.3078,2.3005,2.2823,2.2823,2.2063,2.059,2.1112,2.0324,1.6522,1.6051,1.5454,1.4926,1.4329,1.3732,1.3104,0.0,0.0,1.1665,1.0312,0.9159,0.9762,0.9435,0.0,0.0,0.0,0.0,0.0,0.0,1.1944,1.2265,0.0,0.0,1.0783,0.9246,0.0,0.7996,0.7068,0.7179,0.8699,0.9904,1.0545,1.0605,0.9543,0.8939,0.889,0.7655,0.748,0.8417,0.8565,0.962,1.1467,1.2034,1.2603,1.3227,1.346,1.3414,0.0,1.314,1.3126,1.31,1.2966,1.3374,1.4164,1.393,1.4386,1.5234,1.5234,1.5234,1.5446,1.6349,1.7217,1.8008,1.8008,1.8008,1.8008,1.8008,1.8008,1.8008,1.8008,1.8008,1.8008,1.8008,1.8076,1.8144,1.8144,1.8787,1.9431,1.9431,2.0139,2.0719,2.0846,2.1491,2.2002,2.2002,2.2628,2.3078,2.3078,2.3078,2.3078,2.3078,2.3078,2.3078,2.3078,2.3078,2.3078,2.3078,2.3078,2.3078,2.3078,2.3078,2.3078,2.3078,2.3078,2.2763,2.2002,2.2002,2.1491,2.059,1.989,1.9586,1.638,1.5788,1.5017,1.4744,1.3967,1.3084,1.2384,0.0,1.1266,1.072,0.9961,0.9361,0.9211,0.8956,0.8944,0.0,0.9391,0.9707,1.0773,1.1067,0.0,1.1964,1.1292,0.0,0.0,0.0,0.7703,0.7092,0.6799,0.6943,0.7446,0.7907,0.8283,0.8519,0.8005,0.7744,0.7841,0.7161,0.7003,0.7517,0.7498,0.8292,0.9829,1.0804,1.1368,1.1701,1.2312,1.248,0.0,1.2209,1.2552,1.318,1.2866,1.3044,1.3306,1.2998,1.3091,1.3448,1.3448,1.3803,1.4378,1.4728,1.5517,1.6515,1.7657,1.8008,1.8008,1.8008,1.8008,1.8008,1.8008,1.8008,1.8008,1.8008,1.8008,1.8008,1.8008,1.8269,1.8654,1.9177,1.9562,2.0009,2.0526,2.091,2.1302,2.1815,2.2199,2.2567,2.3017,2.3078,2.3078,2.3078,2.3078,2.3078,2.3078,2.3078,2.3078,2.3078,2.3078,2.3078,2.3078,2.3078,2.2884,2.2384,2.2384,2.1939,2.1101,2.1335,2.1016,2.0178,2.0128,1.9885,1.5832,1.5197,1.4422,1.4422,1.3658,1.2715,0.0,1.1665,1.1166,1.0064,0.9666,0.9361,0.891,0.8804,0.8804,0.0,0.8951,0.9345,1.0134,1.0575,0.0,0.0,0.0,1.0115,0.0,0.8203,0.7232,0.6613,0.6658,0.6742,0.6766,0.6624,0.6722,0.7129,0.7044,0.7017,0.7078,0.6912,0.6865,0.6929,0.6861,0.7473,0.8781,0.9684,1.0265,1.06,1.1292,1.1556,0.0,1.1699,1.2207,1.2936,1.3048,1.3013,1.2966,1.2579,1.2432,1.2418,1.2331,1.2732,1.331,1.36,1.4171,1.5092,1.6655,1.7148,1.7226,1.751,1.7794,1.8008,1.8008,1.8008,1.8008,1.8008,1.8008,1.8008,1.8008,1.8008,1.8202,1.8787,1.8921,1.911,1.9759,2.0074,2.0526,2.1365,2.1741,2.2187,2.3017,2.2884,2.2763,2.2763,2.2506,2.2567,2.3078,2.3078,2.3078,2.3078,2.3078,2.3005,2.2763,2.2763,2.2384,2.1553,2.1502,2.1181,2.0413,2.0676,2.0443,1.9715,2.0032,1.998,1.4709,1.4283,1.3815,1.3815,1.3324,1.2715,1.1972,1.1266,1.0618,0.9969,0.9256,0.8811,0.8804,0.8804,0.8804,0.8804,0.9299,0.988,1.0537,1.1056,0.0,0.0,0.0,0.9296,0.9296,0.748,0.6383,0.6675,0.643,0.0,0.6902,0.678,0.6834,0.7132,0.7139,0.7071,0.6932,0.7065,0.7065,0.6929,0.7068,0.7749,0.889,0.889,0.9492,1.0611,1.0611,1.0605,0.0,1.1804,1.2316,1.2378,1.3233,1.3552,1.3561,1.2959,1.2815,1.2775,1.2405,1.2305,1.2445,1.3382,1.3745,1.3882,1.495,1.5234,1.5446,1.6349,1.7285,1.8008,1.8008,1.8008,1.8008,1.8008,1.8008,1.8008,1.8008,1.8008,1.8008,1.8008,1.8008,1.8008,1.8008,1.8721,1.9628,2.0462,2.1365,2.2187,2.3017,2.2384,2.1877,2.1877,2.1164,2.129,2.2944,2.3078,2.3078,2.3078,2.3078,2.2763,2.1951,2.1877,2.1491,2.0655,2.059,2.0369,1.9902,1.9902,1.9665,1.9277,1.9287,1.9512,1.4606,1.4283,1.3674,1.3215,1.2648,1.1832,1.072,1.0618,1.0466,0.9361,0.9309,0.9361,0.891,0.8804,0.8938,0.9339,0.0,0.0,0.0,0.0,0.0,1.1957,1.0399,0.8993,0.0,0.0,0.6298,0.6393,0.6403,0.6512,0.6759,0.6725,0.6793,0.699,0.6997,0.6973,0.6929,0.6868,0.6919,0.7071,0.7021,0.7219,0.7665,0.854,0.8623,0.8269,0.9056,0.9405,0.9492,1.0697,1.1638,1.2389,1.3246,1.3559,1.3574,1.2966,1.2822,1.2775,1.2405,1.2305,1.2378,1.2666,1.2732,1.2806,1.3091,1.4163,1.5376,1.6349,1.6784,1.7217,1.7862,1.8008,1.8008,1.8008,1.8008,1.8008,1.8008,1.8008,1.8008,1.8008,1.8008,1.8008,1.8008,1.8202,1.8721,1.9562,1.9944,2.0462,2.129,2.1164,2.0974,2.0974,2.1012,2.1133,2.1388,2.1416,2.1416,2.1416,2.1416,2.129,2.1037,2.0974,2.0747,2.0154,2.0087,1.9923,1.9493,1.9783,2.0024,2.0156,2.0156,2.0234,0.0,1.3311,1.289,1.219,1.1747,1.1166,1.0064,1.0115,1.0115,0.9008,0.9106,0.9309,0.8857,0.8804,0.8925,0.9292,0.9539,0.0,0.0,0.0,0.0,1.1467,0.0,0.0,0.0,0.6868,0.6338,0.6338,0.6342,0.6458,0.6607,0.6614,0.6685,0.6837,0.6898,0.6929,0.6929,0.6888,0.6932,0.7058,0.7024,0.7054,0.7139,0.7841,0.7841,0.7139,0.7929,0.8189,0.0,0.9918,1.1042,1.1798,1.3194,1.3808,1.3754,1.3267,1.3013,1.2879,1.2572,1.2398,1.2305,1.2305,1.2305,1.2305,1.2305,1.3375,1.4807,1.579,1.6358,1.6853,1.7794,1.8008,1.8008,1.8008,1.8008,1.8008,1.8008,1.8008,1.8008,1.8008,1.8008,1.8008,1.8008,1.8144,1.8507,1.9427,1.9708,2.0084,2.1007,2.0654,2.0413,2.0598,2.0382,2.0201,2.0094,2.0676,2.0995,2.0871,2.0973,2.0941,2.0609,2.0609,2.029,1.9685,1.9696,1.9646,1.9531,1.9951,2.0303,2.0566,2.0566,2.0566,0.0,1.1653,1.1531,1.0906,1.072,1.0559,0.9865,0.9718,0.0,0.891,0.8804,0.8811,0.8831,0.8824,0.8831,0.8918,0.0,0.0,0.0,1.1136,0.0,0.0,0.9965,0.0,0.8012,0.6945,0.6338,0.6338,0.6338,0.6322,0.6464,0.6464,0.6532,0.6695,0.6841,0.6919,0.6929,0.7058,0.7065,0.6946,0.7078,0.7139,0.7139,0.7139,0.7139,0.0,0.7139,0.7139,0.7312,0.9657,1.0611,1.0869,1.3215,1.4088,1.4048,1.3728,1.344,1.3166,1.2909,1.2532,1.2305,1.2305,1.2305,1.2305,1.2305,1.2879,1.3818,1.4807,1.572,1.6636,1.7579,1.7813,1.7842,1.791,1.7939,1.8027,1.8096,1.8105,1.8105,1.8105,1.8105,1.8105,1.8105,1.8418,1.8953,1.9758,2.0261,2.0815,2.1644,2.0631,2.0052,2.049,1.9424,1.8877,1.9258,2.0804,2.1515,2.1118,2.1448,2.1366,2.0532,2.0532,2.0135,1.9336,1.9365,1.957,1.9961,2.0371,2.0566,2.0566,2.0566,2.0566,0.9602,0.0,1.0621,1.0156,1.0064,0.9865,0.0,0.9061,0.9008,0.0,0.0,0.0,0.9044,0.8958,0.0,0.0,0.0,0.0,1.1416,0.0,0.0,1.1983,1.0346,0.9221,0.8998,0.7326,0.6338,0.6338,0.6338,0.6322,0.6464,0.6369,0.643,0.6692,0.6736,0.681,0.6926,0.6963,0.7017,0.7092,0.7126,0.7139,0.7139,0.7139,0.7139,0.7139,0.7139,0.7139,0.7312,0.9657,1.0611,1.0869,1.3215,1.4088,1.4021,1.3507,1.3267,1.3133,1.2592,1.2365,1.2305,1.2305,1.2305,1.2305,1.2305,1.2445,1.2806,1.381,1.4243,1.4593,1.5587,1.6014,1.6373,1.7188,1.7578,1.8026,1.8841,1.8984,1.8984,1.8984,1.8984,1.8984,1.8984,1.9072,1.9203,1.9409,1.9499,1.9703,1.9919,1.9613,1.9449,1.962,1.9629,1.9521,1.9307,1.9703,1.9869,1.9758,1.9848,1.9847,1.963,1.964,1.9644,1.9766,2.0098,2.0312,2.041,2.0518,2.0566,2.0566,2.0566,2.0566,0.8618,0.9291,0.9807,0.9307,0.9261,0.9263,0.8857,0.0,0.0,0.0,0.0,0.0,0.0,0.0,0.0,0.0,0.9363,0.0,0.0,0.0,1.215,1.1694,1.0271,0.9145,0.0,0.7176,0.6338,0.6338,0.6338,0.6295,0.6373,0.6302,0.6363,0.6586,0.6597,0.6702,0.6926,0.6993,0.7065,0.7139,0.7139,0.7139,0.7139,0.7139,0.7139,0.7139,0.7139,0.7139,0.7312,0.9657,1.0265,1.0009,1.2339,1.2948,1.2468,1.2568,1.2493,1.2409,1.2513,1.2505,1.2485,1.2345,1.2392,1.2505,1.2505,1.2505,1.2696,1.3499,1.3784,1.419,1.5122,1.5601,1.6088,1.7158,1.7548,1.8008,1.9068,1.9287,1.9287,1.9287,1.9287,1.9287,1.9287,1.9443,1.957,1.957,1.9746,1.9873,1.9873,1.9697,1.9648,1.9853,1.9893,1.9902,1.9873,1.9873,1.9785,1.959,1.9766,1.9873,1.9873,1.9873,1.998,2.0215,2.0449,2.0566,2.0566,2.0566,2.0566,2.0566,2.0566,2.0566,0.8092,0.8658,0.9031,0.8507,0.8591,0.8804,0.8804,0.0,0.0,0.0,0.0,0.0,0.0,0.0,0.0,0.0,0.0,0.0,0.9713,1.1009,1.1545,1.064,0.9669,0.0,0.7859,0.6868,0.6338,0.6338,0.6338,0.6338,0.6338,0.6338,0.6315,0.6437,0.6461,0.6597,0.6858,0.7024,0.7109,0.7109,0.7129,0.7139,0.7139,0.7139,0.7139,0.7139,0.0,0.0,0.7228,0.9483,0.9749,0.9148,1.1209,1.1466,1.0666,1.1623,1.1729,1.1668,1.2596,1.2896,1.2779,1.2518,1.2612,1.2896,1.2896,1.2896,1.2995,1.3467,1.3806,1.4238,1.5048,1.5443,1.5936,1.7028,1.7383,1.773,1.8946,1.9251,1.9251,1.9251,1.9251,1.9178,1.902,1.9391,1.9697,1.9545,2.0168,2.0479,2.0157,1.9928,1.9841,2.0041,1.9755,1.9688,2.0051,2.0079,1.9927,1.9564,2.0198,2.0566,2.0566,2.0566,2.0566,2.0566,2.0566,2.0566,2.0566,2.0566,2.0566,2.0566,2.0566,2.0479,0.7521,0.7861,0.8194,0.836,0.8591,0.8804,0.0,0.0,0.0,0.0,0.0,0.0,0.0,0.0,0.0,0.0,0.0,0.9706,0.0,0.0,0.9674,0.9523,0.0,0.7931,0.7783,0.6868,0.6338,0.6338,0.6338,0.6338,0.6338,0.6338,0.6271,0.6291,0.641,0.6495,0.6542,0.682,0.6959,0.6963,0.7082,0.7139,0.7139,0.7139,0.7139,0.7139,0.0,0.7139,0.7228,0.8627,0.9061,0.9065,1.0351,1.0778,1.0666,1.1623,1.184,1.1934,1.2829,1.314,1.3133,1.3086,1.31,1.314,1.314,1.314,1.3126,1.3236,1.3335,1.3369,1.3519,1.3739,1.4282,1.5374,1.5828,1.6597,1.861,1.9021,1.9021,1.9021,1.9021,1.8777,1.7729,1.8417,1.8779,1.7814,1.9316,1.9913,1.806,1.8576,1.8806,1.7891,1.7768,1.776,1.7811,1.7819,1.7802,1.7734,1.9562,2.0566,2.0566,2.0566,2.0566,2.0566,2.0566,2.0566,2.0566,2.0566,2.0566,2.0566,2.0566,2.0079,0.7188,0.7575,0.7915,0.8103,0.847,0.8804,0.0,0.0,0.0,0.0,0.0,0.0,0.0,0.0,0.0,0.7573,0.0,0.9233,0.8217,0.8777,0.9069,0.0,0.0,0.7557,0.7022,0.6567,0.6338,0.6338,0.6338,0.6338,0.6338,0.6338,0.6338,0.6338,0.6325,0.6359,0.6359,0.6573,0.6766,0.6929,0.7071,0.7139,0.7139,0.7139,0.7139,0.7139,0.0,0.7139,0.7228,0.8364,0.854,0.8017,0.9231,0.9314,0.8856,1.0442,1.1699,1.2637,1.3088,1.3313,1.342,1.326,1.3313,1.3447,1.3447,1.3447,1.348,1.3641,1.3567,1.3447,1.3447,1.3661,1.4124,1.5242,1.5591,1.6108,1.7738,1.8069,1.8069,1.8069,1.8069,1.7908,1.7423,1.7747,1.7908,1.7415,1.8141,1.8461,1.7423,1.7738,1.7908,1.7334,1.7342,1.7342,1.7342,1.7342,1.7342,1.7342,1.8221,1.8789,1.8789,1.8789,1.8789,1.8789,1.9432,1.9432,1.8789,1.9432,1.9432,1.8789,1.8789,1.855,0.7108,0.7522,0.7902,0.8016,0.0,0.8804,0.0,0.0,0.0,0.0,0.0,0.0,0.0,0.0,0.0,0.6071,0.7392,0.8144,0.7274,0.7961,0.8313,0.7557,0.748,0.7176,0.6338,0.6338,0.6338,0.6338,0.6338,0.6338,0.6338,0.6338,0.6338,0.6338,0.6338,0.6338,0.6338,0.6403,0.659,0.6824,0.7004,0.7092,0.7092,0.7126,0.7139,0.7139,0.7139,0.7139,0.7139,0.8105,0.7925,0.7228,0.8101,0.8277,0.8082,0.9743,1.1592,1.3414,1.3414,1.3561,1.3707,1.3487,1.3567,1.3748,1.3748,1.3748,1.3794,1.4021,1.3928,1.3748,1.3748,1.3915,1.4334,1.5137,1.5296,1.5621,1.6683,1.6927,1.6927,1.6927,1.6927,1.6846,1.6609,1.6772,1.6854,1.6609,1.7017,1.7098,1.6609,1.6764,1.6846,1.6609,1.6527,1.6527,1.6527,1.6527,1.6527,1.6527,1.7017,1.7342,1.7342,1.7342,1.7342,1.7342,1.8149,1.8149,1.7342,1.8149,1.8149,1.7342,1.7342,1.718,0.7361,0.7675,0.7996,0.8277,0.0,0.0,0.8804,0.0,0.0,0.0,0.0,0.0,0.0,0.0,0.7961,0.6997,0.725,0.7274,0.6247,0.0,0.649,0.6416,0.6412,0.6416,0.6338,0.6338,0.6338,0.6338,0.6338,0.6338,0.6338,0.6338,0.6338,0.6338,0.6338,0.6338,0.6338,0.6403,0.6481,0.6508,0.6803,0.6946,0.6949,0.7082,0.7139,0.7139,0.7139,0.7139,0.7139,0.7228,0.7139,0.7139,0.7228,0.8532,1.0346,1.0504,1.2049,1.4028,1.4028,1.4041,1.4048,1.4035,1.4041,1.4055,1.4055,1.4055,1.4062,1.4082,1.4075,1.4055,1.4055,1.4075,1.4088,1.4166,1.425,1.4496,1.5621,1.5779,1.5779,1.5779,1.5779,1.5462,1.4496,1.5137,1.5462,1.4496,1.6041,1.6609,1.458,1.522,1.5462,1.4412,1.4334,1.4334,1.4334,1.4334,1.4334,1.4334,1.6206,1.7342,1.7342,1.7342,1.7342,1.7342,1.7415,1.7415,1.7342,1.7415,1.7415,1.7342,1.7342,1.6764,0.7161,0.7555,0.7908,0.807,0.0,0.0,0.0,0.0,0.0,0.0,0.0,0.0,0.0,0.0,0.6539,0.613,0.6317,0.6317,0.5961,0.602,0.6115,0.6115,0.6203,0.6338,0.6338,0.6338,0.6338,0.6338,0.6338,0.6338,0.6338,0.6338,0.6338,0.6338,0.6338,0.6338,0.6338,0.6315,0.6339,0.6342,0.6644,0.6787,0.679,0.6844,0.6919,0.7007,0.7007,0.7058,0.7139,0.7139,0.7139,0.7132,0.7044,0.8438,1.059,1.0539,1.203,1.4088,1.4088,1.4088,1.4088,1.4088,1.4088,1.4088,1.4088,1.4088,1.4088,1.4088,1.4088,1.4088,1.4088,1.4088,1.4088,1.4088,1.4088,1.425,1.4657,1.4734,1.4734,1.4734,1.4734,1.4573,1.4173,1.4412,1.4573,1.4166,1.4824,1.4985,1.4166,1.4489,1.4573,1.4173,1.4088,1.4088,1.4088,1.4088,1.4088,1.4088,1.4817,1.5311,1.5311,1.5311,1.5311,1.5311,1.5951,1.5951,1.5311,1.5951,1.5951,1.5311,1.5311,1.5061,0.7161,0.7609,0.807,0.0,0.0,0.0,0.0,0.0,0.0,0.0,0.0,0.0,0.0,0.0,0.0,0.0,0.6047,0.622,0.6502,0.6764,0.6908,0.6908,0.7064,0.7253,0.7253,0.7253,0.7253,0.7253,0.7253,0.7253,0.7253,0.7253,0.7253,0.7253,0.6945,0.6795,0.6795,0.649,0.6338,0.6342,0.6464,0.6583,0.663,0.6678,0.6759,0.6858,0.6909,0.6983,0.7078,0.7122,0.7139,0.7132,0.7034,0.8257,1.0077,0.9928,1.142,1.3555,1.3555,1.3822,1.3997,1.3646,1.3555,1.3555,1.3555,1.3555,1.3646,1.3997,1.4088,1.4088,1.4088,1.4088,1.4088,1.4088,1.4088,1.4088,1.4088,1.4088,1.4088,1.4088,1.4088,1.4088,1.4088,1.4088,1.4088,1.4088,1.4088,1.4088,1.4088,1.4088,1.4088,1.4088,1.4088,1.4088,1.4088,1.4088,1.4088,1.4088,1.4088,1.4088,1.4088,1.4088,1.4088,1.4088,1.4817,1.481,1.4088,1.481,1.4817,1.4088,1.4088,1.4088,0.7513,0.7957,0.837,0.0,0.0,0.0,0.0,0.0,0.0,0.0,0.0,0.0,0.0,0.0,0.0,0.685,0.681,0.721,0.8093,0.8523,0.8787,0.8792,0.9075,0.9296,0.9296,0.9296,0.9296,0.9296,0.9296,0.9296,0.9296,0.9296,0.9296,0.9296,0.8313,0.7783,0.7783,0.6795,0.6338,0.6338,0.6338,0.6335,0.6474,0.6627,0.6698,0.6709,0.6858,0.6926,0.6939,0.7082,0.7139,0.7139,0.7139,0.7841,0.889,0.889,1.0351,1.2237,1.2237,1.3033,1.3906,1.2681,1.2237,1.2237,1.2237,1.2237,1.2504,1.373,1.4088,1.4088,1.4088,1.4088,1.4088,1.4088,1.4088,1.4088,1.4088,1.4088,1.4088,1.4088,1.4088,1.4088,1.4088,1.4088,1.4088,1.4088,1.4088,1.4088,1.4088,1.4088,1.4088,1.4088,1.4088,1.4088,1.4088,1.4088,1.4088,1.4088,1.4088,1.4088,1.4088,1.4088,1.4088,1.4088,1.4088,1.4088,1.4088,1.4088,1.4088,1.4088,1.4088,1.4088,0.7513,0.7756,0.0,0.0,0.0,0.0,0.0,0.0,0.0,0.0,0.0,0.0,0.0,0.0,0.0,0.7632,0.7625,0.7795,0.7992,0.8238,0.8478,0.8629,0.8839,0.904,0.9281,0.9296,0.9296,0.9296,0.9296,0.9296,0.9296,0.9296,0.9296,0.9296,0.8313,0.7783,0.7783,0.6795,0.6338,0.6338,0.6338,0.6359,0.6325,0.6369,0.6444,0.6542,0.6586,0.6729,0.6939,0.7082,0.7139,0.7129,0.7031,0.7744,0.8873,0.8824,0.9795,1.1123,1.1123,1.13,1.1563,1.1214,1.1123,1.1123,1.1123,1.1123,1.1214,1.1563,1.1649,1.1649,1.1649,1.1649,1.2083,1.3737,1.4088,1.4088,1.4088,1.4088,1.4088,1.4088,1.4088,1.4088,1.4088,1.4088,1.4088,1.4088,1.4088,1.4088,1.4088,1.4088,1.4088,1.4088,1.4088,1.4088,1.4088,1.4088,1.4088,1.4088,1.4088,1.4088,1.4088,1.4088,1.4088,1.4088,1.4088,1.4088,1.4088,1.4088,1.4088,1.4088,1.4088,1.4088,0.7842,0.0,0.0,0.0,0.0,0.0,0.0,0.0,0.0,0.0,0.0,0.0,0.0,0.8285,0.0,0.8484,0.8484,0.8613,0.9,0.9217,0.9361,0.9514,0.974,0.999,1.0324,1.0353,1.0393,1.049,1.0496,1.0496,1.0496,1.0496,1.0496,1.0496,0.9513,0.8983,0.8983,0.8008,0.748,0.748,0.7099,0.6872,0.6868,0.649,0.6308,0.639,0.6447,0.6647,0.6936,0.7534,0.7781,0.783,0.7737,0.8147,0.8772,0.8217,0.8824,0.9895,0.9894,1.0178,1.0524,1.0096,0.9923,0.9923,0.9923,0.9923,1.0009,1.0438,1.0611,1.0611,1.0611,1.0611,1.0956,1.2345,1.2693,1.2863,1.3294,1.3033,1.2954,1.3913,1.373,1.3555,1.3997,1.4088,1.4088,1.4088,1.4088,1.4088,1.4088,1.4088,1.4088,1.4088,1.4088,1.4088,1.4088,1.4088,1.4088,1.4088,1.4088,1.4088,1.4088,1.4088,1.4088,1.4088,1.4088,1.4088,1.4088,1.4088,1.4088,1.4088,1.4088,1.4088,0.0,0.0,0.0,0.0,0.0,0.0,0.0,0.0,0.0,0.0,0.0,0.0,0.8415,0.8877,0.9402,0.9402,0.9402,0.9722,1.0491,1.0788,1.0962,1.0989,1.1229,1.1516,1.1837,1.187,1.1991,1.2278,1.2305,1.2305,1.2305,1.2305,1.2305,1.2305,1.1316,1.0783,1.0783,0.982,0.9221,0.9145,0.8237,0.7783,0.7629,0.6718,0.6338,0.6345,0.6565,0.6713,0.6973,0.8175,0.8708,0.8694,0.8694,0.8673,0.8458,0.7418,0.7726,0.8551,0.8653,0.9405,1.0091,0.9061,0.8715,0.8715,0.8715,0.8715,0.8973,1.0005,1.0265,1.0265,1.0265,1.0265,1.0265,1.0265,1.0438,1.0869,1.1895,1.1295,1.1219,1.3392,1.2857,1.2504,1.3561,1.3737,1.3822,1.3913,1.3913,1.3913,1.3913,1.3822,1.3737,1.3737,1.3737,1.3737,1.3737,1.3737,1.3737,1.3737,1.3906,1.3913,1.3913,1.3997,1.4088,1.4088,1.4088,1.4088,1.4088,1.4088,1.4088,1.4088,1.4088,1.4088,0.0,0.8243,0.0,0.0,0.0,0.0,0.0,0.0,0.0,0.0,0.0,1.0238,1.0104,1.0174,1.0301,1.0301,1.0301,1.0371,1.0561,1.0678,1.0735,1.0962,1.1049,1.1289,1.1817,1.187,1.1991,1.2278,1.2305,1.2305,1.2305,1.2305,1.2305,1.2305,1.1316,1.0783,1.0783,0.982,0.8922,0.8084,0.7936,0.7403,0.6644,0.6412,0.6338,0.6345,0.7269,0.7221,0.6668,0.7907,0.8044,0.7314,0.7314,0.7297,0.7268,0.7049,0.7125,0.7286,0.7439,0.7665,0.7837,0.7577,0.7489,0.7489,0.7489,0.7489,0.7577,0.7749,0.7837,0.7837,0.7837,0.7837,0.7837,0.7837,0.9222,1.0697,1.0869,1.0783,1.0783,1.1214,1.1128,1.1042,1.1305,1.1391,1.1649,1.2589,1.2674,1.2674,1.2674,1.1906,1.1391,1.1391,1.1391,1.1391,1.1391,1.1391,1.1391,1.1391,1.2163,1.2674,1.2674,1.3561,1.4088,1.4088,1.4088,1.4088,1.4088,1.4088,1.4088,1.4088,1.4088,1.4088,0.0,0.0,0.0,0.0,0.0,0.0,0.0,0.0,0.0,0.0,0.896,0.9977,0.9977,1.0301,1.0624,1.0624,1.0624,1.0624,1.0624,1.0624,1.0678,1.0768,1.0788,1.0962,1.141,1.145,1.163,1.2064,1.2098,1.2151,1.2291,1.2305,1.2305,1.2305,1.1774,1.1539,1.1539,1.1019,1.0496,0.9965,0.9437,0.8685,0.7706,0.6718,0.6338,0.6342,0.7418,0.7344,0.6642,0.8341,0.8478,0.7644,0.7644,0.7644,0.7571,0.7069,0.6929,0.6949,0.7092,0.7139,0.7139,0.7139,0.7139,0.7139,0.7139,0.7139,0.7139,0.7139,0.7139,0.7139,0.7139,0.7139,0.7139,0.7139,0.8009,0.9052,0.9662,0.9314,0.9226,1.0351,1.0183,0.9923,1.0524,1.0611,1.0783,1.1386,1.1466,1.1466,1.1466,1.095,1.0611,1.0611,1.0611,1.0611,1.0611,1.0611,1.0611,1.0611,1.1128,1.1466,1.1466,1.2083,1.2954,1.4088,1.4088,1.4088,1.4088,1.4088,1.4088,1.4088,1.4088,1.4088,0.0,0.0,0.0,0.0,0.0,0.0,0.0,0.0,0.0,0.0,0.7875,0.9214,0.9261,0.9971,1.0501,1.0618,1.0624,1.0624,1.0624,1.0624,1.0624,1.0624,1.0624,1.0739,1.0962,1.0995,1.1216,1.175,1.1837,1.1977,1.2218,1.2271,1.2305,1.2305,1.2305,1.2305,1.2305,1.2305,1.2224,1.1996,1.1013,1.0115,0.9226,0.7557,0.6795,0.6872,0.7706,0.7557,0.6831,0.8663,0.8852,0.811,0.811,0.811,0.7967,0.7133,0.6868,0.6909,0.7054,0.7119,0.7139,0.7139,0.7139,0.7139,0.7139,0.7139,0.7139,0.7139,0.7139,0.7139,0.7139,0.7139,0.7139,0.7139,0.7139,0.7404,0.8364,0.7841,0.7661,0.9657,0.9231,0.8886,0.9831,1.0178,1.0269,1.0269,1.0269,1.0269,1.0269,1.0091,1.0005,1.0005,1.0005,1.0005,1.0005,1.0005,1.0005,1.0005,1.0178,1.0269,1.0269,1.0524,1.1477,1.3476,1.3476,1.3476,1.3476,1.3476,1.3476,1.3476,1.3737,1.3848,0.0,0.0,0.0,0.0,0.0,0.0,0.0,0.0,0.0,0.0,0.7799,0.8783,0.9009,0.9672,1.0261,1.0521,1.0624,1.0624,1.0624,1.0624,1.0624,1.0624,1.0624,1.0739,1.0962,1.0995,1.1129,1.1456,1.1724,1.1891,1.1924,1.2164,1.2305,1.2305,1.2305,1.2305,1.2305,1.2305,1.1848,1.1013,0.997,0.9448,0.9296,0.8993,0.8922,0.8917,0.9069,0.8556,0.7675,0.806,0.7668,0.6739,0.6739,0.6739,0.6743,0.6606,0.6617,0.6753,0.6905,0.7037,0.7139,0.7139,0.7139,0.7139,0.7139,0.7139,0.7139,0.7139,0.7139,0.7139,0.7139,0.7139,0.7139,0.7139,0.7139,0.7139,0.7316,0.7228,0.7228,0.7489,0.7401,0.7401,0.7577,0.8452,0.9148,0.9148,0.9148,0.9148,0.9148,0.8189,0.7573,0.7573,0.7573,0.7573,0.7573,0.7573,0.7573,0.7573,0.8536,0.9148,0.9148,1.0096,1.0783,1.1042,1.1042,1.1042,1.1042,1.1042,1.1042,1.1128,1.2072,1.2709,0.0,0.0,0.0,0.0,0.0,0.0,0.0,0.0,0.0,0.6729,0.7478,0.8285,0.8763,0.9553,1.0214,1.0577,1.0624,1.0624,1.0624,1.0624,1.0624,1.0624,1.0624,1.0672,1.0735,1.0755,1.0868,1.1162,1.1303,1.145,1.161,1.1744,1.1884,1.2051,1.2058,1.2138,1.2305,1.2305,1.2077,1.162,1.1174,1.095,1.095,1.0421,0.9513,0.8466,0.9074,0.8389,0.703,0.7635,0.7282,0.6356,0.6356,0.6403,0.6471,0.6471,0.6624,0.6837,0.6905,0.7021,0.7139,0.7139,0.7139,0.7139,0.7139,0.7139,0.7139,0.7139,0.7139,0.7139,0.7139,0.7139,0.7139,0.7139,0.7139,0.7139,0.7139,0.7139,0.7139,0.7139,0.7139,0.7139,0.7139,0.7577,0.7929,0.7929,0.7929,0.7929,0.7929,0.7404,0.7139,0.7139,0.7139,0.7139,0.7139,0.7221,0.7272,0.7272,0.7807,0.8072,0.8072,0.8412,0.8615,0.8615,0.9918,1.0611,1.0611,1.0611,1.0611,1.0611,1.1123,1.1785,0.0,0.0,0.0,0.0,0.0,0.0,0.0,0.0,0.7182,0.0,0.7616,0.8197,0.8788,0.9458,0.9987,1.0287,1.0401,1.0448,1.0448,1.0577,1.0624,1.0624,1.0624,1.0624,1.0624,1.0624,1.0648,1.0868,1.0949,1.1089,1.1303,1.1383,1.153,1.175,1.1757,1.1897,1.2191,1.2265,1.2305,1.2305,1.2305,1.215,1.1922,1.1162,0.9734,0.7859,0.8618,0.8084,0.6718,0.7253,0.6945,0.6338,0.6338,0.6325,0.642,0.642,0.661,0.6871,0.6871,0.699,0.7139,0.7139,0.7139,0.7139,0.7139,0.7139,0.7139,0.7139,0.7139,0.7139,0.7139,0.7139,0.7139,0.7139,0.7139,0.7139,0.7139,0.7139,0.7139,0.7139,0.7139,0.7139,0.7139,0.7139,0.7139,0.7139,0.7139,0.7139,0.7139,0.7139,0.7139,0.7139,0.7139,0.7156,0.7193,0.7305,0.7387,0.7428,0.7394,0.737,0.737,0.7221,0.7139,0.7139,0.879,0.9744,0.9744,0.9744,0.9744,0.9744,1.0057,1.0722,0.0,0.0,0.0,0.0,0.0,0.0,0.0,0.0,0.0,0.0,0.8699,0.8851,0.9114,0.923,0.9385,0.9679,0.996,1.014,1.014,1.0381,1.0624,1.0624,1.0624,1.0624,1.0624,1.0624,1.0631,1.0645,1.0835,1.1002,1.1015,1.1276,1.143,1.145,1.145,1.159,1.1891,1.2164,1.2305,1.2305,1.2305,1.1768,1.0864,1.0783,0.9734,0.7783,0.7859,0.7783,0.7629,0.6718,0.6338,0.6338,0.6338,0.6268,0.6271,0.6271,0.6461,0.6712,0.6712,0.6902,0.7139,0.7139,0.7139,0.7139,0.7139,0.7139,0.7139,0.7139,0.7139,0.7139,0.7139,0.7139,0.7139,0.7139,0.7139,0.7139,0.7139,0.7139,0.7139,0.7139,0.7139,0.7139,0.7139,0.7139,0.7139,0.7139,0.7139,0.7139,0.7139,0.7139,0.7139,0.7139,0.7139,0.72,0.7346,0.7366,0.7434,0.758,0.7451,0.737,0.737,0.7221,0.7139,0.7139,0.7228,0.7312,0.7312,0.7312,0.7312,0.7319,0.8613,0.9323,0.0,0.0,0.0,0.0,0.0,0.0,0.0,0.8804,0.8804,0.8804,0.8804,0.8838,0.8945,0.9057,0.9339,0.9633,0.9927,1.0114,1.0114,1.0374,1.0624,1.0624,1.0624,1.0624,1.0624,1.0624,1.0624,1.0624,1.0719,1.0715,1.0715,1.0815,1.0955,1.1142,1.1149,1.1376,1.1864,1.1977,1.2118,1.2305,1.2305,1.2077,1.1694,1.0421,0.9442,0.8689,0.7403,0.6872,0.6795,0.6412,0.6338,0.6338,0.6338,0.6338,0.6338,0.6338,0.6386,0.6556,0.6556,0.6753,0.7004,0.7004,0.7065,0.7139,0.7139,0.7139,0.7139,0.7139,0.7139,0.7139,0.7139,0.7139,0.7139,0.7139,0.7139,0.7139,0.7139,0.7139,0.7139,0.7139,0.7139,0.7139,0.7139,0.7139,0.7139,0.7139,0.7139,0.7139,0.7139,0.7139,0.7139,0.7139,0.7139,0.7204,0.736,0.7461,0.758,0.7726,0.7685,0.7611,0.7522,0.737,0.7241,0.7143,0.7139,0.7139,0.7139,0.7139,0.7139,0.7143,0.7743,0.8473,0.6352,0.0,0.0,0.0,0.0,0.0,0.0,0.0,0.8804,0.8804,0.8804,0.8804,0.8804,0.8965,0.9158,0.9359,0.9719,0.9973,0.9973,1.0307,1.0624,1.0624,1.0624,1.0624,1.0624,1.0624,1.0624,1.0624,1.0624,0.0,1.0624,1.0624,1.0712,1.0842,1.0942,1.1229,1.1717,1.1824,1.2011,1.2305,1.2305,1.215,1.1768,1.0421,0.9442,0.8689,0.7403,0.6644,0.6338,0.6338,0.6338,0.6338,0.6338,0.6338,0.6338,0.6338,0.6349,0.6471,0.6471,0.6637,0.6861,0.6912,0.6993,0.7078,0.7126,0.7139,0.7139,0.7139,0.7139,0.7139,0.7139,0.7139,0.7139,0.7139,0.7139,0.7139,0.7139,0.7139,0.7139,0.7139,0.7139,0.7139,0.7139,0.7139,0.7139,0.7139,0.7139,0.7139,0.7139,0.7139,0.7139,0.7139,0.7139,0.7224,0.7431,0.7543,0.7658,0.7801,0.7767,0.7675,0.7529,0.7377,0.7244,0.7143,0.7139,0.7166,0.7217,0.7166,0.7139,0.7146,0.735,0.814,0.0,0.0,0.0,0.0,0.0,0.0,0.0,0.0,0.8804,0.8804,0.8804,0.8804,0.8804,0.8804,0.8804,0.8804,0.9292,0.9673,0.9686,1.018,1.0611,1.0624,1.0624,1.0624,1.0624,1.0624,1.0624,1.0624,1.0624,1.0624,1.0624,1.0624,1.0624,1.0624,1.0835,1.1122,1.141,1.171,1.2004,1.2285,1.2298,1.1774,1.0858,1.0783,0.9658,0.7859,0.7783,0.7176,0.6338,0.6338,0.6338,0.6338,0.6338,0.6338,0.6338,0.6338,0.6346,0.6464,0.6464,0.6566,0.6719,0.6868,0.6922,0.6956,0.7092,0.7136,0.7139,0.7139,0.7139,0.7139,0.7139,0.7139,0.7139,0.7139,0.7139,0.7139,0.7139,0.7139,0.7139,0.7139,0.7139,0.7139,0.7139,0.7139,0.7139,0.7139,0.7139,0.7139,0.7139,0.7139,0.7139,0.7139,0.7139,0.7265,0.7567,0.7594,0.7655,0.7794,0.7675,0.7533,0.738,0.7227,0.7146,0.7139,0.7146,0.7221,0.737,0.7221,0.7149,0.716,0.7465,0.8424,0.6634,0.0,0.0,0.0,0.0,0.0,0.0,0.0,0.0,0.8804,0.8804,0.8804,0.8804,0.8804,0.8804,0.8804,0.9118,0.9439,0.9653,1.0,1.0321,1.0598,1.0624,1.0624,1.0624,1.0624,1.0624,0.0,1.0624,1.0624,1.0624,1.0624,1.0624,1.0624,1.0641,1.0822,1.1109,1.1403,1.1697,1.1991,1.2204,1.215,1.1848,1.0346,0.9442,0.8765,0.7326,0.6567,0.6338,0.6338,0.6338,0.6338,0.6338,0.6338,0.6338,0.6338,0.6285,0.6318,0.6318,0.6413,0.6542,0.6583,0.6749,0.6936,0.6973,0.7058,0.7139,0.7139,0.7139,0.7139,0.7139,0.7139,0.7139,0.7139,0.7139,0.7139,0.7139,0.7139,0.7139,0.7139,0.7139,0.7139,0.7139,0.7139,0.7139,0.7139,0.7139,0.7139,0.7139,0.7139,0.7139,0.7139,0.7139,0.7221,0.7417,0.7434,0.7499,0.7648,0.7621,0.7533,0.738,0.7329,0.7255,0.7143,0.7251,0.7329,0.737,0.7329,0.7363,0.7478,0.7665,0.8527,0.0,0.0,0.0,0.0,0.0,0.0,0.8524,0.8684,0.0,0.0,0.8804,0.8804,0.8804,0.8804,0.8844,0.8971,0.907,0.9345,0.9646,1.004,1.0367,1.0604,1.0624,1.0624,1.0624,1.0624,1.0624,1.0624,1.0624,1.0624,1.0624,1.0624,1.0624,1.0624,1.0624,1.0701,1.0989,1.1162,1.1456,1.187,1.2044,1.2184,1.2224,1.1099,1.0121,0.9221,0.8084,0.7099,0.6338,0.6338,0.6338,0.6338,0.6338,0.6338,0.6338,0.6338,0.6338,0.6338,0.6338,0.6315,0.6393,0.6454,0.6593,0.6749,0.6814,0.6936,0.7051,0.7051,0.7095,0.7139,0.7139,0.7139,0.7139,0.7139,0.7139,0.7139,0.7139,0.7139,0.7139,0.7139,0.7139,0.7139,0.7139,0.7139,0.7139,0.7139,0.7139,0.7139,0.7139,0.7139,0.7139,0.7139,0.7139,0.7204,0.736,0.737,0.7411,0.7499,0.7506,0.7434,0.7282,0.7275,0.7234,0.7143,0.7292,0.7431,0.7553,0.7495,0.7543,0.7689,0.7773,0.8279,0.7448,0.756,0.0,0.0,0.835,0.0,0.8697,0.8784,0.8804,0.0,0.8804,0.8804,0.8804,0.8804,0.8891,0.9097,0.919,0.9392,0.9693,1.018,1.0584,1.0618,1.0624,1.0624,1.0624,1.0624,1.0624,1.0624,1.0624,1.0624,1.0624,1.0624,1.0624,1.0624,1.0624,1.0681,1.0942,1.1009,1.1303,1.1824,1.1884,1.2051,1.2298,1.2077,1.1025,0.9296,0.9069,0.7936,0.6338,0.6338,0.6338,0.6338,0.6338,0.6338,0.6338,0.6338,0.6338,0.6338,0.6338,0.6338,0.6281,0.6407,0.6461,0.6502,0.6654,0.6807,0.6932,0.6949,0.7044,0.7139,0.7139,0.7139,0.7139,0.7139,0.7139,0.7139,0.7139,0.7139,0.7139,0.7139,0.7139,0.7139,0.7139,0.7139,0.7139,0.7139,0.7139,0.7139,0.7139,0.7139,0.7139,0.7139,0.7139,0.7193,0.7333,0.7346,0.7346,0.7346,0.7363,0.7302,0.7146,0.7156,0.7166,0.7166,0.7333,0.7556,0.7834,0.7709,0.7712,0.7834,0.7834,0.7909,0.7822,0.7842,0.7869,0.7989,0.0,0.0,0.8444,0.8644,0.8804,0.0,0.8804,0.8804,0.8804,0.8804,0.8824,0.8884,0.9285,0.9699,0.9987,1.0134,1.0294,1.0598,1.0624,1.0624,1.0624,1.0624,1.0624,1.0624,1.0624,1.0624,1.0624,1.0624,1.0624,1.0624,1.0624,1.0651,1.0705,1.1109,1.1396,1.1516,1.1991,1.2245,1.2231,1.0645,0.9674,0.9221,0.7557,0.6641,0.6338,0.6338,0.6338,0.6338,0.6338,0.6338,0.6338,0.6338,0.6338,0.6338,0.6338,0.6338,0.6268,0.6291,0.638,0.6502,0.6654,0.6807,0.6953,0.7065,0.7119,0.7139,0.7139,0.7139,0.7139,0.7139,0.7139,0.7139,0.7139,0.7139,0.7139,0.7139,0.7139,0.7139,0.7139,0.7139,0.7139,0.7139,0.7139,0.7139,0.7139,0.7139,0.7139,0.7139,0.7139,0.7153,0.7183,0.7183,0.7183,0.7183,0.7302,0.7302,0.7146,0.7258,0.7326,0.7326,0.759,0.7814,0.7994,0.7967,0.7967,0.7994,0.7994,0.8011,0.815,0.815,0.8183,0.833,0.0,0.0,0.0,0.8704,0.8804,0.8804,0.8804,0.8699,0.8321,0.8262,0.8199,0.8009,0.8533,0.9035,0.9313,0.9903,1.0394,1.0604,1.0624,1.0624,1.0624,1.0624,1.0624,1.0624,1.0624,1.0624,1.0624,1.0624,1.0624,1.0624,1.0624,1.0624,1.0624,1.0848,1.1062,1.1216,1.1657,1.1944,1.2018,1.0662,0.9744,0.9221,0.7706,0.6795,0.6338,0.6338,0.6338,0.6338,0.6338,0.6338,0.6338,0.6338,0.6338,0.6338,0.6338,0.6338,0.6338,0.6338,0.6308,0.638,0.6458,0.6637,0.6861,0.7078,0.7139,0.7139,0.7139,0.7139,0.7139,0.7139,0.7139,0.7139,0.7139,0.7139,0.7139,0.7139,0.7139,0.7139,0.7139,0.7139,0.7139,0.7139,0.7139,0.7139,0.7139,0.7139,0.7139,0.7139,0.7139,0.7139,0.7139,0.7139,0.7139,0.7139,0.7285,0.7302,0.7146,0.7288,0.7407,0.7485,0.7699,0.7885,0.8038,0.8038,0.8038,0.8038,0.8038,0.8038,0.0,0.0,0.8517,0.0,0.0,0.8804,0.0,0.0,0.0,0.8804,0.8804,0.0,0.0,0.0,0.0,0.0,0.0,0.0,0.0,0.9436,0.0,1.0468,1.0591,1.0624,1.0624,1.0571,1.0557,1.0618,1.0571,1.0501,1.0618,1.0624,1.0624,1.0624,1.0624,1.0624,1.0624,1.0678,1.0762,1.0995,1.1343,1.1534,1.1507,1.0801,0.9938,0.8934,0.7918,0.7022,0.6338,0.6338,0.6338,0.6338,0.6338,0.6338,0.6338,0.6338,0.6338,0.6338,0.6338,0.6338,0.6338,0.6338,0.6278,0.6305,0.6335,0.6532,0.68,0.7065,0.7139,0.7139,0.7139,0.7139,0.7139,0.7139,0.7139,0.7139,0.7139,0.7139,0.7139,0.7139,0.7139,0.7139,0.7139,0.7139,0.7139,0.7139,0.7139,0.7139,0.7139,0.7139,0.7139,0.7139,0.7139,0.7139,0.7139,0.7139,0.7139,0.7139,0.7316,0.7346,0.719,0.736,0.7512,0.7638,0.778,0.7916,0.8038,0.8038,0.8038,0.8038,0.8038,0.8038,0.0,0.0,0.0,0.0,0.8804,0.0,0.0,0.0,0.8804,0.8804,0.0,0.0,0.0,0.0,0.0,0.0,0.0,0.0,0.7239,0.8166,0.9147,1.0073,1.0401,1.0624,1.0624,1.0321,1.0274,1.0604,1.0314,1.0281,1.0611,1.0624,1.0624,1.0624,1.0624,1.0624,1.0624,1.0815,1.0962,1.1002,1.1557,1.1269,1.0305,0.9696,0.8811,0.7681,0.6805,0.6412,0.6338,0.6338,0.6338,0.6338,0.6338,0.6338,0.6338,0.6338,0.6338,0.6338,0.6338,0.6338,0.6338,0.6338,0.6346,0.6474,0.661,0.677,0.6936,0.7095,0.7139,0.7139,0.7139,0.7139,0.7139,0.7139,0.7139,0.7139,0.7139,0.7139,0.7139,0.7139,0.7139,0.7139,0.7139,0.7139,0.7139,0.7139,0.7139,0.7139,0.7139,0.7139,0.7139,0.7139,0.7139,0.7139,0.7139,0.7139,0.7139,0.7139,0.7414,0.7506,0.7353,0.7611,0.777,0.7787,0.7936,0.8021,0.8038,0.8038,0.8038,0.8038,0.8038,0.8038,0.0,0.0,0.0,0.0,0.0,0.0,0.8804,0.0,0.8699,0.0,0.0,0.0,0.0,0.0,0.0,0.0,0.5835,0.0,0.0,0.0,0.7952,0.0,0.0,0.0,1.0287,1.0187,1.0241,1.0598,1.0281,1.0247,1.0611,1.0624,1.0624,1.0624,1.0624,1.0624,1.0624,1.0681,1.0742,1.0748,1.0686,1.0331,0.9826,0.8689,0.7901,0.7425,0.6543,0.6176,0.6338,0.6338,0.6338,0.6338,0.6338,0.6338,0.6338,0.6338,0.6338,0.6338,0.6338,0.6338,0.6338,0.6338,0.6302,0.6393,0.6627,0.6746,0.6844,0.7075,0.7139,0.7139,0.7139,0.7139,0.7139,0.7139,0.7139,0.7139,0.7139,0.7139,0.7139,0.7139,0.7139,0.7139,0.7139,0.7139,0.7139,0.7139,0.7139,0.7139,0.7139,0.7139,0.7139,0.7139,0.7139,0.7139,0.7139,0.7139,0.718,0.7268,0.7478,0.7607,0.7628,0.7746,0.7811,0.7811,0.7963,0.8038,0.8038,0.8038,0.8038,0.8038,0.8038,0.8038,0.8956,0.0,0.0,0.0,0.0,0.0,0.0,0.0,0.0,0.0,0.0,0.0,0.0,0.0,0.0,0.0,0.0,0.5218,0.0,0.605,0.0,0.0,0.0,0.0,0.0,0.9496,0.9726,1.0151,1.0038,1.016,1.0604,1.0364,1.0364,1.0561,1.0364,1.0364,1.0624,1.0624,1.0624,1.0561,0.9993,0.9548,0.9224,0.7925,0.7262,0.6988,0.635,0.6159,0.6338,0.6338,0.6338,0.6338,0.6338,0.6338,0.6338,0.6338,0.6338,0.6338,0.6338,0.6338,0.6338,0.6338,0.6338,0.6315,0.661,0.6702,0.6763,0.7058,0.7139,0.7139,0.7139,0.7139,0.7139,0.7139,0.7139,0.7139,0.7139,0.7139,0.7139,0.7139,0.7139,0.7139,0.7139,0.7139,0.7139,0.7139,0.7139,0.7139,0.7139,0.7139,0.7139,0.7139,0.7139,0.7139,0.7139,0.718,0.7285,0.7482,0.7597,0.7723,0.7868,0.7875,0.7875,0.7875,0.7984,0.8038,0.8038,0.8038,0.8038,0.8038,0.8038,0.8038,0.0,0.0,0.0,0.8804,0.0,0.0,0.0,0.0,0.8804,0.0,0.0,0.0,0.0,0.0,0.0,0.0,0.0,0.0,0.0,0.0,0.0,0.0,0.0,0.0,0.0,0.7988,0.8461,0.0,0.9432,0.9953,1.0598,0.9786,0.9722,1.0561,0.9786,0.9722,1.0561,1.0624,1.0624,1.0561,0.9993,0.9119,0.8057,0.7659,0.6883,0.5895,0.6197,0.6254,0.6338,0.6338,0.6338,0.6338,0.6338,0.6338,0.6338,0.6338,0.6338,0.6338,0.6338,0.6338,0.6338,0.6338,0.6338,0.6315,0.661,0.6702,0.6763,0.7058,0.7139,0.7139,0.7139,0.7139,0.7139,0.7139,0.7139,0.7139,0.7139,0.7139,0.7139,0.7139,0.7139,0.7139,0.7139,0.7139,0.7139,0.7139,0.7139,0.7139,0.7139,0.7139,0.7139,0.7139,0.7139,0.7139,0.7139,0.7278,0.7489,0.778,0.7801,0.7872,0.8024,0.8031,0.8031,0.8031,0.8038,0.8038,0.8038,0.8038,0.8038,0.8038,0.8038,0.8038,0.0,0.0,0.8804,0.8804,0.0,0.0,0.0,0.0,0.0,0.0,0.0,0.0,0.0,0.0,0.0,0.0,0.0,0.0,0.0,0.0,0.0,0.0,0.0,0.0,0.0,0.0,0.0,0.0,0.8143,0.0,0.9691,0.8941,0.8812,0.9722,0.8877,0.8608,0.8865,0.8865,0.8865,0.8871,0.8098,0.7503,0.712,0.6455,0.601,0.5806,0.5911,0.6071,0.6338,0.6338,0.6338,0.6338,0.6338,0.6338,0.6338,0.6338,0.6338,0.6338,0.6338,0.6338,0.6338,0.6338,0.6338,0.6315,0.661,0.6702,0.6763,0.7058,0.7139,0.7139,0.7139,0.7139,0.7139,0.7139,0.7139,0.7139,0.7139,0.7139,0.7139,0.7139,0.7139,0.7139,0.7139,0.7139,0.7139,0.7139,0.7139,0.7139,0.7139,0.7139,0.7139,0.7139,0.7139,0.7139,0.7139,0.7377,0.7604,0.7797,0.7906,0.7984,0.8038,0.8038,0.8038,0.8038,0.8038,0.8038,0.8038,0.8038,0.8038,0.8038,0.8038,0.8038,0.891,0.8804,0.0,0.8804,0.8804,0.0,0.8804,0.0,0.7937,0.0,0.0,0.0,0.0,0.0,0.0,0.0,0.0,0.0,0.0,0.4519,0.0,0.0,0.0,0.0,0.0,0.0,0.6687,0.7162,0.725,0.0,0.0,0.8027,0.7957,0.8812,0.7962,0.7697,0.8027,0.8027,0.8027,0.7962,0.7111,0.6719,0.6658,0.5877,0.5576,0.58,0.58,0.5976,0.6257,0.6203,0.621,0.6338,0.6338,0.6338,0.6338,0.6338,0.6338,0.6338,0.6338,0.6338,0.6338,0.6338,0.6338,0.6315,0.661,0.6702,0.6763,0.7058,0.7139,0.7139,0.7139,0.7139,0.7139,0.7139,0.7139,0.7139,0.7139,0.7139,0.7139,0.7139,0.7139,0.7139,0.7139,0.7139,0.7139,0.7139,0.7139,0.7139,0.7139,0.7139,0.7139,0.7139,0.7058,0.7108,0.7128,0.7449,0.775,0.7896,0.7997,0.8048,0.8038,0.8038,0.8038,0.8038,0.8038,0.8038,0.8038,0.8038,0.8038,0.8038,0.8038,0.8038]},{"header":{"parameterUnit":"m.s-1","parameterCategory":1,"la1":30.6,"la2":29.2853,"lo1":-89.7004,"lo2":-87.6739,"dy":0.0162,"dx":0.0183,"nx":112,"ny":82,"refTime":"2024-07-08T18:00:00:Z","depth":0,"parameterNumber":3,"parameterNumberName":"V-component_of_WINDS"},"data":[0.0,0.0,0.0,0.0,0.0,0.0,0.0,0.0,0.0,0.0,0.0,0.0,0.0,0.0,0.0,0.0,0.0,0.0,0.0,0.0,0.0,0.0,0.0,0.0,0.0,0.0,0.0,0.0,0.0,0.0,0.0,0.0,0.0,0.0,0.0,0.0,0.0,0.0,0.0,0.0,0.0,0.0,0.0,0.0,0.0,0.0,0.0,0.0,0.0,0.0,0.0,0.0,0.0,0.0,0.0,0.0,0.0,0.0,0.0,0.0,0.0,0.0,0.0,0.0,0.0,0.0,0.0,0.0,0.0,0.0,0.0,0.0,0.0,0.0,0.0,0.0,0.0,0.0,0.0,0.0,0.0,0.0,0.0,0.0,0.0,0.0,0.0,0.0,0.0,0.0,-0.8889,-0.8791,-0.9504,-1.0466,-1.1715,-1.1814,-1.173,-1.1611,0.0,0.0,0.0,0.0,0.0,0.0,0.0,0.0,0.0,0.0,0.0,0.0,0.0,0.0,0.0,0.0,0.0,0.0,0.0,0.0,0.0,0.0,0.0,0.0,0.0,0.0,0.0,0.0,0.0,0.0,0.0,0.0,0.0,0.0,0.0,0.0,0.0,0.0,0.0,0.0,0.0,0.0,0.0,0.0,0.0,0.0,0.0,0.0,0.0,0.0,0.0,0.0,0.0,0.0,0.0,0.0,0.0,0.0,0.0,0.0,0.0,0.0,0.0,0.0,0.0,0.0,0.0,0.0,0.0,0.0,0.0,0.0,0.0,0.0,0.0,0.0,0.0,0.0,0.0,0.0,0.0,0.0,0.0,0.0,0.0,0.0,0.0,0.0,0.0,0.0,0.0,0.0,0.0,0.0,0.0,0.0,0.0,0.0,0.0,0.0,0.0,0.0,0.0,0.0,-0.9297,-1.0322,-1.0578,-1.0965,-1.1715,-1.1814,-1.173,-1.1611,0.0,0.0,0.0,0.0,0.0,0.0,0.0,0.0,0.0,0.0,0.0,0.0,0.0,0.0,0.0,0.0,0.0,0.0,0.0,0.0,0.0,0.0,0.0,0.0,0.0,0.0,0.0,0.0,0.0,0.0,0.0,0.0,0.0,0.0,0.0,0.0,0.0,0.0,0.0,0.0,0.0,0.0,0.0,0.0,0.0,0.0,0.0,0.0,0.0,0.0,0.0,0.0,0.0,0.0,0.0,0.0,0.0,0.0,0.0,0.0,0.0,0.0,0.0,0.0,0.0,0.0,0.0,0.0,0.0,0.0,0.0,0.0,0.0,0.0,0.0,0.0,0.0,0.0,0.0,0.0,0.0,0.0,0.0,0.0,0.0,0.0,0.0,0.0,0.0,0.0,0.0,0.0,0.0,0.0,0.0,0.0,0.0,0.0,0.0,0.0,0.0,0.0,0.0,-0.9423,-0.9867,-1.1738,-1.1575,-1.1625,-1.2344,-1.2393,-1.2187,-1.1611,-1.1857,0.0,0.0,0.0,0.0,0.0,0.0,0.0,0.0,0.0,0.0,0.0,0.0,0.0,0.0,0.0,0.0,0.0,0.0,0.0,0.0,0.0,0.0,0.0,0.0,0.0,0.0,0.0,0.0,0.0,0.0,0.0,0.0,0.0,0.0,0.0,0.0,0.0,0.0,0.0,0.0,0.0,0.0,0.0,0.0,0.0,0.0,0.0,0.0,0.0,0.0,0.0,0.0,0.0,0.0,0.0,0.0,0.0,0.0,0.0,0.0,0.0,0.0,0.0,0.0,0.0,0.0,0.0,0.0,0.0,0.0,0.0,0.0,0.0,0.0,0.0,0.0,0.0,0.0,0.0,0.0,0.0,0.0,0.0,0.0,0.0,0.0,0.0,0.0,0.0,0.0,0.0,0.0,0.0,0.0,0.0,0.0,0.0,0.0,0.0,0.0,0.0,0.0,-1.0598,-1.0925,-1.2696,-1.2393,-1.2335,-1.3055,-1.3014,-1.2616,-1.1864,-1.21,0.0,0.0,0.0,0.0,0.0,0.0,0.0,0.0,0.0,0.0,0.0,0.0,0.0,0.0,0.0,0.0,0.0,0.0,0.0,0.0,0.0,0.0,0.0,0.0,0.0,0.0,0.0,0.0,0.0,0.0,0.0,0.0,0.0,0.0,0.0,0.0,0.0,0.0,0.0,0.0,0.0,0.0,0.0,0.0,0.0,0.0,0.0,0.0,0.0,0.0,0.0,0.0,0.0,0.0,0.0,0.0,0.0,0.0,0.0,0.0,0.0,0.0,0.0,0.0,0.0,0.0,0.0,0.0,0.0,0.0,0.0,0.0,0.0,0.0,0.0,0.0,0.0,0.0,0.0,0.0,0.0,0.0,0.0,0.0,0.0,0.0,0.0,0.0,0.0,0.0,0.0,0.0,0.0,0.0,0.0,0.0,0.0,0.0,0.0,0.0,0.0,0.0,-1.1893,-1.2745,-1.2881,-1.2832,-1.3045,-1.3684,-1.3299,-1.284,-1.2478,-1.2368,0.0,0.0,0.0,0.0,0.0,0.0,0.0,0.0,0.0,0.0,0.0,0.0,0.0,0.0,0.0,0.0,0.0,0.0,0.0,0.0,0.0,0.0,0.0,0.0,0.0,0.0,0.0,0.0,0.0,0.0,0.0,0.0,0.0,0.0,0.0,0.0,0.0,0.0,0.0,0.0,0.0,0.0,0.0,0.0,0.0,0.0,0.0,0.0,0.0,0.0,0.0,0.0,0.0,0.0,0.0,0.0,0.0,0.0,0.0,0.0,0.0,0.0,0.0,0.0,0.0,0.0,0.0,0.0,0.0,0.0,0.0,0.0,0.0,0.0,0.0,0.0,0.0,0.0,0.0,0.0,0.0,0.0,0.0,0.0,0.0,0.0,0.0,0.0,0.0,0.0,0.0,0.0,0.0,0.0,0.0,0.0,0.0,0.0,0.0,0.0,0.0,0.0,-1.2573,-1.334,0.0,-1.4025,-1.4107,-1.4329,-1.4165,-1.3729,-1.2984,0.0,0.0,0.0,0.0,0.0,0.0,0.0,0.0,0.0,0.0,0.0,0.0,0.0,0.0,0.0,0.0,0.0,0.0,0.0,0.0,0.0,0.0,0.0,0.0,0.0,0.0,0.0,0.0,0.0,0.0,0.0,0.0,0.0,0.0,0.0,0.0,0.0,0.0,0.0,0.0,0.0,0.0,0.0,0.0,0.0,0.0,0.0,0.0,0.0,0.0,0.0,0.0,0.0,0.0,0.0,0.0,0.0,0.0,0.0,0.0,0.0,0.0,0.0,0.0,0.0,0.0,0.0,0.0,0.0,0.0,0.0,0.0,0.0,0.0,0.0,0.0,0.0,0.0,0.0,0.0,0.0,0.0,0.0,0.0,0.0,0.0,0.0,0.0,0.0,0.0,0.0,0.0,0.0,0.0,0.0,0.0,0.0,0.0,0.0,0.0,0.0,0.0,-1.232,-1.3205,-1.3925,0.0,-1.4698,-1.4789,-1.4971,-1.4834,-1.4378,-1.3552,0.0,0.0,0.0,0.0,0.0,0.0,0.0,0.0,0.0,0.0,0.0,0.0,0.0,0.0,0.0,0.0,0.0,0.0,0.0,0.0,0.0,0.0,0.0,0.0,0.0,0.0,0.0,0.0,0.0,0.0,0.0,0.0,0.0,0.0,0.0,0.0,0.0,0.0,0.0,0.0,0.0,0.0,0.0,0.0,0.0,0.0,0.0,0.0,0.0,0.0,0.0,0.0,0.0,0.0,0.0,0.0,0.0,0.0,0.0,0.0,0.0,0.0,0.0,0.0,0.0,0.0,0.0,0.0,0.0,0.0,0.0,0.0,0.0,0.0,0.0,0.0,0.0,0.0,0.0,0.0,0.0,0.0,0.0,0.0,0.0,0.0,0.0,0.0,0.0,0.0,0.0,0.0,0.0,0.0,0.0,0.0,0.0,0.0,0.0,0.0,0.0,0.0,-1.2404,-1.3784,-1.4709,-1.4709,-1.4709,-1.4971,-1.5543,-1.5136,-1.4613,0.0,0.0,0.0,0.0,0.0,0.0,0.0,0.0,0.0,0.0,0.0,0.0,0.0,0.0,0.0,0.0,0.0,0.0,0.0,0.0,0.0,0.0,0.0,0.0,0.0,0.0,0.0,0.0,0.0,0.0,0.0,0.0,0.0,0.0,0.0,0.0,0.0,0.0,0.0,0.0,0.0,0.0,0.0,0.0,0.0,0.0,0.0,0.0,0.0,0.0,0.0,0.0,0.0,0.0,0.0,0.0,0.0,0.0,0.0,0.0,0.0,0.0,0.0,0.0,0.0,0.0,0.0,0.0,0.0,0.0,0.0,0.0,0.0,0.0,0.0,0.0,0.0,0.0,0.0,0.0,0.0,0.0,0.0,0.0,0.0,0.0,0.0,0.0,0.0,0.0,0.0,0.0,0.0,0.0,0.0,0.0,0.0,0.0,0.0,0.0,0.0,0.0,0.0,-1.3025,-1.4787,-1.5976,-1.5976,-1.5976,-1.6064,-1.6238,-1.5743,-1.52,-1.4695,0.0,0.0,0.0,0.0,0.0,0.0,0.0,0.0,0.0,0.0,0.0,0.0,0.0,0.0,0.0,0.0,0.0,0.0,0.0,0.0,0.0,0.0,0.0,0.0,0.0,0.0,0.0,0.0,0.0,0.0,0.0,0.0,0.0,0.0,0.0,0.0,0.0,0.0,0.0,0.0,0.0,0.0,0.0,0.0,0.0,0.0,0.0,0.0,0.0,0.0,0.0,0.0,0.0,0.0,0.0,0.0,0.0,0.0,0.0,0.0,0.0,0.0,0.0,0.0,0.0,0.0,0.0,0.0,0.0,0.0,0.0,0.0,0.0,0.0,0.0,0.0,0.0,0.0,0.0,0.0,0.0,0.0,0.0,0.0,0.0,0.0,0.0,0.0,0.0,0.0,0.0,0.0,0.0,0.0,0.0,0.0,0.0,0.0,0.0,0.0,0.0,0.0,-1.327,-1.5223,-1.6522,-1.6522,-1.6522,-1.6522,-1.6522,-1.6208,-1.5693,-1.4966,0.0,0.0,0.0,0.0,0.0,0.0,0.0,0.0,0.0,0.0,0.0,0.0,0.0,0.0,0.0,0.0,0.0,0.0,0.0,0.0,0.0,0.0,0.0,0.0,0.0,0.0,0.0,0.0,0.0,0.0,0.0,0.0,0.0,0.0,0.0,0.0,0.0,0.0,0.0,0.0,0.0,0.0,0.0,0.0,0.0,0.0,0.0,0.0,0.0,0.0,0.0,0.0,0.0,0.0,0.0,0.0,0.0,0.0,0.0,0.0,0.0,0.0,0.0,0.0,0.0,0.0,0.0,0.0,0.0,0.0,0.0,0.0,0.0,0.0,0.0,0.0,0.0,0.0,0.0,0.0,0.0,0.0,0.0,0.0,0.0,0.0,0.0,0.0,0.0,0.0,0.0,0.0,0.0,0.0,0.0,0.0,0.0,0.0,0.0,0.0,0.0,0.0,-1.3362,-1.5223,-1.6522,-1.6522,-1.6522,-1.6522,-1.6522,-1.6514,-1.6065,-1.5005,0.0,0.0,0.0,0.0,0.0,0.0,0.0,0.0,0.0,0.0,0.0,0.0,0.0,0.0,0.0,0.0,0.0,0.0,0.0,0.0,0.0,0.0,0.0,0.0,0.0,0.0,0.0,0.0,0.0,0.0,0.0,0.0,0.0,0.0,0.0,0.0,0.0,0.0,0.0,0.0,0.0,0.0,0.0,0.0,0.0,0.0,0.0,0.0,0.0,0.0,0.0,0.0,0.0,0.0,0.0,0.0,0.0,0.0,0.0,0.0,-1.3465,0.0,0.0,0.0,0.0,0.0,0.0,0.0,0.0,0.0,0.0,0.0,0.0,0.0,0.0,0.0,0.0,0.0,0.0,0.0,0.0,0.0,0.0,0.0,0.0,0.0,0.0,0.0,0.0,0.0,0.0,0.0,0.0,0.0,0.0,0.0,0.0,0.0,0.0,0.0,0.0,0.0,-1.3907,-1.5433,-1.6522,-1.6522,-1.6522,-1.6522,-1.6522,-1.6509,-1.6179,-1.5411,-1.4741,0.0,0.0,0.0,0.0,0.0,0.0,0.0,0.0,0.0,0.0,0.0,0.0,0.0,0.0,0.0,0.0,0.0,0.0,0.0,0.0,0.0,0.0,0.0,0.0,0.0,0.0,0.0,0.0,0.0,0.0,0.0,0.0,0.0,0.0,0.0,0.0,0.0,0.0,0.0,0.0,0.0,0.0,0.0,0.0,0.0,0.0,0.0,0.0,0.0,0.0,0.0,0.0,0.0,0.0,0.0,0.0,0.0,0.0,0.0,0.0,-1.4966,0.0,0.0,0.0,0.0,0.0,0.0,0.0,0.0,0.0,0.0,0.0,0.0,0.0,0.0,0.0,0.0,0.0,0.0,0.0,0.0,0.0,0.0,0.0,0.0,0.0,0.0,0.0,0.0,0.0,0.0,0.0,0.0,0.0,0.0,0.0,0.0,0.0,0.0,0.0,0.0,-1.4425,-1.5677,-1.6522,-1.6522,-1.6522,-1.6522,-1.6522,-1.6485,-1.6347,-1.6007,-1.5157,0.0,0.0,0.0,0.0,0.0,0.0,0.0,0.0,0.0,0.0,0.0,0.0,0.0,0.0,0.0,0.0,0.0,0.0,0.0,0.0,0.0,0.0,0.0,0.0,0.0,0.0,0.0,0.0,0.0,0.0,0.0,0.0,0.0,0.0,0.0,0.0,0.0,0.0,0.0,0.0,0.0,0.0,0.0,0.0,0.0,0.0,0.0,0.0,0.0,0.0,0.0,0.0,0.0,-1.6477,-1.6596,-1.7029,-1.6607,-1.7315,-1.8789,-1.7282,-1.7463,-1.874,-1.7225,0.0,0.0,0.0,0.0,0.0,0.0,0.0,0.0,0.0,0.0,0.0,0.0,0.0,0.0,0.0,0.0,0.0,0.0,0.0,0.0,0.0,0.0,0.0,0.0,-1.7726,-1.7993,-1.6692,0.0,0.0,0.0,0.0,0.0,0.0,0.0,0.0,0.0,0.0,0.0,-1.5122,-1.5989,-1.6522,-1.6522,-1.6595,-1.6637,-1.6637,-1.6795,-1.687,-1.674,-1.591,-1.5305,0.0,0.0,0.0,0.0,0.0,0.0,0.0,0.0,0.0,0.0,0.0,0.0,0.0,0.0,0.0,0.0,0.0,0.0,0.0,0.0,0.0,0.0,0.0,0.0,0.0,0.0,0.0,0.0,0.0,0.0,0.0,0.0,-1.3599,-1.4303,0.0,0.0,0.0,0.0,0.0,0.0,0.0,0.0,0.0,0.0,0.0,0.0,0.0,-1.6438,-1.6508,-1.7412,-1.7898,-1.7898,-1.875,-1.9188,-1.9298,-1.955,-1.9645,-1.9596,-2.0106,0.0,-1.939,-1.8308,0.0,0.0,0.0,0.0,0.0,0.0,0.0,0.0,0.0,0.0,0.0,0.0,0.0,0.0,0.0,0.0,0.0,0.0,0.0,0.0,0.0,0.0,-1.9277,-1.9277,-1.9373,-1.9439,0.0,-1.7769,-1.6264,-1.5432,-1.5086,0.0,0.0,0.0,0.0,0.0,0.0,0.0,-1.6231,-1.6408,-1.6522,-1.6522,-1.6909,-1.7188,-1.7188,-1.8066,-1.8356,-1.7768,-1.801,-1.7749,-1.6824,-1.5614,0.0,0.0,0.0,0.0,0.0,0.0,0.0,0.0,0.0,0.0,0.0,0.0,0.0,0.0,0.0,0.0,0.0,0.0,0.0,0.0,0.0,0.0,0.0,0.0,0.0,0.0,0.0,0.0,0.0,-1.3113,-1.4313,-1.4186,-1.5447,-1.595,0.0,0.0,0.0,0.0,0.0,0.0,0.0,0.0,0.0,-1.854,-1.9133,-1.9411,-1.9432,-1.9876,-2.0138,-2.0138,-2.0894,-2.1237,-2.1237,-2.1389,-2.1548,-2.1599,-2.1471,-2.1456,-2.1459,-1.9908,-1.9122,-1.8763,0.0,0.0,0.0,0.0,-1.8717,-1.8858,-1.967,-1.9936,-1.9808,-1.9193,0.0,0.0,0.0,0.0,0.0,0.0,0.0,0.0,0.0,0.0,-1.9702,-1.9949,-2.0243,-2.0379,-2.0089,-1.9291,-1.8298,0.0,-1.6642,-1.6126,-1.5434,0.0,0.0,0.0,0.0,-1.6678,-1.693,-1.7194,-1.7394,-1.7394,-1.7626,-1.7747,-1.7747,-1.8185,-1.846,-1.8452,-1.8339,-1.8159,-1.7998,-1.6906,-1.6058,0.0,0.0,0.0,0.0,0.0,0.0,0.0,0.0,0.0,0.0,0.0,0.0,0.0,0.0,0.0,0.0,0.0,0.0,0.0,0.0,0.0,0.0,0.0,0.0,0.0,0.0,0.0,0.0,-1.4486,-1.5426,-1.4789,-1.6919,-1.7896,0.0,0.0,0.0,0.0,0.0,0.0,-1.9342,-2.0162,-2.0582,-2.0553,-2.1416,-2.184,-2.1695,-2.1838,-2.1862,-2.1901,-2.2224,-2.2397,-2.2397,-2.2359,-2.2582,-2.2889,-2.2293,-2.2518,-2.3162,-2.1478,-2.0775,-2.078,-2.0383,-1.9877,-1.9466,-2.0363,-2.0582,-2.0532,-2.1447,-2.1794,-2.1694,-2.1192,-2.0628,-2.0059,-1.9425,0.0,0.0,0.0,0.0,-1.9611,-2.0239,-2.0185,-2.0043,-2.0416,-2.0649,-2.0764,-2.0516,-2.0299,-1.9802,0.0,-1.8187,-1.7627,-1.6688,0.0,0.0,0.0,0.0,-1.7556,-1.7679,-1.7947,-1.8106,-1.8106,-1.8224,-1.8302,-1.8302,-1.8419,-1.8688,-1.908,-1.8644,-1.854,-1.8957,-1.8027,-1.7199,-1.6533,0.0,0.0,0.0,0.0,0.0,0.0,0.0,0.0,0.0,0.0,0.0,0.0,0.0,0.0,0.0,0.0,0.0,0.0,0.0,0.0,0.0,0.0,0.0,0.0,0.0,0.0,0.0,0.0,0.0,-1.7469,-1.9217,0.0,0.0,0.0,0.0,-2.0814,-2.0926,-2.1714,-2.3506,-2.3219,-2.301,-2.292,-2.2535,-2.2164,-2.1695,-2.2126,-2.2359,-2.2359,-2.2397,-2.2397,-2.2397,-2.2337,-2.2337,-2.2471,-2.2853,-2.3363,-2.3786,-2.2722,-2.2587,-2.3031,-2.3031,-2.2547,-2.1954,-2.2408,-2.2108,-2.1609,-2.2089,-2.2254,-2.2265,-2.2231,-2.1468,-2.0685,-2.1269,-2.1224,0.0,0.0,-2.2232,-2.2019,-2.2442,-2.173,-2.0926,-2.0959,-2.0649,-2.0449,-2.0862,-2.0249,-1.9621,0.0,-1.9594,-1.9383,-1.8844,0.0,-1.8769,-1.876,-1.8324,-1.8221,-1.8765,-1.8419,-1.8106,-1.8106,-1.8574,-1.8855,-1.8855,-1.9332,-1.9639,-1.9639,-1.9609,-1.963,-1.963,-1.9001,-1.8593,-1.8568,-1.6727,0.0,0.0,0.0,0.0,0.0,0.0,0.0,0.0,0.0,0.0,0.0,0.0,0.0,0.0,0.0,0.0,0.0,0.0,0.0,0.0,0.0,0.0,0.0,0.0,0.0,0.0,0.0,0.0,-1.8316,-2.0036,0.0,-1.9931,-2.0782,-2.1802,-2.2834,-2.3156,-2.3577,-2.4255,-2.4595,-2.4596,-2.4202,-2.4191,-2.4128,-2.3951,-2.3795,-2.3858,-2.4205,-2.4542,-2.4542,-2.4205,-2.4505,-2.4521,-2.4205,-2.4393,-2.4558,-2.4758,-2.4742,-2.4454,-2.3983,-2.367,-2.3572,-2.3664,-2.3806,-2.3701,-2.3483,-2.3667,-2.3714,-2.3714,-2.3714,-2.3452,-2.313,-2.3399,-2.3374,-2.3362,-2.3754,-2.3569,-2.3293,-2.3424,-2.28,-2.2099,-2.2099,-2.1835,-2.1538,-2.1399,-2.1261,-2.1054,-2.0768,-2.0449,-2.0213,-2.0179,-2.0465,-2.0465,-1.9792,-1.9746,-1.9735,-1.9565,-1.9319,-1.9132,-1.9132,-1.9281,-1.9406,-1.9406,-1.9603,-1.969,-1.969,-1.969,-1.969,-1.969,-1.9465,-1.9136,-1.8717,-1.8014,-1.7089,0.0,0.0,0.0,0.0,0.0,0.0,0.0,0.0,0.0,0.0,0.0,0.0,0.0,0.0,0.0,0.0,0.0,0.0,0.0,0.0,0.0,0.0,0.0,0.0,0.0,0.0,-1.9641,-1.9288,-2.1007,-2.1995,-2.1418,-2.2556,-2.3631,-2.4413,-2.4738,-2.4966,-2.522,-2.571,-2.5749,-2.5219,-2.5354,-2.5373,-2.5221,-2.5028,-2.5028,-2.5205,-2.5577,-2.554,-2.5221,-2.5373,-2.5449,-2.5449,-2.5297,-2.5411,-2.5709,-2.5726,-2.5541,-2.522,-2.4846,-2.4777,-2.4864,-2.4864,-2.4695,-2.4506,-2.4506,-2.4506,-2.4506,-2.4506,-2.4506,-2.4506,-2.4506,-2.4661,-2.4864,-2.4864,-2.4674,-2.448,-2.448,-2.3897,-2.3314,-2.3314,-2.309,-2.2785,-2.2615,-2.2476,-2.234,-2.2263,-2.1522,-2.095,-2.112,-2.148,-2.1385,-2.0458,-2.0721,-2.0828,-2.0229,-2.0068,-2.0034,-2.0034,-1.9824,-1.969,-1.969,-1.953,-1.953,-1.969,-1.953,-1.953,-1.969,-1.969,-1.948,-1.9046,-1.891,-1.8014,-1.6331,0.0,0.0,0.0,0.0,0.0,0.0,0.0,0.0,0.0,0.0,0.0,0.0,0.0,0.0,0.0,0.0,0.0,0.0,0.0,0.0,0.0,0.0,0.0,-1.8388,-1.9677,-2.0647,-2.0645,-2.2281,-2.3391,-2.3185,-2.4015,-2.4831,-2.5592,-2.5642,-2.5947,-2.6657,-2.6691,-2.647,-2.6049,-2.6013,-2.5762,-2.5259,-2.5742,-2.5742,-2.5259,-2.5259,-2.5259,-2.5221,-2.4697,-2.5012,-2.5961,-2.5449,-2.5783,-2.6573,-2.5635,-2.5783,-2.6657,-2.6657,-2.6235,-2.561,-2.561,-2.5154,-2.4543,-2.4543,-2.4543,-2.4574,-2.4574,-2.4574,-2.4574,-2.4574,-2.5067,-2.5642,-2.5642,-2.5642,-2.5642,-2.5642,-2.5084,-2.454,-2.454,-2.421,-2.4032,-2.4382,-2.3786,-2.3307,-2.3994,-2.2825,-2.1754,-2.1754,-2.1754,-2.1524,-2.0878,-2.1318,0.0,-2.0849,-2.0744,-2.0699,-2.0699,-2.0087,-1.9705,-1.972,-1.9221,-1.9132,-1.969,-1.9207,-1.9169,-1.969,-1.969,-1.969,-1.969,-1.9394,-1.864,-1.7455,0.0,0.0,0.0,0.0,0.0,0.0,0.0,0.0,0.0,0.0,0.0,0.0,0.0,0.0,0.0,0.0,0.0,0.0,0.0,0.0,0.0,-2.009,-2.12,-2.0852,-2.1568,-2.2434,-2.3308,-2.3857,-2.4397,-2.4879,-2.5142,-2.5592,-2.6336,-2.6404,-2.6488,-2.6674,-2.6691,-2.6657,-2.6505,-2.6191,-2.6104,-2.628,-2.6104,-2.6104,-2.628,-2.628,-2.6087,-2.5779,-2.598,-2.5819,-2.5449,-2.6052,-2.6052,-2.5635,-2.5726,-2.5726,-2.5598,-2.5598,-2.5721,-2.5857,-2.5468,-2.5425,-2.5594,-2.5594,-2.5799,-2.6082,-2.6082,-2.6082,-2.6082,-2.6082,-2.6234,-2.6404,-2.6404,-2.6404,-2.6404,-2.6404,-2.5845,-2.5304,-2.5304,-2.4818,-2.424,-2.3966,-2.3874,-2.3898,-2.4037,-2.3526,-2.3071,-2.3071,-2.3071,-2.3029,-2.2829,-2.2599,0.0,-2.2162,-2.1734,-2.1238,-2.0738,-2.0186,-1.9808,-1.9701,-1.919,-1.9132,-1.969,-1.9566,-1.9566,-1.969,-1.969,-1.969,-1.969,-1.9477,-1.92,0.0,0.0,0.0,0.0,0.0,0.0,0.0,0.0,0.0,0.0,0.0,0.0,0.0,0.0,0.0,0.0,0.0,0.0,0.0,0.0,0.0,0.0,-2.1796,-2.2937,-2.3541,-2.3697,-2.4022,-2.4847,-2.4949,-2.5253,-2.5998,-2.6065,-2.6234,-2.6657,-2.6691,-2.6826,-2.7148,-2.686,-2.6996,-2.7621,-2.7073,-2.687,-2.7165,-2.687,-2.6649,-2.6401,-2.6401,-2.6262,-2.6013,-2.6297,-2.621,-2.5855,-2.6245,-2.6175,-2.5819,-2.5726,-2.5615,0.0,0.0,0.0,0.0,0.0,-2.5726,-2.6049,-2.6227,-2.647,-2.6691,-2.6691,-2.6691,-2.6691,-2.6691,-2.6691,-2.6691,-2.6691,-2.6691,-2.6691,-2.6691,-2.6387,-2.6065,-2.6065,-2.558,-2.5046,-2.471,-2.4418,-2.4248,-2.4248,-2.4085,0.0,-2.3638,-2.3595,-2.3508,-2.3246,-2.3152,-2.2971,-2.2715,-2.2378,-2.1962,-2.1589,-2.1032,-2.0494,-2.0162,-1.9643,0.0,0.0,0.0,-1.9479,-1.969,-1.969,0.0,0.0,0.0,0.0,0.0,0.0,0.0,0.0,-2.0722,-2.0805,0.0,0.0,0.0,0.0,0.0,0.0,0.0,0.0,0.0,0.0,0.0,0.0,0.0,0.0,0.0,0.0,-2.335,-2.4325,-2.5915,-2.5675,-2.5436,-2.5707,-2.5727,-2.5981,-2.664,-2.6691,-2.6725,-2.681,-2.6877,-2.7199,-2.7962,0.0,0.0,0.0,0.0,-2.796,-2.796,-2.796,-2.7394,-2.6333,-2.6333,-2.6333,-2.6333,-2.6234,-2.6378,-2.6708,-2.626,-2.6297,-2.6539,-2.5598,-2.5411,-2.5689,-2.5335,-2.5182,-2.5166,-2.5689,-2.5961,-2.6049,-2.647,0.0,0.0,-2.6691,-2.6691,-2.6691,-2.6691,-2.6691,-2.6691,-2.6691,-2.6691,-2.6691,-2.6691,-2.6657,-2.6624,-2.6624,-2.6262,-2.5888,-2.5852,-2.5067,-2.4389,-2.4389,-2.4348,-2.4199,-2.3752,-2.3681,-2.3508,-2.2875,-2.3246,-2.3421,-2.2875,-2.2802,-2.2787,-2.2688,0.0,0.0,-2.0861,-2.0323,-1.9977,-1.9944,-1.9463,-1.9426,-1.9914,-1.9914,-1.9914,-1.9914,-2.0389,-2.0819,-2.1247,-2.2359,-2.3112,-2.3494,-2.2125,-2.1706,0.0,0.0,0.0,0.0,0.0,0.0,0.0,0.0,0.0,0.0,0.0,0.0,0.0,0.0,0.0,-2.2668,-2.462,-2.5993,-2.5749,-2.6392,-2.6768,-2.6538,-2.6488,-2.6539,-2.6674,-2.6691,-2.6945,-2.7554,-2.7945,-2.8453,-2.9195,-2.9109,-2.9161,-2.9471,-2.9004,-2.8755,-2.8755,-2.8755,-2.8651,-2.8426,0.0,0.0,-2.841,-2.775,-2.7305,-2.7018,-2.6704,-2.6401,-2.6085,-2.5449,-2.4752,-2.4158,-2.4894,-2.495,-2.4632,-2.5144,-2.5615,-2.6013,-2.612,-2.6367,-2.6691,-2.6691,-2.6691,-2.6691,-2.6691,-2.6691,0.0,-2.6691,-2.6691,-2.6691,-2.6691,-2.6401,-2.6156,-2.6156,-2.5726,-2.5259,-2.4776,-2.4552,-2.4389,-2.4389,-2.4032,-2.3879,-2.4199,-2.4225,-2.4074,-2.3493,-2.3508,-2.3551,-2.3421,-2.3447,-2.3243,-2.2745,-2.2193,-2.1756,-2.1541,-2.1021,-2.0892,-2.1267,-2.1227,-2.1212,-2.1306,-2.1306,-2.1306,-2.1306,-2.2134,-2.2598,-2.2703,-2.3685,-2.4194,-2.4272,-2.3981,-2.3883,0.0,0.0,0.0,0.0,0.0,0.0,0.0,0.0,0.0,0.0,0.0,-2.038,-2.1499,0.0,-2.3369,-2.4313,-2.542,-2.6226,-2.6419,-2.6764,-2.6939,-2.6725,-2.6691,-2.6691,-2.6691,-2.7247,-2.7756,-2.8133,-2.8923,-2.9624,-3.0143,-2.9797,-2.9851,-3.0396,-2.9867,-2.955,-2.955,-2.955,-2.9364,-2.9011,-2.9011,-2.9011,-2.9011,-2.8569,-2.8292,-2.8039,-2.7923,-2.7719,-2.7451,-2.6918,-2.6014,-2.5025,-2.5828,-2.5447,-2.4511,-2.5297,-2.5779,-2.6049,-2.6262,-2.6505,-2.6691,-2.6691,-2.6691,-2.6691,-2.6691,-2.6691,-2.6691,-2.6691,-2.6691,-2.6691,-2.6691,-2.6367,-2.6013,-2.6013,-2.5373,-2.4752,-2.4471,-2.4199,-2.3991,-2.3991,-2.3991,-2.3991,-2.3991,-2.4225,-2.4241,-2.3681,-2.3595,-2.3595,-2.3595,-2.3595,-2.3465,-2.3187,-2.2907,-2.2598,-2.2247,-2.163,-2.1385,-2.1695,-2.1695,-2.1695,-2.1695,-2.1695,-2.1798,-2.2026,-2.276,-2.3224,-2.3517,-2.4544,-2.505,-2.505,-2.5423,-2.5389,0.0,0.0,0.0,0.0,0.0,0.0,0.0,0.0,-2.0372,-2.1228,-2.1515,-2.1972,-2.3173,-2.363,-2.4326,-2.5837,-2.5934,-2.6145,-2.706,-2.6971,-2.6825,-2.6825,-2.6825,-2.6876,-2.7012,-2.8019,-2.8743,-2.9039,-3.0044,-3.0765,-3.1028,-3.0488,-3.0508,-3.1278,-3.0654,-3.0311,-3.0311,-3.0311,-3.0023,-2.9414,-2.9414,-2.9414,-2.9397,-2.9262,-2.9194,-2.9194,-2.9042,-2.8938,-2.8811,-2.8367,-2.7522,-2.6567,-2.7093,-2.6409,-2.5234,-2.5897,-2.6156,-2.6191,-2.659,-2.6691,-2.6691,-2.6691,-2.6691,-2.6691,-2.6691,-2.6691,-2.6691,-2.6691,-2.6624,-2.6539,-2.6539,-2.6139,-2.5726,-2.5815,-2.5028,-2.4266,-2.4389,-2.3991,-2.3595,-2.3595,-2.3948,-2.4116,-2.3681,-2.3964,-2.4116,-2.3681,-2.3595,-2.3595,-2.3595,-2.3595,-2.3595,-2.3595,-2.3595,-2.34,-2.2906,-2.2368,-2.2069,-2.2069,-2.2069,-2.2069,-2.2069,-2.2069,-2.2239,-2.2648,-2.3212,-2.3732,-2.4146,-2.5279,-2.5812,-2.5828,-2.642,-2.6387,-1.699,-1.8378,-1.9361,-2.0619,-1.9987,-1.9572,0.0,0.0,-2.0855,-2.195,-2.2699,-2.319,-2.3359,-2.4475,-2.5406,-2.5639,-2.6183,-2.664,-2.6741,-2.7036,-2.7224,-2.7224,-2.7224,-2.75,-2.8224,-2.8737,-2.9614,-3.0977,-3.1607,-3.2002,-3.2274,-3.2206,-3.2038,-3.1752,-3.1304,-3.1072,-3.1072,-3.1072,-3.1038,-3.0937,-3.0937,-3.0937,-3.092,-3.0277,-2.9989,-2.9939,-2.9262,-2.872,-2.829,-2.8196,-2.7816,-2.7315,-2.7869,-2.7954,-2.7668,-2.6922,-2.6624,-2.6624,-2.6691,-2.6691,-2.6691,-2.6691,-2.6691,-2.6691,-2.6691,-2.6691,-2.6691,-2.6691,-2.6401,-2.6085,-2.6085,-2.5335,-2.4712,-2.5182,-2.4471,-2.3837,-2.4307,-2.3991,-2.3595,-2.3595,-2.3638,-2.3681,-2.3595,-2.3638,-2.3681,-2.3595,-2.3595,-2.3595,-2.3595,-2.3595,-2.3595,-2.3595,-2.3595,-2.3565,-2.3505,-2.343,-2.3385,-2.3385,-2.3385,-2.3385,-2.3385,-2.3385,-2.3428,-2.3456,-2.4437,-2.4981,-2.5072,-2.6079,-2.6573,-2.6573,-2.6657,-2.6657,-1.7362,-1.8703,-1.9649,0.0,-2.0594,-2.0754,-2.1691,-2.2086,-2.2358,-2.284,-2.3528,-2.4154,-2.4611,-2.5186,-2.5744,0.0,-2.6488,-2.6791,-2.7036,-2.721,-2.7396,-2.7619,-2.7805,-2.8191,-2.878,-2.965,-3.0498,-3.1324,-3.2437,-3.2805,-3.2109,-3.235,-3.2264,-3.1808,-3.164,-3.1677,-3.195,-3.1967,-3.1823,-3.1545,-3.1545,-3.1411,-3.119,-3.0886,-3.0734,-3.0717,-3.0395,-3.0128,-2.9956,-2.9956,-2.9571,-2.8976,-2.9204,-2.9051,-2.8598,-2.8176,-2.774,-2.7351,-2.7351,-2.7063,-2.6691,-2.6691,-2.6691,-2.6691,-2.6691,-2.6505,-2.6297,-2.6297,-2.5924,-2.5524,-2.5524,-2.5221,-2.4816,-2.4752,-2.4389,-2.4032,-2.3948,-2.3752,-2.3595,-2.3595,-2.3595,-2.3595,-2.3595,-2.3595,-2.3595,-2.3595,-2.3595,-2.3595,-2.3595,-2.3595,-2.3595,-2.3595,-2.3595,-2.3595,-2.3595,-2.3595,-2.3595,-2.3595,-2.3595,-2.3595,-2.3595,-2.3595,-2.3767,-2.4074,-2.4511,-2.491,-2.5221,-2.5944,-2.6297,-2.6314,-2.6993,-2.7351,-1.8012,0.0,0.0,-2.0391,-2.0975,-2.143,-2.143,-2.2209,-2.2975,-2.3177,-2.3907,-2.4743,-2.5456,-2.5778,-2.6082,-2.6607,-2.6774,-2.6971,-2.7272,-2.747,-2.7718,-2.7992,-2.8342,-2.8869,-2.9663,-3.0324,-3.1074,-3.1984,-3.2948,-3.3078,-3.2247,-3.2517,-3.2484,-3.1986,-3.1986,-3.2179,-3.2484,-3.2484,-3.2264,-3.1789,-3.1789,-3.166,-3.1389,-3.1389,-3.1389,-3.1351,-3.1269,-3.119,-3.119,-3.119,-3.0886,-3.0412,-3.0412,-3.0074,-2.96,-2.96,-2.8975,-2.8146,-2.8146,-2.7774,-2.7283,-2.708,-2.7148,-2.7249,-2.6874,-2.6659,-2.6484,-2.6138,-2.568,-2.5187,-2.5036,-2.4855,-2.4712,-2.4471,-2.4282,-2.4116,-2.3879,-2.3724,-2.3595,-2.3595,-2.3595,-2.3595,-2.3595,-2.3595,-2.3595,-2.3595,-2.3595,-2.3595,-2.3595,-2.3595,-2.3595,-2.3595,-2.3595,-2.3595,-2.3595,-2.3595,-2.3595,-2.3595,-2.3595,-2.3595,-2.3595,-2.3595,-2.3794,-2.4184,-2.4307,-2.4592,-2.4973,-2.554,-2.5877,-2.6089,-2.6949,-2.7461,0.0,0.0,-2.0975,-2.0959,-2.0991,-2.1023,-2.1023,-2.1354,-2.1842,-2.2566,-2.3672,-2.4743,-2.5456,-2.6184,-2.6674,-2.6691,-2.7036,-2.7303,-2.7303,-2.7918,-2.8376,-2.8376,-2.8749,-2.9599,-3.1176,-3.0644,-3.1194,-3.356,-3.3046,-3.2803,-3.313,-3.3184,-3.2952,-3.2484,-3.2484,-3.2484,-3.2484,-3.2484,-3.2264,-3.1789,-3.1789,-3.1771,-3.1789,-3.1789,-3.1789,-3.1752,-3.1389,-3.119,-3.119,-3.119,-3.119,-3.1157,-3.1157,-3.114,-3.1123,-3.1123,-3.0192,-2.8941,-2.8941,-2.896,-2.8789,-2.8027,-2.8298,-2.8699,-2.7288,-2.7416,-2.7765,-2.6551,-2.579,-2.5257,-2.4601,-2.4032,-2.3752,-2.4266,-2.3991,-2.3752,-2.4266,-2.3964,-2.3595,-2.3595,-2.3595,-2.3595,-2.3595,-2.3595,-2.3595,-2.3595,-2.3595,-2.3595,-2.3595,-2.3595,-2.3595,-2.3595,-2.3595,-2.3595,-2.3595,-2.3595,-2.3595,-2.3595,-2.3595,-2.3595,-2.3595,-2.3595,-2.3595,-2.3638,-2.4158,-2.4389,-2.443,-2.495,-2.555,-2.6198,-2.6214,-2.6598,-1.947,0.0,-2.0139,-2.0139,-2.033,-2.055,-2.055,-2.1261,-2.2135,-2.283,-2.3967,-2.503,-2.5728,-2.6319,-2.6691,-2.6691,-2.7019,-2.7378,-2.7648,-2.8084,-2.8696,-2.9503,-2.9716,0.0,-3.2045,-3.1476,0.0,-3.3291,-3.3396,-3.3203,-3.2759,-3.3045,-3.3124,-3.2983,-3.2983,-3.3105,-3.3343,-3.3343,-3.3148,-3.2745,-3.24,-3.2264,-3.2264,-3.2264,-3.2092,-3.1789,-3.166,-3.1449,-3.119,-3.119,-3.119,-3.119,-3.119,-3.119,-3.119,-3.119,-3.0886,-3.0378,-2.9905,-2.9397,-2.8941,-2.867,-2.8772,-2.8924,-2.8434,-2.8222,-2.7987,-2.7071,-2.6414,-2.5756,-2.4698,-2.4854,-2.5186,-2.4539,-2.4594,-2.4725,-2.4457,-2.3991,-2.3595,-2.3595,-2.3595,-2.3595,-2.3595,-2.3595,-2.3595,-2.3595,-2.3595,-2.3595,-2.3595,-2.3595,-2.3595,-2.3595,-2.3595,-2.3595,-2.3595,-2.3595,-2.3595,-2.3595,-2.3595,-2.3595,-2.3595,-2.3595,-2.3595,-2.3595,-2.3752,-2.4106,-2.4517,-2.5485,-2.6294,-2.6958,-2.8204,-2.8899,-1.9287,-1.9406,-1.9442,-1.9639,-1.9909,-2.0089,-2.0089,-2.0793,-2.1637,-2.2382,-2.34,-2.4414,-2.5246,-2.578,-2.6175,-2.643,-2.6931,-2.7401,-2.7833,-2.8568,-2.9325,-3.0112,-3.0448,-3.1146,0.0,0.0,0.0,-3.3328,-3.3378,-3.324,-3.2978,-3.3255,-3.3419,-3.3419,-3.3419,-3.355,-3.3807,-3.3807,-3.3606,-3.3184,-3.2872,-3.2745,-3.2745,-3.2745,-3.25,-3.2022,-3.188,-3.1565,-3.119,-3.119,-3.119,-3.119,-3.119,-3.119,-3.119,-3.119,-3.119,-3.1123,-3.0666,-3.0176,-2.9719,-2.9465,-2.9567,-2.9719,-2.9244,-2.8987,-2.8695,-2.7512,-2.7098,-2.6741,-2.5406,-2.5853,-2.6413,-2.5668,-2.5628,-2.5675,-2.5253,-2.4722,-2.4238,-2.4014,-2.4163,-2.4238,-2.3999,-2.4163,-2.4313,-2.4313,-2.4313,-2.4238,-2.3999,-2.3744,-2.3789,-2.4268,-2.4103,-2.4059,-2.4298,-2.4313,-2.4313,-2.4313,-2.4313,-2.4313,-2.4313,-2.4313,-2.4313,-2.4313,-2.4313,-2.4537,-2.4971,-2.5669,-2.6529,-2.7422,-2.8607,-2.9411,-1.8893,-1.893,-1.9043,-1.9566,-1.969,-1.969,-1.969,-2.0,-2.0481,-2.1315,-2.2098,-2.299,-2.4093,0.0,-2.5288,-2.6018,-2.6782,-2.7474,-2.7954,-2.9293,-3.0283,0.0,0.0,0.0,0.0,0.0,0.0,-3.3807,0.0,-3.3018,-3.3825,-3.3825,-3.3807,-3.3807,-3.3807,-3.3807,-3.3807,-3.3807,-3.3606,-3.3243,-3.3243,-3.3243,-3.3243,-3.3243,-3.2983,-3.2517,-3.2057,-3.164,-3.1269,-3.1269,-3.1269,-3.1252,-3.123,-3.123,-3.123,-3.119,-3.119,-3.119,-3.119,-3.119,-3.1072,-3.0378,-3.0632,-3.096,-2.9689,-2.9791,-2.9955,-2.7994,-2.7965,-2.8174,-2.6776,-2.6937,-2.7476,-2.7444,-2.7015,-2.657,-2.6523,-2.6077,-2.542,-2.4746,-2.5181,-2.542,-2.4746,-2.5196,-2.5615,-2.5615,-2.5615,-2.539,-2.4716,-2.4103,-2.4193,-2.5465,-2.5046,-2.4881,-2.5555,-2.5615,-2.5615,-2.5615,-2.5615,-2.5615,-2.5615,-2.5615,-2.5615,-2.5615,-2.5615,-2.563,-2.5659,-2.5706,-2.6335,-2.7596,-2.7596,-2.8259,-1.8893,-1.9207,-1.953,-1.969,-1.969,-1.969,-1.969,-1.9782,-2.0127,-2.1142,-2.1811,-2.2671,-2.3969,-2.4879,0.0,-2.6782,-2.7883,0.0,-2.9508,-3.0469,0.0,-3.1935,0.0,-3.2614,-3.3421,-3.3495,0.0,0.0,-3.3954,-3.3862,-3.4642,-3.4137,-3.3807,-3.3807,-3.3807,-3.3807,-3.3807,-3.3807,-3.3734,-3.3652,-3.3652,-3.3652,-3.3652,-3.3652,-3.3419,-3.3014,-3.2921,-3.2583,-3.2162,-3.2162,-3.2162,-3.2109,-3.177,-3.166,-3.1603,-3.1329,-3.119,-3.119,-3.119,-3.119,-3.1157,-3.097,-3.1055,-3.1157,-3.078,-3.0824,-3.0734,-2.9694,-2.9521,-2.9376,-2.8046,-2.8207,-2.8616,-2.8115,-2.7593,-2.7235,-2.711,-2.6332,-2.5555,-2.539,-2.5495,-2.5555,-2.539,-2.5495,-2.5615,-2.5615,-2.5615,-2.5555,-2.5375,-2.5211,-2.5226,-2.557,-2.5465,-2.542,-2.56,-2.5615,-2.5615,-2.5615,-2.5615,-2.5615,-2.5615,-2.5615,-2.5615,-2.5615,-2.5615,-2.5854,-2.6333,-2.681,-2.7688,-2.891,-2.891,-2.9583,-1.8893,-1.9132,-1.9406,-1.9639,-1.969,-1.9747,-1.9909,-1.9965,-2.0212,-2.0983,-2.1567,-2.2179,-2.3096,-2.4126,0.0,0.0,0.0,0.0,-2.9639,-3.1003,-3.21,0.0,-3.2926,0.0,-3.3752,-3.3807,-3.4284,0.0,-3.4584,-3.4278,-3.4963,-3.4694,-3.4481,-3.4339,-3.4706,-3.4954,-3.5058,-3.4338,-3.4171,-3.4548,-3.4153,-3.391,-3.3807,-3.3807,-3.3578,-3.3214,0.0,-3.2952,-3.2484,-3.2484,-3.2484,-3.2451,-3.1986,-3.1789,-3.1752,-3.1351,-3.119,-3.119,-3.119,-3.119,-3.119,-3.119,-3.119,-3.119,-3.119,-3.119,-3.1055,-3.0311,-3.0345,-3.0319,-2.9314,-2.9532,-2.9966,-2.9605,-2.8897,-2.8302,-2.8259,-2.7531,-2.6883,-2.6883,-2.6419,-2.6138,-2.6422,-2.6467,-2.6467,-2.6467,-2.6467,-2.6467,-2.6467,-2.5959,-2.5839,-2.6408,-2.6213,-2.6153,-2.6437,-2.6467,-2.6467,-2.6467,-2.6467,-2.6467,-2.6467,-2.6467,-2.6467,-2.6467,-2.6467,-2.6647,-2.7021,-2.7367,-2.8202,-2.9406,-2.9134,-2.9805,-1.8893,-1.8968,-1.9118,-1.966,-1.9782,-1.9874,-2.028,-2.0434,-2.0567,-2.0991,0.0,-2.1845,-2.218,-2.3175,-2.4212,-2.5079,0.0,-2.8757,-2.9343,-3.1329,-3.2761,-3.2761,-3.3385,-3.3807,-3.3807,-3.3842,-3.4512,-3.6094,-3.5014,-3.4612,-3.5293,-3.5525,-3.5521,-3.5183,-3.5956,-3.6463,-3.6702,-3.5179,-3.4792,-3.5477,-3.4745,-3.4179,-3.3807,-3.4027,-3.3826,-3.3291,-3.3382,-3.3135,-3.2681,-3.2681,-3.2681,-3.2648,-3.2161,-3.1951,-3.1861,-3.1411,-3.1269,-3.119,-3.119,-3.119,-3.119,-3.119,-3.119,-3.119,-3.119,-3.119,-3.1072,-3.0429,-3.0717,-3.1055,-3.0412,-3.0717,-3.119,-3.119,-3.0335,-2.954,-2.954,-2.8996,-2.8511,-2.8511,-2.7522,-2.6901,-2.752,-2.7625,-2.7625,-2.7625,-2.7625,-2.7625,-2.7625,-2.6572,-2.6303,-2.7505,-2.7066,-2.6946,-2.7565,-2.7625,-2.7625,-2.7625,-2.7625,-2.7625,-2.7625,-2.7625,-2.7625,-2.7625,-2.7625,-2.7625,-2.7625,-2.7625,-2.8174,-2.9271,-2.8732,-2.9406,-1.8893,-1.9207,-1.966,-2.0089,-2.0193,-2.033,-2.0748,-2.1085,0.0,0.0,-2.1995,-2.2557,-2.2937,-2.3678,-2.4699,-2.6086,-2.8058,-2.9773,-3.084,-3.2488,-3.3587,0.0,-3.3715,-3.3807,-3.3807,-3.4012,0.0,0.0,-3.522,-3.5553,-3.6985,-3.67,-3.6356,-3.6064,-3.6424,-3.6645,-3.6702,-3.5972,-3.5581,-3.5496,-3.536,-3.4754,-3.3844,-3.522,-3.5064,-3.3744,-3.4393,0.0,-3.356,-3.356,-3.356,-3.3532,-3.3136,-3.2713,-3.2316,-3.1861,-3.147,-3.119,-3.119,-3.119,-3.119,-3.119,-3.119,-3.119,-3.119,-3.119,-3.1173,-3.1055,-3.1106,-3.1157,-3.1038,-3.1106,-3.119,-3.119,-3.0658,-3.0123,-3.0123,-2.9271,-2.8511,-2.8511,-2.7902,-2.749,-2.7595,-2.7625,-2.7625,-2.7625,-2.7625,-2.7625,-2.7625,-2.743,-2.737,-2.7595,-2.752,-2.744,-2.761,-2.7625,-2.7625,-2.7625,-2.7625,-2.7625,-2.7625,-2.7625,-2.7625,-2.7625,-2.7625,-2.7625,-2.7625,-2.7625,-2.7944,-2.8654,-2.8559,-2.918,-1.9332,-1.9645,-2.0054,-2.0246,-2.0483,-2.0781,-2.1213,0.0,0.0,0.0,-2.2565,-2.2968,-2.3147,-2.3802,0.0,-2.5279,-2.7066,-2.8855,-3.0252,-3.1656,0.0,-3.3697,-3.3807,-3.385,0.0,-3.4537,-3.5282,-3.6246,-3.6368,-3.6482,-3.6646,-3.6414,-3.6812,-3.7996,-3.7304,-3.7412,-3.8474,-3.6898,-3.6273,-3.6587,-3.6132,-3.5477,-3.474,-3.5962,-3.5984,-3.5092,-3.5037,-3.477,-3.4394,-3.3972,-3.3807,-3.3762,-3.3361,-3.3075,-3.2809,-3.2332,-3.2039,-3.1896,-3.1896,-3.1714,-3.1507,-3.1507,-3.1389,-3.119,-3.119,-3.119,-3.119,-3.119,-3.119,-3.119,-3.119,-3.119,-3.119,-3.119,-3.074,-3.0293,-3.0293,-2.9585,-2.8966,-2.8966,-2.8496,-2.7944,-2.766,-2.7625,-2.7625,-2.7625,-2.7625,-2.7625,-2.7625,-2.7625,-2.7625,-2.7625,-2.7625,-2.7625,-2.7625,-2.7625,-2.7625,-2.7625,-2.7625,-2.7625,-2.7625,-2.7625,-2.7625,-2.7625,-2.7625,-2.7625,-2.7625,-2.7625,-2.8076,-2.895,-2.8654,-2.9316,-1.969,-2.0,-2.0314,-2.0416,-2.0781,-2.1244,-2.1658,-2.2046,0.0,0.0,-2.3069,-2.3392,-2.3323,0.0,-2.4302,0.0,-2.6063,0.0,-2.9385,-3.0779,-3.2192,0.0,-3.3868,0.0,-3.4195,-3.5086,0.0,-3.6627,-3.6957,-3.6974,-3.6532,-3.664,-3.7599,-3.9542,-3.8383,-3.8512,-4.0081,-3.8,-3.7254,-3.7868,-3.7182,-3.646,-3.5783,-3.6752,-3.6867,-3.6266,-3.5771,-3.5459,-3.521,-3.4596,-3.4339,-3.4293,-3.3793,-3.3526,-3.3388,-3.2848,-3.2583,-3.2484,-3.2484,-3.2264,-3.1915,-3.1808,-3.1545,-3.119,-3.119,-3.119,-3.119,-3.119,-3.119,-3.119,-3.119,-3.119,-3.119,-3.119,-3.0838,-3.0477,-3.0477,-3.0038,-2.9585,-2.9585,-2.9104,-2.8543,-2.8091,-2.7894,-2.781,-2.781,-2.766,-2.7625,-2.7625,-2.7625,-2.7625,-2.7625,-2.7625,-2.7625,-2.7625,-2.7625,-2.7625,-2.7625,-2.7625,-2.7625,-2.7625,-2.7625,-2.7625,-2.7625,-2.7625,-2.766,-2.781,-2.781,-2.8367,-2.9406,-2.9058,-2.971,-1.969,-2.0,-2.0416,-2.0829,-2.1244,-2.1658,-2.2135,0.0,0.0,-2.2772,-2.3437,-2.4016,-2.3714,-2.3951,0.0,0.0,0.0,0.0,0.0,0.0,-3.2816,-3.3697,0.0,0.0,-3.42,-3.5434,0.0,-3.5337,-3.5534,-3.6508,-3.8442,-3.8996,-3.9354,-3.958,-3.9749,-3.9909,-4.0101,-3.938,-3.8936,-3.8765,-3.8632,-3.7879,-3.6646,-3.8167,-3.7942,-3.634,-3.6982,-3.6853,0.0,-3.6101,-3.6064,-3.5991,-3.5145,-3.4615,-3.4194,-3.3424,-3.289,-3.2484,-3.2484,-3.2484,-3.2384,-3.1915,-3.1545,-3.119,-3.119,-3.119,-3.119,-3.119,-3.119,-3.119,-3.119,-3.119,-3.119,-3.119,-3.1151,-3.1112,-3.1112,-3.0658,-3.0208,-3.0208,-2.9717,-2.9316,-2.9225,-2.8779,-2.8415,-2.8415,-2.7944,-2.7625,-2.7625,-2.7625,-2.7625,-2.7625,-2.7625,-2.7625,-2.7625,-2.7625,-2.7625,-2.7625,-2.7625,-2.7625,-2.7625,-2.7625,-2.7625,-2.7625,-2.7625,-2.786,-2.8415,-2.8415,-2.8779,-2.9406,-2.9908,-3.0596,-1.9782,-2.0208,-2.0764,-2.0959,-2.1507,-2.2101,-2.2456,0.0,-2.2972,-2.3253,-2.361,-2.3917,-2.3996,-2.4113,-2.4243,0.0,-2.5118,-2.6313,-2.825,-2.96,0.0,-3.2871,-3.3747,0.0,0.0,0.0,-3.6241,-3.6067,-3.7137,-3.7924,-3.8306,-3.8014,-3.8554,-4.0081,-3.9789,-3.984,-4.0339,-3.9115,-3.8727,-3.9128,-3.8575,-3.8192,-3.8007,-3.8959,-3.9002,-3.8271,-3.7894,-3.7571,0.0,-3.6756,-3.6454,-3.6211,-3.5349,-3.4887,-3.4663,-3.386,-3.3447,-3.3284,-3.3284,-3.3118,-3.2872,-3.2695,-3.235,-3.1896,-3.1368,-3.119,-3.119,-3.119,-3.119,-3.119,-3.119,-3.119,-3.119,-3.119,-3.119,-3.119,-3.119,-3.1015,-3.074,-3.0393,-3.0123,-2.9805,-2.9451,-2.918,-2.8919,-2.8559,-2.8286,-2.7993,-2.7675,-2.7625,-2.7625,-2.7625,-2.7625,-2.7625,-2.7625,-2.7625,-2.7625,-2.7625,-2.7625,-2.7625,-2.7625,-2.7625,-2.776,-2.814,-2.814,-2.8463,-2.9042,-2.95,-3.0014,-3.0631,-3.1292,-3.1978,-2.0174,-2.0632,-2.1181,-2.1181,-2.1751,-2.236,0.0,-2.2772,-2.3021,-2.3566,-2.3774,-2.3917,-2.4151,-2.419,-2.419,0.0,-2.4593,-2.5676,-2.7842,-2.9053,0.0,0.0,0.0,-3.4423,0.0,-3.553,-3.6358,-3.7031,-3.7757,-3.8238,-3.8373,-3.7565,-3.8123,-4.0431,-3.995,-3.9796,-4.0142,-3.92,-3.8931,-3.9296,-3.8911,-3.8898,-3.9204,-3.9575,-3.969,-3.9561,-3.8739,-3.8396,0.0,-3.7678,-3.7291,-3.7044,-3.6093,-3.5752,-3.5624,-3.4559,-3.4156,-3.4119,-3.388,-3.3606,-3.3361,-3.3243,-3.2983,-3.255,-3.1823,-3.1582,-3.1562,-3.1428,-3.1291,-3.119,-3.119,-3.119,-3.119,-3.119,-3.119,-3.119,-3.119,-3.119,-3.1055,-3.0658,-3.0576,-3.0435,-2.9995,-2.9761,-2.9451,-2.8873,-2.8591,-2.8271,-2.7675,-2.776,-2.786,-2.786,-2.8042,-2.7993,-2.7625,-2.7625,-2.7625,-2.7625,-2.7625,-2.766,-2.786,-2.786,-2.814,-2.8732,-2.8795,-2.9153,-2.998,-3.0509,-3.1181,-3.2014,-3.253,-3.3088,-2.1007,-2.1275,-2.1582,-2.1582,-2.1957,-2.236,-2.2634,-2.2972,-2.33,-2.3628,-2.3958,-2.4208,-2.419,-2.419,-2.419,-2.419,-2.5548,-2.7145,-2.8755,-3.0375,0.0,0.0,0.0,-3.4694,-3.4694,-3.519,-3.6199,-3.7853,-3.6469,0.0,-3.9142,-3.845,-3.8757,-4.045,-4.0489,-4.0104,-3.9315,-4.0065,-4.0065,-3.9296,-4.0085,-4.0336,-4.0101,-4.0101,-3.9922,-3.9599,-3.9599,-3.958,0.0,-3.9219,-3.9061,-3.896,-3.7893,-3.7489,-3.7257,-3.5605,-3.4972,-3.4862,-3.4082,-3.3807,-3.3734,-3.3332,-3.3184,-3.3105,-3.2616,-3.2484,-3.2384,-3.1915,-3.1507,-3.119,-3.119,-3.119,-3.119,-3.119,-3.119,-3.119,-3.119,-3.119,-3.119,-3.119,-3.119,-3.119,-3.119,-3.0699,-3.0081,-2.9496,-2.8873,-2.8271,-2.7675,-2.814,-2.8511,-2.8511,-2.8996,-2.8904,-2.771,-2.7625,-2.7625,-2.7625,-2.7625,-2.786,-2.8479,-2.8511,-2.8779,-2.9361,-2.9406,-3.0057,-3.1391,-3.1391,-3.2091,-3.3389,-3.3406,-3.3795,-2.1055,-2.1275,-2.1672,-2.1886,-2.2241,-2.273,-2.3253,-2.33,-2.3369,-2.3917,-2.3937,-2.3917,-2.4151,-2.419,-2.4557,-2.5658,0.0,0.0,0.0,0.0,0.0,-3.2852,-3.4012,-3.4774,0.0,0.0,-3.5718,-3.6257,-3.6315,-3.693,-3.8334,-3.8142,-3.8527,-3.9642,-3.9681,-3.9546,-3.9296,-3.895,-3.9238,-4.0104,-3.9815,-3.9919,-4.0372,-4.0177,-4.0139,-4.0193,-4.0023,-3.9943,-3.9922,-3.9576,-3.9289,-3.8997,-3.7929,-3.7507,-3.7294,-3.5624,-3.499,-3.4862,-3.4082,-3.3807,-3.378,-3.3652,-3.3606,-3.3578,-3.3447,-3.2965,-3.2417,-3.1915,-3.1733,-3.1545,-3.1252,-3.119,-3.119,-3.119,-3.119,-3.119,-3.119,-3.119,-3.119,-3.119,-3.119,-3.119,-3.119,-3.1055,-3.0699,-3.0123,-2.9848,-2.9496,-2.8904,-2.8996,-2.9134,-2.9134,-2.9731,-2.9765,-2.8904,-2.881,-2.881,-2.881,-2.881,-2.8904,-2.9088,-2.9134,-2.963,-3.074,-3.0784,-3.1424,-3.2765,-3.3252,-3.3994,-3.4912,-3.4912,-3.5047,0.0,-2.1828,-2.2102,-2.2451,-2.2686,-2.3021,-2.3566,-2.3544,-2.3544,-2.4094,-2.4036,-2.3937,-2.417,-2.419,-2.452,-2.5529,-2.6209,0.0,0.0,0.0,0.0,-3.3068,0.0,0.0,0.0,-3.5335,-3.5493,-3.5493,-3.5968,-3.6622,-3.7469,-3.7507,-3.7911,-3.8777,-3.9123,-3.9296,-3.9296,-3.9065,-3.9315,-4.0027,-3.9835,-4.0008,-4.0489,-4.0339,-4.0339,-4.0489,-4.0321,-4.025,0.0,-3.9778,-3.9481,-3.92,-3.8319,-3.7936,-3.779,-3.645,-3.5752,-3.5385,-3.4541,-3.4064,-3.3807,-3.3807,-3.3807,-3.3807,-3.3807,-3.3314,-3.2681,-3.2196,-3.1933,-3.1696,-3.1291,-3.119,-3.119,-3.119,-3.119,-3.119,-3.119,-3.119,-3.119,-3.119,-3.119,-3.119,-3.119,-3.1427,-3.1419,-3.079,-3.0935,-3.0926,-3.0282,-3.0193,-3.0263,-3.0538,-3.0941,-3.1106,-3.0942,-3.0509,-3.0124,-2.9806,-3.0092,-3.0328,-3.0554,-3.0554,-3.1095,-3.2124,-3.214,-3.2696,-3.3829,-3.4556,-3.5165,-3.5622,-3.5622,-3.5622,0.0,-2.2625,-2.2753,-2.3124,-2.3253,-2.3305,-2.3671,-2.3753,0.0,-2.4151,-2.419,-2.4208,-2.4263,-2.4245,-2.4263,-2.4502,0.0,0.0,0.0,-3.0595,0.0,0.0,-3.4467,0.0,-3.5053,-3.532,-3.5493,-3.5493,-3.5493,-3.5853,-3.6661,-3.6661,-3.7046,-3.7969,-3.8796,-3.9238,-3.9296,-4.0027,-4.0065,-3.9392,-4.0142,-4.0489,-4.0489,-4.0489,-4.0489,0.0,-4.0489,-4.0489,-4.0438,-3.9842,-3.9599,-3.9529,-3.8931,-3.8707,-3.8597,-3.7716,-3.6927,-3.6174,-3.5229,-3.4431,-3.3807,-3.3807,-3.3807,-3.3807,-3.3807,-3.355,-3.3154,-3.2681,-3.223,-3.1789,-3.1389,-3.1325,-3.1375,-3.1336,-3.1387,-3.1382,-3.1343,-3.136,-3.136,-3.136,-3.136,-3.136,-3.136,-3.1901,-3.2176,-3.162,-3.2111,-3.236,-3.1788,-3.1618,-3.1781,-3.2475,-3.2488,-3.2696,-3.3355,-3.2344,-3.1451,-3.0728,-3.1354,-3.1976,-3.2541,-3.2541,-3.2857,-3.3491,-3.3541,-3.3897,-3.4573,-3.5284,-3.5622,-3.5622,-3.5622,-3.5622,-2.1316,0.0,-2.2394,-2.3356,-2.3566,-2.3671,0.0,-2.4074,-2.4094,0.0,0.0,0.0,-2.5017,-2.4612,0.0,0.0,0.0,0.0,-3.1366,0.0,0.0,-3.3839,-3.4375,-3.4714,-3.4793,-3.5223,-3.5493,-3.5493,-3.5493,-3.5853,-3.6661,-3.6122,-3.6469,-3.795,-3.82,-3.8623,-3.9277,-3.9488,-3.9796,-4.0219,-4.0412,-4.0489,-4.0489,-4.0489,-4.0489,-4.0489,-4.0489,-4.0489,-4.0438,-3.9842,-3.9599,-3.9529,-3.8931,-3.8707,-3.8524,-3.711,-3.645,-3.6083,-3.4596,-3.3972,-3.3807,-3.3807,-3.3807,-3.3807,-3.3807,-3.3734,-3.3578,-3.3136,-3.2952,-3.2777,-3.2316,-3.2652,-3.3019,-3.2668,-3.3059,-3.3373,-3.2964,-3.2882,-3.2882,-3.2882,-3.2882,-3.2882,-3.2882,-3.3034,-3.3094,-3.2951,-3.3102,-3.3117,-3.2988,-3.2966,-3.3018,-3.3143,-3.3659,-3.3812,-3.344,-3.3117,-3.2904,-3.272,-3.2871,-3.3031,-3.316,-3.3177,-3.3515,-3.4235,-3.481,-3.5182,-3.5351,-3.5537,-3.5622,-3.5622,-3.5622,-3.5622,-2.0551,-2.1496,-2.2422,-2.3182,-2.3662,-2.3976,-2.417,0.0,0.0,0.0,0.0,0.0,0.0,0.0,0.0,0.0,-2.7781,0.0,0.0,0.0,-3.3842,-3.3961,-3.4398,-3.4734,0.0,-3.5273,-3.5493,-3.5493,-3.5493,-3.5699,-3.6142,-3.5738,-3.6084,-3.7353,-3.7411,-3.8007,-3.9277,-3.9662,-4.0065,-4.0489,-4.0489,-4.0489,-4.0489,-4.0489,-4.0489,-4.0489,-4.0489,-4.0489,-4.0438,-3.9842,-3.969,-3.9775,-3.9136,-3.898,-3.8951,-3.7562,-3.6804,-3.6297,-3.4853,-3.4357,-3.4302,-3.3917,-3.4045,-3.4357,-3.4357,-3.4357,-3.4183,-3.3411,-3.3485,-3.3633,-3.3182,-3.3649,-3.4111,-3.3674,-3.389,-3.4047,-3.3532,-3.3406,-3.3406,-3.3406,-3.3406,-3.3406,-3.3406,-3.3677,-3.3897,-3.3897,-3.4201,-3.4421,-3.4421,-3.4117,-3.4032,-3.4387,-3.4455,-3.4472,-3.4421,-3.4421,-3.4269,-3.3931,-3.4235,-3.4421,-3.4421,-3.4421,-3.4607,-3.5013,-3.5419,-3.5622,-3.5622,-3.5622,-3.5622,-3.5622,-3.5622,-3.5622,-2.0029,-2.1295,-2.2493,-2.2905,-2.3602,-2.419,-2.419,0.0,0.0,0.0,0.0,0.0,0.0,0.0,0.0,0.0,0.0,0.0,-3.1771,-3.3141,-3.4012,-3.4265,-3.4572,0.0,-3.5088,-3.5335,-3.5493,-3.5493,-3.5493,-3.5493,-3.5493,-3.5493,-3.5815,-3.6507,-3.6642,-3.7411,-3.8892,-3.9835,-4.0315,-4.0315,-4.0431,-4.0489,-4.0489,-4.0489,-4.0489,-4.0489,0.0,0.0,-4.0473,-3.9884,-3.984,-4.0022,-3.9414,-3.9339,-3.9463,-3.8315,-3.7485,-3.6726,-3.557,-3.5192,-3.511,-3.4394,-3.4651,-3.5192,-3.5192,-3.5192,-3.4989,-3.3971,-3.4172,-3.4586,-3.4199,-3.4686,-3.5171,-3.4721,-3.4676,-3.461,-3.4004,-3.3854,-3.3854,-3.3854,-3.3854,-3.3896,-3.3963,-3.4449,-3.4814,-3.49,-3.5287,-3.565,-3.581,-3.5222,-3.5069,-3.5786,-3.5275,-3.5155,-3.5803,-3.5854,-3.5581,-3.4934,-3.5338,-3.5622,-3.5622,-3.5622,-3.5622,-3.5622,-3.5622,-3.5622,-3.5622,-3.5622,-3.5622,-3.5622,-3.5622,-3.565,-2.025,-2.1165,-2.2063,-2.2813,-2.3602,-2.419,0.0,0.0,0.0,0.0,0.0,0.0,0.0,0.0,0.0,0.0,0.0,-3.2508,0.0,0.0,-3.4591,-3.4632,0.0,-3.5051,-3.5105,-3.5335,-3.5493,-3.5493,-3.5493,-3.5493,-3.5493,-3.5493,-3.5565,-3.568,-3.6353,-3.6834,-3.7103,-3.8681,-3.9469,-3.9488,-4.0162,-4.0489,-4.0489,-4.0489,-4.0489,-4.0489,0.0,-4.0489,-4.0473,-4.0158,-4.0042,-4.0061,-3.9668,-3.9534,-3.9463,-3.8315,-3.7839,-3.7564,-3.6482,-3.6101,-3.6083,-3.5954,-3.5991,-3.6101,-3.6101,-3.6101,-3.6064,-3.5878,-3.5904,-3.5996,-3.5919,-3.6504,-3.6966,-3.644,-3.6841,-3.7059,-3.6134,-3.5963,-3.5963,-3.5963,-3.5963,-3.6069,-3.6552,-3.6342,-3.6266,-3.6728,-3.6138,-3.5924,-3.6825,-3.6458,-3.6318,-3.6886,-3.6837,-3.6819,-3.6925,-3.6943,-3.6907,-3.6767,-3.6028,-3.5622,-3.5622,-3.5622,-3.5622,-3.5622,-3.5622,-3.5622,-3.5622,-3.5622,-3.5622,-3.5622,-3.5622,-3.5854,-1.9748,-2.0813,-2.1894,-2.2263,-2.3272,-2.419,0.0,0.0,0.0,0.0,0.0,0.0,0.0,0.0,0.0,-3.066,0.0,-3.3294,-3.358,-3.4245,-3.4754,0.0,0.0,-3.5174,-3.5304,-3.5432,-3.5493,-3.5493,-3.5493,-3.5493,-3.5493,-3.5493,-3.5493,-3.5493,-3.5872,-3.6065,-3.6065,-3.7276,-3.8373,-3.9296,-4.0104,-4.0489,-4.0489,-4.0489,-4.0489,-4.0489,0.0,-4.0489,-4.0473,-4.0213,-4.0177,-4.0304,-3.9983,-3.9944,-3.9948,-3.8633,-3.7678,-3.6962,-3.6452,-3.6578,-3.6872,-3.6431,-3.6578,-3.6945,-3.6945,-3.6945,-3.7037,-3.7477,-3.7276,-3.6945,-3.6945,-3.7533,-3.8028,-3.7489,-3.7641,-3.772,-3.6981,-3.6843,-3.6843,-3.6843,-3.6843,-3.6921,-3.7152,-3.6999,-3.6921,-3.7135,-3.6786,-3.6626,-3.7152,-3.6981,-3.6921,-3.7173,-3.719,-3.719,-3.719,-3.719,-3.719,-3.719,-3.6746,-3.6481,-3.6481,-3.6481,-3.6481,-3.6481,-3.6165,-3.6165,-3.6481,-3.6165,-3.6165,-3.6481,-3.6481,-3.6603,-1.9528,-2.0666,-2.1858,-2.2024,0.0,-2.419,0.0,0.0,0.0,0.0,0.0,0.0,0.0,0.0,0.0,-3.1232,-3.267,-3.3597,-3.3856,-3.4483,-3.4963,-3.5174,-3.519,-3.5273,-3.5493,-3.5493,-3.5493,-3.5493,-3.5493,-3.5493,-3.5493,-3.5493,-3.5493,-3.5493,-3.5493,-3.5493,-3.5493,-3.6315,-3.7373,-3.87,-3.9719,-4.0219,-4.0219,-4.0412,-4.0489,-4.0489,-4.0489,-4.0489,-4.0489,-4.0286,-4.0302,-4.0473,-4.0267,-4.0232,-4.0172,-3.9077,-3.7916,-3.6853,-3.6853,-3.7257,-3.7661,-3.7055,-3.7276,-3.7771,-3.7771,-3.7771,-3.79,-3.8524,-3.8267,-3.7771,-3.7771,-3.823,-3.8596,-3.8183,-3.8099,-3.7946,-3.747,-3.736,-3.736,-3.736,-3.736,-3.7396,-3.7524,-3.7451,-3.7414,-3.7524,-3.734,-3.7303,-3.7524,-3.7433,-3.7396,-3.7524,-3.756,-3.756,-3.756,-3.756,-3.756,-3.756,-3.734,-3.719,-3.719,-3.719,-3.719,-3.719,-3.6803,-3.6803,-3.719,-3.6803,-3.6803,-3.719,-3.719,-3.7266,-2.0225,-2.1088,-2.1969,-2.274,0.0,0.0,-2.419,0.0,0.0,0.0,0.0,0.0,0.0,0.0,-3.0784,-3.1238,-3.2702,-3.3856,-3.412,0.0,-3.5446,-3.5479,-3.546,-3.5479,-3.5493,-3.5493,-3.5493,-3.5493,-3.5493,-3.5493,-3.5493,-3.5493,-3.5493,-3.5493,-3.5493,-3.5493,-3.5493,-3.6315,-3.6757,-3.6911,-3.8584,-3.9392,-3.9411,-4.0162,-4.0489,-4.0489,-4.0489,-4.0489,-4.0489,-4.0473,-4.0489,-4.0489,-4.0473,-4.0138,-3.9649,-3.9547,-3.9104,-3.8542,-3.8542,-3.8579,-3.8597,-3.856,-3.8579,-3.8615,-3.8615,-3.8615,-3.8634,-3.8689,-3.867,-3.8615,-3.8615,-3.867,-3.8707,-3.8658,-3.8627,-3.8515,-3.7946,-3.7859,-3.7859,-3.7859,-3.7859,-3.8032,-3.8515,-3.8183,-3.8032,-3.8515,-3.7791,-3.7524,-3.8483,-3.815,-3.8032,-3.8546,-3.8596,-3.8596,-3.8596,-3.8596,-3.8596,-3.8596,-3.7721,-3.719,-3.719,-3.719,-3.719,-3.719,-3.7135,-3.7135,-3.719,-3.7135,-3.7135,-3.719,-3.719,-3.7433,-1.9675,-2.0758,-2.1876,-2.2171,0.0,0.0,0.0,0.0,0.0,0.0,0.0,0.0,0.0,0.0,-3.1436,-3.1539,-3.2497,-3.3273,-3.3378,-3.4141,-3.468,-3.468,-3.518,-3.5493,-3.5493,-3.5493,-3.5493,-3.5493,-3.5493,-3.5493,-3.5493,-3.5493,-3.5493,-3.5493,-3.5493,-3.5493,-3.5493,-3.5815,-3.5949,-3.5968,-3.768,-3.8488,-3.8507,-3.8815,-3.9238,-3.9738,-3.9738,-4.0027,-4.0489,-4.0489,-4.0489,-4.045,-3.995,-3.9699,-3.9524,-3.8991,-3.8742,-3.8707,-3.8707,-3.8707,-3.8707,-3.8707,-3.8707,-3.8707,-3.8707,-3.8707,-3.8707,-3.8707,-3.8707,-3.8707,-3.8707,-3.8707,-3.8707,-3.8707,-3.8707,-3.8627,-3.8433,-3.8382,-3.8382,-3.8382,-3.8382,-3.8465,-3.8676,-3.8546,-3.8465,-3.8658,-3.8368,-3.8285,-3.8658,-3.8496,-3.8465,-3.8676,-3.8707,-3.8707,-3.8707,-3.8707,-3.8707,-3.8707,-3.835,-3.8135,-3.8135,-3.8135,-3.8135,-3.8135,-3.7808,-3.7808,-3.8135,-3.7808,-3.7808,-3.8135,-3.8135,-3.8234,-1.9675,-2.0904,-2.2171,0.0,0.0,0.0,0.0,0.0,0.0,0.0,0.0,0.0,0.0,0.0,0.0,0.0,-3.1853,-3.2377,-3.2321,-3.3245,-3.3953,-3.3953,-3.4718,-3.5258,-3.5258,-3.5258,-3.5258,-3.5258,-3.5258,-3.5258,-3.5258,-3.5258,-3.5258,-3.5258,-3.532,-3.5369,-3.5369,-3.5446,-3.5493,-3.5512,-3.6661,-3.7334,-3.7603,-3.7873,-3.8334,-3.8892,-3.9181,-3.9604,-4.0142,-4.0392,-4.0489,-4.045,-3.9892,-3.9697,-3.9678,-3.9091,-3.8865,-3.8815,-3.8815,-3.8762,-3.8719,-3.8803,-3.8815,-3.8815,-3.8815,-3.8815,-3.8803,-3.8719,-3.8707,-3.8707,-3.8707,-3.8707,-3.8707,-3.8707,-3.8707,-3.8707,-3.8707,-3.8707,-3.8707,-3.8707,-3.8707,-3.8707,-3.8707,-3.8707,-3.8707,-3.8707,-3.8707,-3.8707,-3.8707,-3.8707,-3.8707,-3.8707,-3.8707,-3.8707,-3.8707,-3.8707,-3.8707,-3.8707,-3.8707,-3.8707,-3.8707,-3.8707,-3.8707,-3.8707,-3.835,-3.8332,-3.8707,-3.8332,-3.835,-3.8707,-3.8707,-3.8707,-2.0503,-2.1713,-2.2997,0.0,0.0,0.0,0.0,0.0,0.0,0.0,0.0,0.0,0.0,0.0,0.0,-2.9969,-3.0719,-3.1229,-3.1012,-3.2373,-3.3374,-3.3393,-3.4167,-3.4694,-3.4694,-3.4694,-3.4694,-3.4694,-3.4694,-3.4694,-3.4694,-3.4694,-3.4694,-3.4694,-3.4963,-3.5105,-3.5105,-3.5369,-3.5493,-3.5493,-3.5493,-3.593,-3.6719,-3.7584,-3.7988,-3.8046,-3.8892,-3.9277,-3.9354,-4.0162,-4.0489,-4.0489,-4.0489,-4.0339,-4.0101,-4.0101,-3.9668,-3.9107,-3.9107,-3.8952,-3.8732,-3.9027,-3.9107,-3.9107,-3.9107,-3.9107,-3.9063,-3.8773,-3.8707,-3.8707,-3.8707,-3.8707,-3.8707,-3.8707,-3.8707,-3.8707,-3.8707,-3.8707,-3.8707,-3.8707,-3.8707,-3.8707,-3.8707,-3.8707,-3.8707,-3.8707,-3.8707,-3.8707,-3.8707,-3.8707,-3.8707,-3.8707,-3.8707,-3.8707,-3.8707,-3.8707,-3.8707,-3.8707,-3.8707,-3.8707,-3.8707,-3.8707,-3.8707,-3.8707,-3.8707,-3.8707,-3.8707,-3.8707,-3.8707,-3.8707,-3.8707,-3.8707,-2.0503,-2.1308,0.0,0.0,0.0,0.0,0.0,0.0,0.0,0.0,0.0,0.0,0.0,0.0,0.0,-2.978,-3.0023,-3.0141,-3.0089,-3.1014,-3.192,-3.2487,-3.328,-3.4035,-3.4637,-3.4694,-3.4694,-3.4694,-3.4694,-3.4694,-3.4694,-3.4694,-3.4694,-3.4694,-3.4963,-3.5105,-3.5105,-3.5369,-3.5493,-3.5493,-3.5493,-3.5608,-3.5872,-3.6122,-3.6546,-3.7103,-3.7353,-3.8161,-3.9354,-4.0162,-4.0489,-4.0431,-3.9873,-3.984,-4.0024,-3.9395,-3.9286,-3.9438,-3.9438,-3.9408,-3.9352,-3.9432,-3.9438,-3.9438,-3.9438,-3.9438,-3.9432,-3.9352,-3.9327,-3.9327,-3.9327,-3.9327,-3.9216,-3.8792,-3.8707,-3.8707,-3.8707,-3.8707,-3.8707,-3.8707,-3.8707,-3.8707,-3.8707,-3.8707,-3.8707,-3.8707,-3.8707,-3.8707,-3.8707,-3.8707,-3.8707,-3.8707,-3.8707,-3.8707,-3.8707,-3.8707,-3.8707,-3.8707,-3.8707,-3.8707,-3.8707,-3.8707,-3.8707,-3.8707,-3.8707,-3.8707,-3.8707,-3.8707,-3.8707,-3.8707,-3.8707,-3.8707,-2.1401,0.0,0.0,0.0,0.0,0.0,0.0,0.0,0.0,0.0,0.0,0.0,0.0,-2.9625,0.0,-2.9589,-2.9589,-2.9551,-2.9436,-3.0146,-3.0858,-3.1362,-3.211,-3.2932,-3.3769,-3.3863,-3.3994,-3.4311,-3.433,-3.433,-3.433,-3.433,-3.433,-3.433,-3.4595,-3.4736,-3.4736,-3.5034,-3.519,-3.519,-3.5289,-3.5354,-3.5335,-3.5446,-3.5776,-3.6238,-3.6565,-3.77,-3.9335,-3.9682,-4.0032,-4.0281,-3.9802,-3.96,-3.9567,-3.9506,-3.9395,-3.9321,-3.9683,-3.9712,-3.9622,-3.9754,-3.9797,-3.9797,-3.9797,-3.9797,-3.9775,-3.9645,-3.9599,-3.9599,-3.9599,-3.9599,-3.9505,-3.9154,-3.9064,-3.9008,-3.8884,-3.8952,-3.8998,-3.875,-3.8773,-3.8815,-3.8719,-3.8707,-3.8707,-3.8707,-3.8707,-3.8707,-3.8707,-3.8707,-3.8707,-3.8707,-3.8707,-3.8707,-3.8707,-3.8707,-3.8707,-3.8707,-3.8707,-3.8707,-3.8707,-3.8707,-3.8707,-3.8707,-3.8707,-3.8707,-3.8707,-3.8707,-3.8707,-3.8707,-3.8707,-3.8707,0.0,0.0,0.0,0.0,0.0,0.0,0.0,0.0,0.0,0.0,0.0,0.0,-2.9588,-2.9494,-2.9372,-2.9372,-2.9372,-2.9267,-2.9021,-2.9641,-3.0118,-3.0191,-3.0852,-3.1641,-3.2522,-3.2614,-3.2944,-3.3733,-3.3807,-3.3807,-3.3807,-3.3807,-3.3807,-3.3807,-3.4068,-3.42,-3.42,-3.4529,-3.4714,-3.4734,-3.4981,-3.5105,-3.5138,-3.5383,-3.5493,-3.5532,-3.6306,-3.7589,-3.905,-3.8876,-3.9281,-4.0043,-4.0043,-3.9528,-3.8956,-4.0021,-3.9744,-3.8975,-3.9853,-3.9943,-3.9735,-4.0042,-4.0139,-4.0139,-4.0139,-4.0139,-4.0062,-3.9757,-3.969,-3.969,-3.969,-3.969,-3.969,-3.969,-3.9645,-3.9529,-3.9212,-3.9389,-3.9451,-3.8892,-3.899,-3.9063,-3.8833,-3.8792,-3.8762,-3.875,-3.875,-3.875,-3.875,-3.8762,-3.8792,-3.8792,-3.8792,-3.8792,-3.8792,-3.8792,-3.8792,-3.8792,-3.8732,-3.875,-3.875,-3.8719,-3.8707,-3.8707,-3.8707,-3.8707,-3.8707,-3.8707,-3.8707,-3.8707,-3.8707,-3.8707,0.0,-2.2648,0.0,0.0,0.0,0.0,0.0,0.0,0.0,0.0,0.0,-2.9112,-2.9138,-2.9134,-2.9089,-2.9089,-2.9089,-2.9085,-2.9017,-2.914,-2.9494,-3.0118,-3.0356,-3.1017,-3.2467,-3.2614,-3.2944,-3.3733,-3.3807,-3.3807,-3.3807,-3.3807,-3.3807,-3.3807,-3.4068,-3.42,-3.42,-3.4529,-3.4812,-3.5016,-3.507,-3.5207,-3.5417,-3.546,-3.5493,-3.5532,-3.6131,-3.6719,-3.7339,-3.8433,-3.9103,-3.9465,-3.9465,-3.9369,-3.9215,-3.9473,-3.94,-3.9311,-4.0137,-4.0372,-4.0319,-4.0389,-4.0406,-4.0406,-4.0406,-4.0406,-4.0389,-4.0336,-4.0319,-4.0319,-4.0319,-4.0319,-4.0319,-4.0319,-3.9945,-3.9576,-3.9529,-3.9552,-3.9552,-3.9432,-3.9457,-3.9481,-3.9427,-3.9402,-3.9327,-3.9036,-3.9008,-3.9008,-3.9008,-3.9249,-3.9402,-3.9402,-3.9402,-3.9402,-3.9402,-3.9402,-3.9402,-3.9402,-3.9171,-3.9008,-3.9008,-3.8833,-3.8707,-3.8707,-3.8707,-3.8707,-3.8707,-3.8707,-3.8707,-3.8707,-3.8707,-3.8707,0.0,0.0,0.0,0.0,0.0,0.0,0.0,0.0,0.0,0.0,-2.8856,-2.9181,-2.9181,-2.9089,-2.8994,-2.8994,-2.8994,-2.8994,-2.8994,-2.8994,-2.914,-2.9586,-2.9641,-3.0118,-3.1347,-3.1458,-3.1953,-3.3146,-3.3238,-3.3385,-3.377,-3.3807,-3.3807,-3.3807,-3.3954,-3.3993,-3.3993,-3.4165,-3.433,-3.4467,-3.4615,-3.4832,-3.5122,-3.5383,-3.5493,-3.5512,-3.5662,-3.6096,-3.6728,-3.7241,-3.7851,-3.8427,-3.8427,-3.8427,-3.8501,-3.9092,-3.9296,-3.9411,-4.0219,-4.0489,-4.0489,-4.0489,-4.0489,-4.0489,-4.0489,-4.0489,-4.0489,-4.0489,-4.0489,-4.0489,-4.0489,-4.0489,-4.0489,-4.0489,-4.0266,-4.0004,-3.9861,-3.9944,-3.9964,-3.9668,-3.9731,-3.9797,-3.9622,-3.9599,-3.9552,-3.9383,-3.9339,-3.9339,-3.9339,-3.9486,-3.9599,-3.9599,-3.9599,-3.9599,-3.9599,-3.9599,-3.9599,-3.9599,-3.9457,-3.9339,-3.9339,-3.9216,-3.8998,-3.8707,-3.8707,-3.8707,-3.8707,-3.8707,-3.8707,-3.8707,-3.8707,-3.8707,0.0,0.0,0.0,0.0,0.0,0.0,0.0,0.0,0.0,0.0,-2.8158,-2.9001,-2.915,-2.8956,-2.8851,-2.8975,-2.8994,-2.8994,-2.8994,-2.8994,-2.8994,-2.8994,-2.8994,-2.9305,-3.0118,-3.021,-3.0815,-3.2284,-3.2522,-3.2908,-3.3568,-3.3715,-3.3807,-3.3807,-3.3807,-3.3807,-3.3807,-3.3807,-3.3815,-3.3876,-3.4147,-3.4423,-3.4733,-3.5174,-3.5369,-3.5354,-3.5122,-3.5553,-3.6415,-3.6084,-3.6521,-3.7352,-3.7352,-3.7352,-3.7483,-3.8485,-3.895,-3.9181,-4.0008,-4.0373,-4.0489,-4.0489,-4.0489,-4.0489,-4.0489,-4.0489,-4.0489,-4.0489,-4.0489,-4.0489,-4.0489,-4.0489,-4.0489,-4.0489,-4.0489,-4.0441,-4.0213,-4.0339,-4.0353,-3.9842,-3.9983,-4.0081,-3.98,-3.9712,-3.9709,-3.9709,-3.9709,-3.9709,-3.9709,-3.9735,-3.9757,-3.9757,-3.9757,-3.9757,-3.9757,-3.9757,-3.9757,-3.9757,-3.9712,-3.9709,-3.9709,-3.9622,-3.9377,-3.8862,-3.8862,-3.8862,-3.8862,-3.8862,-3.8862,-3.8862,-3.8792,-3.8835,0.0,0.0,0.0,0.0,0.0,0.0,0.0,0.0,0.0,0.0,-2.6758,-2.7437,-2.8144,-2.8088,-2.8191,-2.8906,-2.8994,-2.8994,-2.8994,-2.8994,-2.8994,-2.8994,-2.8994,-2.9305,-3.0118,-3.021,-3.0577,-3.1476,-3.221,-3.2669,-3.2761,-3.3421,-3.3807,-3.3807,-3.3807,-3.3807,-3.3807,-3.3807,-3.3928,-3.4147,-3.4486,-3.4653,-3.4694,-3.4774,-3.4812,-3.4793,-3.4754,-3.4964,-3.5348,-3.5983,-3.6468,-3.681,-3.681,-3.681,-3.6829,-3.6993,-3.7526,-3.8296,-3.9161,-3.9912,-4.0489,-4.0489,-4.0489,-4.0489,-4.0489,-4.0489,-4.0489,-4.0489,-4.0489,-4.0489,-4.0489,-4.0489,-4.0489,-4.0489,-4.0489,-4.0489,-4.0457,-4.0473,-4.0473,-4.0406,-4.0422,-4.0422,-4.0389,-4.0195,-4.0022,-4.0022,-4.0022,-4.0022,-4.0022,-4.025,-4.037,-4.037,-4.037,-4.037,-4.037,-4.037,-4.037,-4.037,-4.0157,-4.0022,-4.0022,-3.9754,-3.9552,-3.9481,-3.9481,-3.9481,-3.9481,-3.9481,-3.9481,-3.9457,-3.9178,-3.9407,0.0,0.0,0.0,0.0,0.0,0.0,0.0,0.0,0.0,-2.5333,-2.5448,-2.6079,-2.7792,-2.7943,-2.8062,-2.8865,-2.8994,-2.8994,-2.8994,-2.8994,-2.8994,-2.8994,-2.8994,-2.9122,-2.9494,-2.9549,-2.9861,-3.0668,-3.1054,-3.1458,-3.1898,-3.2265,-3.2651,-3.3109,-3.3128,-3.3348,-3.3807,-3.3807,-3.3868,-3.3986,-3.4136,-3.4208,-3.4208,-3.4353,-3.4595,-3.4926,-3.4773,-3.4944,-3.5343,-3.5537,-3.579,-3.6045,-3.6045,-3.6315,-3.6699,-3.6699,-3.7565,-3.8777,-3.9161,-3.9815,-4.0489,-4.0489,-4.0489,-4.0489,-4.0489,-4.0489,-4.0489,-4.0489,-4.0489,-4.0489,-4.0489,-4.0489,-4.0489,-4.0489,-4.0489,-4.0489,-4.0489,-4.0489,-4.0489,-4.0489,-4.0489,-4.0489,-4.0489,-4.0389,-4.0321,-4.0321,-4.0321,-4.0321,-4.0321,-4.0441,-4.0489,-4.0489,-4.0489,-4.0489,-4.0489,-4.095,-4.1239,-4.1239,-4.1121,-4.105,-4.105,-4.0443,-4.0101,-4.0101,-3.9778,-3.9599,-3.9599,-3.9599,-3.9599,-3.9599,-3.9438,-3.9469,0.0,0.0,0.0,0.0,0.0,0.0,0.0,0.0,-2.4639,0.0,-2.4528,-2.504,-2.7046,-2.7274,-2.7438,-2.8264,-2.8576,-2.8705,-2.8705,-2.8865,-2.8994,-2.8994,-2.8994,-2.8994,-2.8994,-2.8994,-2.9255,-2.9861,-3.0081,-3.0467,-3.1054,-3.1274,-3.1678,-3.2284,-3.2302,-3.2687,-3.3495,-3.3697,-3.3807,-3.3807,-3.3807,-3.3842,-3.3902,-3.4099,-3.4513,-3.5088,-3.4889,-3.5016,-3.5383,-3.5258,-3.532,-3.5493,-3.5493,-3.5872,-3.6411,-3.6411,-3.7488,-3.8969,-3.8969,-3.9642,-4.0489,-4.0489,-4.0489,-4.0489,-4.0489,-4.0489,-4.0489,-4.0489,-4.0489,-4.0489,-4.0489,-4.0489,-4.0489,-4.0489,-4.0489,-4.0489,-4.0489,-4.0489,-4.0489,-4.0489,-4.0489,-4.0489,-4.0489,-4.0489,-4.0489,-4.0489,-4.0489,-4.0489,-4.0489,-4.0489,-4.0489,-4.0489,-4.0489,-4.0585,-4.0796,-4.1431,-4.1893,-4.2124,-4.1931,-4.1797,-4.1797,-4.095,-4.0489,-4.0489,-4.0063,-3.9821,-3.9821,-3.9821,-3.9821,-3.9821,-3.9965,-4.0014,0.0,0.0,0.0,0.0,0.0,0.0,0.0,0.0,0.0,0.0,-2.4228,-2.4484,-2.5386,-2.5531,-2.5786,-2.6594,-2.7365,-2.786,-2.786,-2.8521,-2.8994,-2.8994,-2.8994,-2.8994,-2.8994,-2.8994,-2.9012,-2.9049,-2.9769,-3.0228,-3.0265,-3.098,-3.1403,-3.1458,-3.1458,-3.1843,-3.2669,-3.3421,-3.3807,-3.3807,-3.3807,-3.3935,-3.4195,-3.42,-3.4513,-3.5105,-3.5088,-3.5105,-3.5138,-3.5383,-3.5493,-3.5493,-3.5493,-3.5545,-3.5565,-3.5565,-3.6642,-3.8065,-3.8065,-3.9142,-4.0489,-4.0489,-4.0489,-4.0489,-4.0489,-4.0489,-4.0489,-4.0489,-4.0489,-4.0489,-4.0489,-4.0489,-4.0489,-4.0489,-4.0489,-4.0489,-4.0489,-4.0489,-4.0489,-4.0489,-4.0489,-4.0489,-4.0489,-4.0489,-4.0489,-4.0489,-4.0489,-4.0489,-4.0489,-4.0489,-4.0489,-4.0489,-4.0489,-4.0835,-4.1662,-4.1777,-4.2162,-4.2989,-4.2258,-4.1797,-4.1797,-4.095,-4.0489,-4.0489,-4.0473,-4.0438,-4.0438,-4.0438,-4.0438,-4.0476,-4.096,-4.1625,0.0,0.0,0.0,0.0,0.0,0.0,0.0,-2.419,-2.419,-2.419,-2.419,-2.4281,-2.4575,-2.5054,-2.5658,-2.6465,-2.7273,-2.7787,-2.7787,-2.8503,-2.8994,-2.8994,-2.8994,-2.8994,-2.8994,-2.8994,-2.8994,-2.8994,-2.925,-2.9439,-2.9439,-2.9714,-3.0099,-3.0613,-3.0632,-3.1256,-3.2596,-3.2908,-3.3293,-3.3807,-3.3807,-3.3868,-3.3961,-3.4353,-3.4634,-3.4851,-3.5207,-3.5354,-3.5369,-3.546,-3.5493,-3.5493,-3.5493,-3.5493,-3.5493,-3.5493,-3.6219,-3.718,-3.718,-3.8296,-3.9719,-3.9719,-4.0065,-4.0489,-4.0489,-4.0489,-4.0489,-4.0489,-4.0489,-4.0489,-4.0489,-4.0489,-4.0489,-4.0489,-4.0489,-4.0489,-4.0489,-4.0489,-4.0489,-4.0489,-4.0489,-4.0489,-4.0489,-4.0489,-4.0489,-4.0489,-4.0489,-4.0489,-4.0489,-4.0489,-4.0489,-4.0489,-4.0489,-4.0854,-4.1739,-4.2316,-4.2989,-4.3816,-4.3585,-4.3162,-4.2662,-4.1797,-4.1066,-4.0508,-4.0489,-4.0489,-4.0489,-4.0489,-4.0489,-4.0508,-4.1272,-4.1647,-2.0299,0.0,0.0,0.0,0.0,0.0,0.0,0.0,-2.419,-2.419,-2.419,-2.419,-2.419,-2.463,-2.5162,-2.5713,-2.6704,-2.7402,-2.7402,-2.8319,-2.8994,-2.8994,-2.8994,-2.8994,-2.8994,-2.8994,-2.8994,-2.8994,-2.8994,0.0,-2.8994,-2.8994,-2.9232,-2.9787,-3.0063,-3.0852,-3.2192,-3.2485,-3.2999,-3.3807,-3.3807,-3.3842,-3.3935,-3.4353,-3.4634,-3.4851,-3.5207,-3.5417,-3.5493,-3.5493,-3.5493,-3.5493,-3.5493,-3.5493,-3.5493,-3.5493,-3.6007,-3.6699,-3.6699,-3.7642,-3.8911,-3.92,-3.9662,-4.0142,-4.0412,-4.0489,-4.0489,-4.0489,-4.0489,-4.0489,-4.0489,-4.0489,-4.0489,-4.0489,-4.0489,-4.0489,-4.0489,-4.0489,-4.0489,-4.0489,-4.0489,-4.0489,-4.0489,-4.0489,-4.0489,-4.0489,-4.0489,-4.0489,-4.0489,-4.0489,-4.0489,-4.0489,-4.0489,-4.0969,-4.2143,-4.2777,-4.3431,-4.4239,-4.4047,-4.3528,-4.2701,-4.1835,-4.1085,-4.0508,-4.0489,-4.0642,-4.0931,-4.0642,-4.0489,-4.0527,-4.1681,-4.237,0.0,0.0,0.0,0.0,0.0,0.0,0.0,0.0,-2.419,-2.419,-2.419,-2.419,-2.419,-2.419,-2.419,-2.419,-2.5529,-2.6576,-2.6612,-2.797,-2.8957,-2.8994,-2.8994,-2.8994,-2.8994,-2.8994,-2.8994,-2.8994,-2.8994,-2.8994,-2.8994,-2.8994,-2.8994,-2.8994,-2.9769,-3.0558,-3.1347,-3.2173,-3.2981,-3.3752,-3.3788,-3.3954,-3.4176,-3.42,-3.4534,-3.5088,-3.5105,-3.5273,-3.5493,-3.5493,-3.5493,-3.5493,-3.5493,-3.5493,-3.5493,-3.5493,-3.5988,-3.6661,-3.6661,-3.7238,-3.8104,-3.895,-3.9258,-3.945,-4.0219,-4.0469,-4.0489,-4.0489,-4.0489,-4.0489,-4.0489,-4.0489,-4.0489,-4.0489,-4.0489,-4.0489,-4.0489,-4.0489,-4.0489,-4.0489,-4.0489,-4.0489,-4.0489,-4.0489,-4.0489,-4.0489,-4.0489,-4.0489,-4.0489,-4.0489,-4.0489,-4.0489,-4.0489,-4.12,-4.2912,-4.3066,-4.3412,-4.4201,-4.3528,-4.272,-4.1854,-4.0989,-4.0527,-4.0489,-4.0527,-4.095,-4.1797,-4.095,-4.0546,-4.0604,-4.2335,-4.3847,-1.9405,0.0,0.0,0.0,0.0,0.0,0.0,0.0,0.0,-2.419,-2.419,-2.419,-2.419,-2.419,-2.419,-2.419,-2.5052,-2.5933,-2.6521,-2.7475,-2.8356,-2.892,-2.8994,-2.8994,-2.8994,-2.8994,-2.8994,0.0,-2.8994,-2.8994,-2.8994,-2.8994,-2.8994,-2.8994,-2.9237,-2.9732,-3.0522,-3.1329,-3.2137,-3.2944,-3.3532,-3.3842,-3.3928,-3.4375,-3.4634,-3.4832,-3.5223,-3.5432,-3.5493,-3.5493,-3.5493,-3.5493,-3.5493,-3.5493,-3.5493,-3.5493,-3.5641,-3.5834,-3.5834,-3.6372,-3.7103,-3.7334,-3.8277,-3.9335,-3.9546,-4.0027,-4.0489,-4.0489,-4.0489,-4.0489,-4.0489,-4.0489,-4.0489,-4.0489,-4.0489,-4.0489,-4.0489,-4.0489,-4.0489,-4.0489,-4.0489,-4.0489,-4.0489,-4.0489,-4.0489,-4.0489,-4.0489,-4.0489,-4.0489,-4.0489,-4.0489,-4.0489,-4.0489,-4.095,-4.2066,-4.2162,-4.2527,-4.3374,-4.322,-4.272,-4.1854,-4.1566,-4.1143,-4.0508,-4.1123,-4.1566,-4.1797,-4.1566,-4.1758,-4.2412,-4.347,-4.4384,0.0,0.0,0.0,0.0,0.0,0.0,-2.3419,-2.3859,0.0,0.0,-2.419,-2.419,-2.419,-2.419,-2.43,-2.4649,-2.509,-2.5676,-2.6502,-2.7585,-2.8484,-2.8938,-2.8994,-2.8994,-2.8994,-2.8994,-2.8994,-2.8994,-2.8994,-2.8994,-2.8994,-2.8994,-2.8994,-2.8994,-2.8994,-2.9402,-3.0191,-3.0668,-3.1476,-3.2614,-3.3091,-3.3476,-3.3815,-3.416,-3.4442,-3.4714,-3.5016,-3.5289,-3.5493,-3.5493,-3.5493,-3.5493,-3.5493,-3.5493,-3.5493,-3.5493,-3.5493,-3.5493,-3.5493,-3.5815,-3.6257,-3.6603,-3.7392,-3.8277,-3.8642,-3.9335,-3.9988,-3.9988,-4.0239,-4.0489,-4.0489,-4.0489,-4.0489,-4.0489,-4.0489,-4.0489,-4.0489,-4.0489,-4.0489,-4.0489,-4.0489,-4.0489,-4.0489,-4.0489,-4.0489,-4.0489,-4.0489,-4.0489,-4.0489,-4.0489,-4.0489,-4.0489,-4.0489,-4.0854,-4.1739,-4.1797,-4.2027,-4.2527,-4.2566,-4.2162,-4.1296,-4.1258,-4.1027,-4.0508,-4.1354,-4.2143,-4.2835,-4.2508,-4.2777,-4.3605,-4.4085,-4.4669,-2.0464,-2.0631,0.0,0.0,-2.2942,0.0,-2.3896,-2.4135,-2.419,0.0,-2.419,-2.419,-2.419,-2.419,-2.4428,-2.5164,-2.5421,-2.5805,-2.6631,-2.797,-2.8883,-2.8975,-2.8994,-2.8994,-2.8994,-2.8994,-2.8994,-2.8994,-2.8994,-2.8994,-2.8994,-2.8994,-2.8994,-2.8994,-2.8994,-2.9347,-3.0063,-3.0246,-3.1054,-3.2485,-3.2651,-3.3109,-3.3788,-3.3868,-3.4184,-3.4694,-3.4754,-3.507,-3.5493,-3.5493,-3.5493,-3.5493,-3.5493,-3.5493,-3.5493,-3.5493,-3.5493,-3.5493,-3.5493,-3.5493,-3.5622,-3.6334,-3.6642,-3.6873,-3.7738,-3.8604,-3.9315,-3.9411,-3.995,-4.0489,-4.0489,-4.0489,-4.0489,-4.0489,-4.0489,-4.0489,-4.0489,-4.0489,-4.0489,-4.0489,-4.0489,-4.0489,-4.0489,-4.0489,-4.0489,-4.0489,-4.0489,-4.0489,-4.0489,-4.0489,-4.0489,-4.0489,-4.0489,-4.0796,-4.1585,-4.1662,-4.1662,-4.1662,-4.1758,-4.1412,-4.0527,-4.0585,-4.0642,-4.0642,-4.1585,-4.2854,-4.4432,-4.372,-4.3739,-4.4432,-4.4432,-4.4855,-2.1492,-2.1547,-2.162,-2.1951,0.0,0.0,-2.3199,-2.3749,-2.419,0.0,-2.419,-2.419,-2.419,-2.419,-2.4245,-2.441,-2.5511,-2.6649,-2.7438,-2.7842,-2.8282,-2.892,-2.8994,-2.8994,-2.8994,-2.8994,-2.8994,-2.8994,-2.8994,-2.8994,-2.8994,-2.8994,-2.8994,-2.8994,-2.8994,-2.9067,-2.9214,-3.0522,-3.1311,-3.1641,-3.2944,-3.3642,-3.3834,-3.4284,-3.4591,-3.4714,-3.5174,-3.5398,-3.5493,-3.5493,-3.5493,-3.5493,-3.5493,-3.5493,-3.5493,-3.5493,-3.5493,-3.5493,-3.5493,-3.5493,-3.5545,-3.568,-3.618,-3.6873,-3.7738,-3.8604,-3.9431,-4.0065,-4.0373,-4.0489,-4.0489,-4.0489,-4.0489,-4.0489,-4.0489,-4.0489,-4.0489,-4.0489,-4.0489,-4.0489,-4.0489,-4.0489,-4.0489,-4.0489,-4.0489,-4.0489,-4.0489,-4.0489,-4.0489,-4.0489,-4.0489,-4.0489,-4.0489,-4.0566,-4.0739,-4.0739,-4.0739,-4.0739,-4.1412,-4.1412,-4.0527,-4.1162,-4.1546,-4.1546,-4.3047,-4.4316,-4.5336,-4.5182,-4.5182,-4.5336,-4.5336,-4.5432,-2.2391,-2.2391,-2.2483,-2.2887,0.0,0.0,0.0,-2.3914,-2.419,-2.419,-2.419,-2.4228,-2.4339,-2.4339,-2.4504,-2.5019,-2.569,-2.6428,-2.7241,-2.7966,-2.8558,-2.8938,-2.8994,-2.8994,-2.8994,-2.8994,-2.8994,-2.8994,-2.8994,-2.8994,-2.8994,-2.8994,-2.8994,-2.8994,-2.8994,-2.8994,-2.8994,-2.9806,-3.0393,-3.0815,-3.2027,-3.2816,-3.3246,-3.4074,-3.4551,-3.4714,-3.5122,-3.5369,-3.5493,-3.5493,-3.5493,-3.5493,-3.5493,-3.5493,-3.5493,-3.5493,-3.5493,-3.5493,-3.5493,-3.5493,-3.5493,-3.5493,-3.5776,-3.618,-3.6622,-3.7642,-3.8911,-4.0142,-4.0489,-4.0489,-4.0489,-4.0489,-4.0489,-4.0489,-4.0489,-4.0489,-4.0489,-4.0489,-4.0489,-4.0489,-4.0489,-4.0489,-4.0489,-4.0489,-4.0489,-4.0489,-4.0489,-4.0489,-4.0489,-4.0489,-4.0489,-4.0489,-4.0489,-4.0489,-4.0489,-4.0489,-4.0489,-4.0489,-4.1316,-4.1412,-4.0527,-4.1335,-4.2008,-4.245,-4.3662,-4.472,-4.5586,-4.5586,-4.5586,-4.5586,-4.5586,-4.5586,0.0,0.0,-2.34,0.0,0.0,-2.419,0.0,0.0,0.0,-2.419,-2.419,0.0,0.0,0.0,0.0,0.0,0.0,0.0,0.0,-2.7798,0.0,-2.876,-2.8902,-2.8994,-2.8994,-2.8847,-2.881,-2.8975,-2.8847,-2.8851,-2.8975,-2.8994,-2.8994,-2.8994,-2.8994,-2.8994,-2.8994,-2.914,-2.9567,-3.021,-3.1164,-3.1905,-3.2495,-3.3743,-3.4373,-3.4547,-3.4994,-3.5304,-3.5493,-3.5493,-3.5493,-3.5493,-3.5493,-3.5493,-3.5493,-3.5493,-3.5493,-3.5493,-3.5493,-3.5493,-3.5493,-3.5493,-3.5603,-3.5757,-3.593,-3.7046,-3.8565,-4.0065,-4.0489,-4.0489,-4.0489,-4.0489,-4.0489,-4.0489,-4.0489,-4.0489,-4.0489,-4.0489,-4.0489,-4.0489,-4.0489,-4.0489,-4.0489,-4.0489,-4.0489,-4.0489,-4.0489,-4.0489,-4.0489,-4.0489,-4.0489,-4.0489,-4.0489,-4.0489,-4.0489,-4.0489,-4.0489,-4.0489,-4.1489,-4.1662,-4.0777,-4.1739,-4.2604,-4.3316,-4.4124,-4.4893,-4.5586,-4.5586,-4.5586,-4.5586,-4.5586,-4.5586,0.0,0.0,0.0,0.0,-2.419,0.0,0.0,0.0,-2.419,-2.419,0.0,0.0,0.0,0.0,0.0,0.0,0.0,0.0,-2.6105,-2.6709,-2.7338,-2.7864,-2.8576,-2.8994,-2.8994,-2.8356,-2.8227,-2.8938,-2.8338,-2.8246,-2.8957,-2.8994,-2.8994,-2.8994,-2.8994,-2.8994,-2.8994,-2.9714,-3.0118,-3.0228,-3.1751,-3.2269,-3.1953,-3.3813,-3.4377,-3.3946,-3.5009,-3.546,-3.5493,-3.5493,-3.5493,-3.5493,-3.5493,-3.5493,-3.5493,-3.5493,-3.5493,-3.5493,-3.5493,-3.5493,-3.5493,-3.5493,-3.5988,-3.6719,-3.7488,-3.8392,-3.9335,-4.0239,-4.0489,-4.0489,-4.0489,-4.0489,-4.0489,-4.0489,-4.0489,-4.0489,-4.0489,-4.0489,-4.0489,-4.0489,-4.0489,-4.0489,-4.0489,-4.0489,-4.0489,-4.0489,-4.0489,-4.0489,-4.0489,-4.0489,-4.0489,-4.0489,-4.0489,-4.0489,-4.0489,-4.0489,-4.0489,-4.0489,-4.2047,-4.2566,-4.17,-4.3162,-4.4066,-4.4162,-4.5009,-4.549,-4.5586,-4.5586,-4.5586,-4.5586,-4.5586,-4.5586,0.0,0.0,0.0,0.0,0.0,0.0,-2.419,0.0,-2.4228,0.0,0.0,0.0,0.0,0.0,0.0,0.0,-2.5273,0.0,0.0,0.0,-2.6631,0.0,0.0,0.0,-2.8264,-2.7989,-2.8136,-2.892,-2.8246,-2.8154,-2.8957,-2.8994,-2.8994,-2.8994,-2.8994,-2.8994,-2.8994,-2.9347,-2.9512,-2.9531,-3.0817,-3.1329,-3.1163,-3.2713,-3.3555,-3.3843,-3.4462,-3.5026,-3.5493,-3.5493,-3.5493,-3.5493,-3.5493,-3.5493,-3.5493,-3.5493,-3.5493,-3.5493,-3.5493,-3.5493,-3.5493,-3.5493,-3.5738,-3.6257,-3.7584,-3.8257,-3.8815,-4.0123,-4.0489,-4.0489,-4.0489,-4.0489,-4.0489,-4.0489,-4.0489,-4.0489,-4.0489,-4.0489,-4.0489,-4.0489,-4.0489,-4.0489,-4.0489,-4.0489,-4.0489,-4.0489,-4.0489,-4.0489,-4.0489,-4.0489,-4.0489,-4.0489,-4.0489,-4.0489,-4.0489,-4.0489,-4.0719,-4.1219,-4.2412,-4.3143,-4.3258,-4.3932,-4.4297,-4.4297,-4.5163,-4.5586,-4.5586,-4.5586,-4.5586,-4.5586,-4.5586,-4.5586,-2.4113,0.0,0.0,0.0,0.0,0.0,0.0,0.0,0.0,0.0,0.0,0.0,0.0,0.0,0.0,0.0,0.0,-2.5088,0.0,-2.5443,0.0,0.0,0.0,0.0,0.0,-2.7385,-2.7656,-2.8666,-2.7959,-2.7915,-2.8938,-2.9067,-2.9067,-2.9017,-2.9067,-2.9067,-2.8994,-2.8994,-2.8994,-2.9017,-3.0083,-3.0514,-3.0409,-3.2083,-3.3099,-3.3597,-3.426,-3.493,-3.5493,-3.5493,-3.5493,-3.5493,-3.5493,-3.5493,-3.5493,-3.5493,-3.5493,-3.5493,-3.5493,-3.5493,-3.5493,-3.5493,-3.5493,-3.5815,-3.7488,-3.8007,-3.8354,-4.0027,-4.0489,-4.0489,-4.0489,-4.0489,-4.0489,-4.0489,-4.0489,-4.0489,-4.0489,-4.0489,-4.0489,-4.0489,-4.0489,-4.0489,-4.0489,-4.0489,-4.0489,-4.0489,-4.0489,-4.0489,-4.0489,-4.0489,-4.0489,-4.0489,-4.0489,-4.0489,-4.0489,-4.0719,-4.1316,-4.2431,-4.3085,-4.3797,-4.4624,-4.4662,-4.4662,-4.4662,-4.5278,-4.5586,-4.5586,-4.5586,-4.5586,-4.5586,-4.5586,-4.5586,0.0,0.0,0.0,-2.419,0.0,0.0,0.0,0.0,-2.419,0.0,0.0,0.0,0.0,0.0,0.0,0.0,0.0,0.0,0.0,0.0,0.0,0.0,0.0,0.0,0.0,-2.6334,-2.6433,0.0,-2.72,-2.7346,-2.892,-2.9246,-2.9267,-2.9017,-2.9246,-2.9267,-2.9017,-2.8994,-2.8994,-2.9017,-3.0083,-3.0298,-2.9809,-3.2528,-3.3459,-3.3013,-3.4705,-3.5468,-3.5493,-3.5493,-3.5493,-3.5493,-3.5493,-3.5493,-3.5493,-3.5493,-3.5493,-3.5493,-3.5493,-3.5493,-3.5493,-3.5493,-3.5493,-3.5815,-3.7488,-3.8007,-3.8354,-4.0027,-4.0489,-4.0489,-4.0489,-4.0489,-4.0489,-4.0489,-4.0489,-4.0489,-4.0489,-4.0489,-4.0489,-4.0489,-4.0489,-4.0489,-4.0489,-4.0489,-4.0489,-4.0489,-4.0489,-4.0489,-4.0489,-4.0489,-4.0489,-4.0489,-4.0489,-4.0489,-4.0489,-4.1277,-4.247,-4.4124,-4.4239,-4.4643,-4.5509,-4.5547,-4.5547,-4.5547,-4.5586,-4.5586,-4.5586,-4.5586,-4.5586,-4.5586,-4.5586,-4.5586,0.0,0.0,-2.419,-2.419,0.0,0.0,0.0,0.0,0.0,0.0,0.0,0.0,0.0,0.0,0.0,0.0,0.0,0.0,0.0,0.0,0.0,0.0,0.0,0.0,0.0,0.0,0.0,0.0,-2.7491,0.0,-2.9175,-2.9474,-2.9513,-2.9267,-2.9494,-2.9533,-2.9456,-2.9456,-2.9456,-2.9475,-2.996,-3.0094,-2.9946,-3.1035,-3.2039,-3.2929,-3.3526,-3.443,-3.5493,-3.5493,-3.5493,-3.5493,-3.5493,-3.5493,-3.5493,-3.5493,-3.5493,-3.5493,-3.5493,-3.5493,-3.5493,-3.5493,-3.5493,-3.5815,-3.7488,-3.8007,-3.8354,-4.0027,-4.0489,-4.0489,-4.0489,-4.0489,-4.0489,-4.0489,-4.0489,-4.0489,-4.0489,-4.0489,-4.0489,-4.0489,-4.0489,-4.0489,-4.0489,-4.0489,-4.0489,-4.0489,-4.0489,-4.0489,-4.0489,-4.0489,-4.0489,-4.0489,-4.0489,-4.0489,-4.0489,-4.1835,-4.3124,-4.422,-4.4836,-4.5278,-4.5586,-4.5586,-4.5586,-4.5586,-4.5586,-4.5586,-4.5586,-4.5586,-4.5586,-4.5586,-4.5586,-4.5586,-2.4151,-2.419,0.0,-2.419,-2.419,0.0,-2.419,0.0,-2.4426,0.0,0.0,0.0,0.0,0.0,0.0,0.0,0.0,0.0,0.0,-2.5303,0.0,0.0,0.0,0.0,0.0,0.0,-2.6332,-2.7944,-2.7538,0.0,0.0,-2.9696,-2.9695,-2.9513,-2.9713,-2.9763,-2.9696,-2.9696,-2.9696,-2.9713,-2.9908,-2.9999,-3.0032,-3.0593,-3.1621,-3.2891,-3.2891,-3.3891,-3.5488,-3.518,-3.5218,-3.5493,-3.5493,-3.5493,-3.5493,-3.5493,-3.5493,-3.5493,-3.5493,-3.5493,-3.5493,-3.5493,-3.5493,-3.5815,-3.7488,-3.8007,-3.8354,-4.0027,-4.0489,-4.0489,-4.0489,-4.0489,-4.0489,-4.0489,-4.0489,-4.0489,-4.0489,-4.0489,-4.0489,-4.0489,-4.0489,-4.0489,-4.0489,-4.0489,-4.0489,-4.0489,-4.0489,-4.0489,-4.0489,-4.0489,-4.0489,-4.0489,-4.0543,-4.0831,-4.1482,-4.2794,-4.3951,-4.4778,-4.5355,-4.5643,-4.5586,-4.5586,-4.5586,-4.5586,-4.5586,-4.5586,-4.5586,-4.5586,-4.5586,-4.5586,-4.5586,-4.5586]}]]